<?xml version="1.0" encoding="UTF-8" standalone="no" ?>
<gpx xmlns="http://www.topografix.com/GPX/1/1" xmlns:xsi="http://www.w3.org/2001/XMLSchema-instance" xsi:schemaLocation="http://www.topografix.com/GPX/1/1 http://www.topografix.com/GPX/1/1/gpx.xsd" version="1.1" creator="VisuGPX - https://www.visugpx.com">
  <metadata>
    <name>Guip-Douvez-Forêt</name>
    <desc><![CDATA[Parcours avec peu de difficultés.]]></desc>
  </metadata>
  <trk>
    <name><![CDATA[Guipavas vtt]]></name>
    <trkseg>
      <trkpt lat="48.43829" lon="-4.3946">
        <ele>85.199996948242</ele>
        <time>2018-05-28T07:30:07.000Z</time>
      </trkpt>
      <trkpt lat="48.43829" lon="-4.3946">
        <ele>85.199996948242</ele>
        <time>2018-05-28T07:30:08.000Z</time>
      </trkpt>
      <trkpt lat="48.4383" lon="-4.39483">
        <ele>85.199996948242</ele>
        <time>2018-05-28T07:30:14.000Z</time>
      </trkpt>
      <trkpt lat="48.4382" lon="-4.39506">
        <ele>85.400001525879</ele>
        <time>2018-05-28T07:30:17.000Z</time>
      </trkpt>
      <trkpt lat="48.43808" lon="-4.39508">
        <ele>85.400001525879</ele>
        <time>2018-05-28T07:30:20.000Z</time>
      </trkpt>
      <trkpt lat="48.43791" lon="-4.395">
        <ele>85.599998474121</ele>
        <time>2018-05-28T07:30:24.000Z</time>
      </trkpt>
      <trkpt lat="48.43778" lon="-4.39498">
        <ele>85.800003051758</ele>
        <time>2018-05-28T07:30:27.000Z</time>
      </trkpt>
      <trkpt lat="48.43755" lon="-4.39496">
        <ele>85.400001525879</ele>
        <time>2018-05-28T07:30:32.000Z</time>
      </trkpt>
      <trkpt lat="48.4373" lon="-4.39498">
        <ele>84.400001525879</ele>
        <time>2018-05-28T07:30:37.000Z</time>
      </trkpt>
      <trkpt lat="48.43718" lon="-4.39498">
        <ele>83.800003051758</ele>
        <time>2018-05-28T07:30:39.000Z</time>
      </trkpt>
      <trkpt lat="48.437" lon="-4.39488">
        <ele>82.599998474121</ele>
        <time>2018-05-28T07:30:43.000Z</time>
      </trkpt>
      <trkpt lat="48.43687" lon="-4.39465">
        <ele>81.400001525879</ele>
        <time>2018-05-28T07:30:48.000Z</time>
      </trkpt>
      <trkpt lat="48.43689" lon="-4.39456">
        <ele>81.599998474121</ele>
        <time>2018-05-28T07:31:01.000Z</time>
      </trkpt>
      <trkpt lat="48.43674" lon="-4.39442">
        <ele>80.599998474121</ele>
        <time>2018-05-28T07:31:07.000Z</time>
      </trkpt>
      <trkpt lat="48.4366" lon="-4.39417">
        <ele>79.599998474121</ele>
        <time>2018-05-28T07:31:12.000Z</time>
      </trkpt>
      <trkpt lat="48.43659" lon="-4.39402">
        <ele>79.400001525879</ele>
        <time>2018-05-28T07:31:15.000Z</time>
      </trkpt>
      <trkpt lat="48.43651" lon="-4.39379">
        <ele>78</ele>
        <time>2018-05-28T07:31:19.000Z</time>
      </trkpt>
      <trkpt lat="48.43642" lon="-4.39374">
        <ele>77</ele>
        <time>2018-05-28T07:31:22.000Z</time>
      </trkpt>
      <trkpt lat="48.43638" lon="-4.39377">
        <ele>76.800003051758</ele>
        <time>2018-05-28T07:31:23.000Z</time>
      </trkpt>
      <trkpt lat="48.43615" lon="-4.39369">
        <ele>74.599998474121</ele>
        <time>2018-05-28T07:31:27.000Z</time>
      </trkpt>
      <trkpt lat="48.4361" lon="-4.39364">
        <ele>73.800003051758</ele>
        <time>2018-05-28T07:31:28.000Z</time>
      </trkpt>
      <trkpt lat="48.43601" lon="-4.39355">
        <ele>73.199996948242</ele>
        <time>2018-05-28T07:31:30.000Z</time>
      </trkpt>
      <trkpt lat="48.43589" lon="-4.39345">
        <ele>73</ele>
        <time>2018-05-28T07:31:34.000Z</time>
      </trkpt>
      <trkpt lat="48.43575" lon="-4.39337">
        <ele>73</ele>
        <time>2018-05-28T07:31:40.000Z</time>
      </trkpt>
      <trkpt lat="48.43571" lon="-4.39335">
        <ele>73</ele>
        <time>2018-05-28T07:31:44.000Z</time>
      </trkpt>
      <trkpt lat="48.4357" lon="-4.39317">
        <ele>73</ele>
        <time>2018-05-28T07:31:49.000Z</time>
      </trkpt>
      <trkpt lat="48.43568" lon="-4.39289">
        <ele>73</ele>
        <time>2018-05-28T07:31:54.000Z</time>
      </trkpt>
      <trkpt lat="48.43567" lon="-4.39283">
        <ele>73</ele>
        <time>2018-05-28T07:31:55.000Z</time>
      </trkpt>
      <trkpt lat="48.4356" lon="-4.39275">
        <ele>73.199996948242</ele>
        <time>2018-05-28T07:31:59.000Z</time>
      </trkpt>
      <trkpt lat="48.4356" lon="-4.39275">
        <ele>73.199996948242</ele>
        <time>2018-05-28T07:32:01.000Z</time>
      </trkpt>
      <trkpt lat="48.43558" lon="-4.3926">
        <ele>73.599998474121</ele>
        <time>2018-05-28T07:32:09.000Z</time>
      </trkpt>
      <trkpt lat="48.43542" lon="-4.39254">
        <ele>73.599998474121</ele>
        <time>2018-05-28T07:32:12.000Z</time>
      </trkpt>
      <trkpt lat="48.43531" lon="-4.39248">
        <ele>73.400001525879</ele>
        <time>2018-05-28T07:32:14.000Z</time>
      </trkpt>
      <trkpt lat="48.43519" lon="-4.39248">
        <ele>73</ele>
        <time>2018-05-28T07:32:17.000Z</time>
      </trkpt>
      <trkpt lat="48.43508" lon="-4.39261">
        <ele>72.800003051758</ele>
        <time>2018-05-28T07:32:20.000Z</time>
      </trkpt>
      <trkpt lat="48.43498" lon="-4.39274">
        <ele>72.599998474121</ele>
        <time>2018-05-28T07:32:23.000Z</time>
      </trkpt>
      <trkpt lat="48.43483" lon="-4.39271">
        <ele>72.199996948242</ele>
        <time>2018-05-28T07:32:27.000Z</time>
      </trkpt>
      <trkpt lat="48.4348" lon="-4.39249">
        <ele>72.199996948242</ele>
        <time>2018-05-28T07:32:30.000Z</time>
      </trkpt>
      <trkpt lat="48.43481" lon="-4.39241">
        <ele>72.199996948242</ele>
        <time>2018-05-28T07:32:31.000Z</time>
      </trkpt>
      <trkpt lat="48.43473" lon="-4.39215">
        <ele>71</ele>
        <time>2018-05-28T07:32:36.000Z</time>
      </trkpt>
      <trkpt lat="48.43463" lon="-4.39197">
        <ele>69.800003051758</ele>
        <time>2018-05-28T07:32:39.000Z</time>
      </trkpt>
      <trkpt lat="48.4345" lon="-4.39187">
        <ele>69</ele>
        <time>2018-05-28T07:32:41.000Z</time>
      </trkpt>
      <trkpt lat="48.4343" lon="-4.39154">
        <ele>68.199996948242</ele>
        <time>2018-05-28T07:32:46.000Z</time>
      </trkpt>
      <trkpt lat="48.43425" lon="-4.39112">
        <ele>68.400001525879</ele>
        <time>2018-05-28T07:32:50.000Z</time>
      </trkpt>
      <trkpt lat="48.43414" lon="-4.39092">
        <ele>69</ele>
        <time>2018-05-28T07:32:54.000Z</time>
      </trkpt>
      <trkpt lat="48.43399" lon="-4.39091">
        <ele>70</ele>
        <time>2018-05-28T07:32:58.000Z</time>
      </trkpt>
      <trkpt lat="48.43393" lon="-4.39078">
        <ele>70.400001525879</ele>
        <time>2018-05-28T07:33:01.000Z</time>
      </trkpt>
      <trkpt lat="48.43383" lon="-4.39073">
        <ele>70.800003051758</ele>
        <time>2018-05-28T07:33:04.000Z</time>
      </trkpt>
      <trkpt lat="48.43367" lon="-4.39076">
        <ele>71.599998474121</ele>
        <time>2018-05-28T07:33:08.000Z</time>
      </trkpt>
      <trkpt lat="48.43362" lon="-4.39079">
        <ele>72</ele>
        <time>2018-05-28T07:33:13.000Z</time>
      </trkpt>
      <trkpt lat="48.43356" lon="-4.39084">
        <ele>72.199996948242</ele>
        <time>2018-05-28T07:33:16.000Z</time>
      </trkpt>
      <trkpt lat="48.4335" lon="-4.39089">
        <ele>72.599998474121</ele>
        <time>2018-05-28T07:33:18.000Z</time>
      </trkpt>
      <trkpt lat="48.43317" lon="-4.39105">
        <ele>73.599998474121</ele>
        <time>2018-05-28T07:33:26.000Z</time>
      </trkpt>
      <trkpt lat="48.43296" lon="-4.39113">
        <ele>74.199996948242</ele>
        <time>2018-05-28T07:33:32.000Z</time>
      </trkpt>
      <trkpt lat="48.43271" lon="-4.39129">
        <ele>75</ele>
        <time>2018-05-28T07:33:38.000Z</time>
      </trkpt>
      <trkpt lat="48.43238" lon="-4.39141">
        <ele>75.599998474121</ele>
        <time>2018-05-28T07:33:45.000Z</time>
      </trkpt>
      <trkpt lat="48.43204" lon="-4.3915">
        <ele>75.800003051758</ele>
        <time>2018-05-28T07:33:52.000Z</time>
      </trkpt>
      <trkpt lat="48.43196" lon="-4.39152">
        <ele>75.800003051758</ele>
        <time>2018-05-28T07:33:54.000Z</time>
      </trkpt>
      <trkpt lat="48.43188" lon="-4.39163">
        <ele>76.199996948242</ele>
        <time>2018-05-28T07:33:58.000Z</time>
      </trkpt>
      <trkpt lat="48.43198" lon="-4.39198">
        <ele>76.800003051758</ele>
        <time>2018-05-28T07:34:04.000Z</time>
      </trkpt>
      <trkpt lat="48.43194" lon="-4.39223">
        <ele>77.400001525879</ele>
        <time>2018-05-28T07:34:08.000Z</time>
      </trkpt>
      <trkpt lat="48.43188" lon="-4.39234">
        <ele>77.800003051758</ele>
        <time>2018-05-28T07:34:10.000Z</time>
      </trkpt>
      <trkpt lat="48.4316" lon="-4.3927">
        <ele>78.400001525879</ele>
        <time>2018-05-28T07:34:18.000Z</time>
      </trkpt>
      <trkpt lat="48.43154" lon="-4.39278">
        <ele>78.599998474121</ele>
        <time>2018-05-28T07:34:20.000Z</time>
      </trkpt>
      <trkpt lat="48.43138" lon="-4.39299">
        <ele>79.400001525879</ele>
        <time>2018-05-28T07:34:25.000Z</time>
      </trkpt>
      <trkpt lat="48.43111" lon="-4.39339">
        <ele>81</ele>
        <time>2018-05-28T07:34:33.000Z</time>
      </trkpt>
      <trkpt lat="48.43102" lon="-4.39363">
        <ele>82</ele>
        <time>2018-05-28T07:34:37.000Z</time>
      </trkpt>
      <trkpt lat="48.43084" lon="-4.39386">
        <ele>81.599998474121</ele>
        <time>2018-05-28T07:34:43.000Z</time>
      </trkpt>
      <trkpt lat="48.43071" lon="-4.39379">
        <ele>80.400001525879</ele>
        <time>2018-05-28T07:34:46.000Z</time>
      </trkpt>
      <trkpt lat="48.43066" lon="-4.39356">
        <ele>78.800003051758</ele>
        <time>2018-05-28T07:34:49.000Z</time>
      </trkpt>
      <trkpt lat="48.43065" lon="-4.39346">
        <ele>78.199996948242</ele>
        <time>2018-05-28T07:34:50.000Z</time>
      </trkpt>
      <trkpt lat="48.43053" lon="-4.39299">
        <ele>74.599998474121</ele>
        <time>2018-05-28T07:34:55.000Z</time>
      </trkpt>
      <trkpt lat="48.43048" lon="-4.39294">
        <ele>73.800003051758</ele>
        <time>2018-05-28T07:34:56.000Z</time>
      </trkpt>
      <trkpt lat="48.43023" lon="-4.39273">
        <ele>70.400001525879</ele>
        <time>2018-05-28T07:35:00.000Z</time>
      </trkpt>
      <trkpt lat="48.42989" lon="-4.39239">
        <ele>65.199996948242</ele>
        <time>2018-05-28T07:35:05.000Z</time>
      </trkpt>
      <trkpt lat="48.42953" lon="-4.39219">
        <ele>60</ele>
        <time>2018-05-28T07:35:09.000Z</time>
      </trkpt>
      <trkpt lat="48.42911" lon="-4.39199">
        <ele>53.400001525879</ele>
        <time>2018-05-28T07:35:14.000Z</time>
      </trkpt>
      <trkpt lat="48.42892" lon="-4.39186">
        <ele>50.200000762939</ele>
        <time>2018-05-28T07:35:17.000Z</time>
      </trkpt>
      <trkpt lat="48.42865" lon="-4.39185">
        <ele>45.599998474121</ele>
        <time>2018-05-28T07:35:21.000Z</time>
      </trkpt>
      <trkpt lat="48.42851" lon="-4.39188">
        <ele>42.799999237061</ele>
        <time>2018-05-28T07:35:23.000Z</time>
      </trkpt>
      <trkpt lat="48.42835" lon="-4.39196">
        <ele>41</ele>
        <time>2018-05-28T07:35:25.000Z</time>
      </trkpt>
      <trkpt lat="48.42815" lon="-4.39214">
        <ele>37.599998474121</ele>
        <time>2018-05-28T07:35:28.000Z</time>
      </trkpt>
      <trkpt lat="48.428" lon="-4.39227">
        <ele>35.200000762939</ele>
        <time>2018-05-28T07:35:31.000Z</time>
      </trkpt>
      <trkpt lat="48.42788" lon="-4.39228">
        <ele>33.599998474121</ele>
        <time>2018-05-28T07:35:35.000Z</time>
      </trkpt>
      <trkpt lat="48.4278" lon="-4.39214">
        <ele>32.599998474121</ele>
        <time>2018-05-28T07:35:38.000Z</time>
      </trkpt>
      <trkpt lat="48.42772" lon="-4.39174">
        <ele>30</ele>
        <time>2018-05-28T07:35:43.000Z</time>
      </trkpt>
      <trkpt lat="48.42787" lon="-4.39137">
        <ele>29.39999961853</ele>
        <time>2018-05-28T07:35:49.000Z</time>
      </trkpt>
      <trkpt lat="48.42796" lon="-4.39134">
        <ele>30.799999237061</ele>
        <time>2018-05-28T07:35:53.000Z</time>
      </trkpt>
      <trkpt lat="48.42793" lon="-4.3913">
        <ele>30</ele>
        <time>2018-05-28T07:35:57.000Z</time>
      </trkpt>
      <trkpt lat="48.42785" lon="-4.39127">
        <ele>28.200000762939</ele>
        <time>2018-05-28T07:36:01.000Z</time>
      </trkpt>
      <trkpt lat="48.42767" lon="-4.39119">
        <ele>24.799999237061</ele>
        <time>2018-05-28T07:36:07.000Z</time>
      </trkpt>
      <trkpt lat="48.42761" lon="-4.39118">
        <ele>24.799999237061</ele>
        <time>2018-05-28T07:36:10.000Z</time>
      </trkpt>
      <trkpt lat="48.42751" lon="-4.39116">
        <ele>27</ele>
        <time>2018-05-28T07:36:13.000Z</time>
      </trkpt>
      <trkpt lat="48.42739" lon="-4.3911">
        <ele>29.200000762939</ele>
        <time>2018-05-28T07:36:18.000Z</time>
      </trkpt>
      <trkpt lat="48.42728" lon="-4.39106">
        <ele>31.39999961853</ele>
        <time>2018-05-28T07:36:22.000Z</time>
      </trkpt>
      <trkpt lat="48.42716" lon="-4.39096">
        <ele>33.400001525879</ele>
        <time>2018-05-28T07:36:28.000Z</time>
      </trkpt>
      <trkpt lat="48.42706" lon="-4.39086">
        <ele>35.200000762939</ele>
        <time>2018-05-28T07:36:33.000Z</time>
      </trkpt>
      <trkpt lat="48.42696" lon="-4.39069">
        <ele>37.200000762939</ele>
        <time>2018-05-28T07:36:40.000Z</time>
      </trkpt>
      <trkpt lat="48.42693" lon="-4.39055">
        <ele>37.799999237061</ele>
        <time>2018-05-28T07:36:45.000Z</time>
      </trkpt>
      <trkpt lat="48.42692" lon="-4.39039">
        <ele>37.799999237061</ele>
        <time>2018-05-28T07:36:50.000Z</time>
      </trkpt>
      <trkpt lat="48.42689" lon="-4.39023">
        <ele>38.799999237061</ele>
        <time>2018-05-28T07:36:55.000Z</time>
      </trkpt>
      <trkpt lat="48.42687" lon="-4.39011">
        <ele>38.799999237061</ele>
        <time>2018-05-28T07:37:00.000Z</time>
      </trkpt>
      <trkpt lat="48.42687" lon="-4.38994">
        <ele>38.400001525879</ele>
        <time>2018-05-28T07:37:07.000Z</time>
      </trkpt>
      <trkpt lat="48.42685" lon="-4.38987">
        <ele>38.400001525879</ele>
        <time>2018-05-28T07:37:10.000Z</time>
      </trkpt>
      <trkpt lat="48.42684" lon="-4.38972">
        <ele>38.200000762939</ele>
        <time>2018-05-28T07:37:17.000Z</time>
      </trkpt>
      <trkpt lat="48.42684" lon="-4.38948">
        <ele>37.599998474121</ele>
        <time>2018-05-28T07:37:24.000Z</time>
      </trkpt>
      <trkpt lat="48.42682" lon="-4.38927">
        <ele>38.200000762939</ele>
        <time>2018-05-28T07:37:31.000Z</time>
      </trkpt>
      <trkpt lat="48.42679" lon="-4.3891">
        <ele>38.200000762939</ele>
        <time>2018-05-28T07:37:37.000Z</time>
      </trkpt>
      <trkpt lat="48.42675" lon="-4.38888">
        <ele>38.400001525879</ele>
        <time>2018-05-28T07:37:43.000Z</time>
      </trkpt>
      <trkpt lat="48.42666" lon="-4.38869">
        <ele>38.400001525879</ele>
        <time>2018-05-28T07:37:48.000Z</time>
      </trkpt>
      <trkpt lat="48.42646" lon="-4.38847">
        <ele>39</ele>
        <time>2018-05-28T07:37:55.000Z</time>
      </trkpt>
      <trkpt lat="48.42624" lon="-4.38821">
        <ele>40.200000762939</ele>
        <time>2018-05-28T07:38:04.000Z</time>
      </trkpt>
      <trkpt lat="48.42606" lon="-4.38792">
        <ele>42.200000762939</ele>
        <time>2018-05-28T07:38:12.000Z</time>
      </trkpt>
      <trkpt lat="48.42602" lon="-4.38781">
        <ele>43</ele>
        <time>2018-05-28T07:38:15.000Z</time>
      </trkpt>
      <trkpt lat="48.42615" lon="-4.38755">
        <ele>43.799999237061</ele>
        <time>2018-05-28T07:38:22.000Z</time>
      </trkpt>
      <trkpt lat="48.42627" lon="-4.38725">
        <ele>45</ele>
        <time>2018-05-28T07:38:29.000Z</time>
      </trkpt>
      <trkpt lat="48.42641" lon="-4.38679">
        <ele>47.200000762939</ele>
        <time>2018-05-28T07:38:39.000Z</time>
      </trkpt>
      <trkpt lat="48.42652" lon="-4.38645">
        <ele>49</ele>
        <time>2018-05-28T07:38:46.000Z</time>
      </trkpt>
      <trkpt lat="48.42664" lon="-4.38622">
        <ele>49.799999237061</ele>
        <time>2018-05-28T07:38:51.000Z</time>
      </trkpt>
      <trkpt lat="48.42687" lon="-4.38589">
        <ele>49.400001525879</ele>
        <time>2018-05-28T07:38:58.000Z</time>
      </trkpt>
      <trkpt lat="48.42704" lon="-4.38566">
        <ele>46.599998474121</ele>
        <time>2018-05-28T07:39:02.000Z</time>
      </trkpt>
      <trkpt lat="48.42724" lon="-4.38518">
        <ele>43.400001525879</ele>
        <time>2018-05-28T07:39:07.000Z</time>
      </trkpt>
      <trkpt lat="48.42741" lon="-4.38465">
        <ele>39.400001525879</ele>
        <time>2018-05-28T07:39:11.000Z</time>
      </trkpt>
      <trkpt lat="48.42751" lon="-4.38434">
        <ele>37.799999237061</ele>
        <time>2018-05-28T07:39:13.000Z</time>
      </trkpt>
      <trkpt lat="48.42782" lon="-4.3838">
        <ele>36.400001525879</ele>
        <time>2018-05-28T07:39:17.000Z</time>
      </trkpt>
      <trkpt lat="48.42815" lon="-4.3832">
        <ele>35.200000762939</ele>
        <time>2018-05-28T07:39:22.000Z</time>
      </trkpt>
      <trkpt lat="48.42819" lon="-4.38293">
        <ele>36.599998474121</ele>
        <time>2018-05-28T07:39:24.000Z</time>
      </trkpt>
      <trkpt lat="48.4282" lon="-4.38238">
        <ele>36</ele>
        <time>2018-05-28T07:39:29.000Z</time>
      </trkpt>
      <trkpt lat="48.42819" lon="-4.38179">
        <ele>35.200000762939</ele>
        <time>2018-05-28T07:39:35.000Z</time>
      </trkpt>
      <trkpt lat="48.42809" lon="-4.38139">
        <ele>35.599998474121</ele>
        <time>2018-05-28T07:39:40.000Z</time>
      </trkpt>
      <trkpt lat="48.42808" lon="-4.38111">
        <ele>34</ele>
        <time>2018-05-28T07:39:45.000Z</time>
      </trkpt>
      <trkpt lat="48.42808" lon="-4.38094">
        <ele>34.200000762939</ele>
        <time>2018-05-28T07:39:51.000Z</time>
      </trkpt>
      <trkpt lat="48.42808" lon="-4.38087">
        <ele>34.200000762939</ele>
        <time>2018-05-28T07:39:55.000Z</time>
      </trkpt>
      <trkpt lat="48.42807" lon="-4.38082">
        <ele>34.400001525879</ele>
        <time>2018-05-28T07:39:59.000Z</time>
      </trkpt>
      <trkpt lat="48.42809" lon="-4.38081">
        <ele>34.400001525879</ele>
        <time>2018-05-28T07:40:03.000Z</time>
      </trkpt>
      <trkpt lat="48.42811" lon="-4.38097">
        <ele>34</ele>
        <time>2018-05-28T07:40:09.000Z</time>
      </trkpt>
      <trkpt lat="48.42802" lon="-4.38116">
        <ele>34.400001525879</ele>
        <time>2018-05-28T07:40:14.000Z</time>
      </trkpt>
      <trkpt lat="48.42791" lon="-4.38112">
        <ele>34.799999237061</ele>
        <time>2018-05-28T07:40:18.000Z</time>
      </trkpt>
      <trkpt lat="48.42787" lon="-4.38109">
        <ele>35</ele>
        <time>2018-05-28T07:40:20.000Z</time>
      </trkpt>
      <trkpt lat="48.42787" lon="-4.38105">
        <ele>35.200000762939</ele>
        <time>2018-05-28T07:40:25.000Z</time>
      </trkpt>
      <trkpt lat="48.42799" lon="-4.38108">
        <ele>34.400001525879</ele>
        <time>2018-05-28T07:40:29.000Z</time>
      </trkpt>
      <trkpt lat="48.42805" lon="-4.3809">
        <ele>34.400001525879</ele>
        <time>2018-05-28T07:40:32.000Z</time>
      </trkpt>
      <trkpt lat="48.42801" lon="-4.38072">
        <ele>34.799999237061</ele>
        <time>2018-05-28T07:40:36.000Z</time>
      </trkpt>
      <trkpt lat="48.428" lon="-4.38069">
        <ele>34.799999237061</ele>
        <time>2018-05-28T07:40:38.000Z</time>
      </trkpt>
      <trkpt lat="48.428" lon="-4.38067">
        <ele>34.799999237061</ele>
        <time>2018-05-28T07:40:41.000Z</time>
      </trkpt>
      <trkpt lat="48.42797" lon="-4.38036">
        <ele>35.400001525879</ele>
        <time>2018-05-28T07:40:59.000Z</time>
      </trkpt>
      <trkpt lat="48.42794" lon="-4.38018">
        <ele>36.599998474121</ele>
        <time>2018-05-28T07:41:05.000Z</time>
      </trkpt>
      <trkpt lat="48.4279" lon="-4.37993">
        <ele>38.200000762939</ele>
        <time>2018-05-28T07:41:11.000Z</time>
      </trkpt>
      <trkpt lat="48.42785" lon="-4.37964">
        <ele>39.799999237061</ele>
        <time>2018-05-28T07:41:18.000Z</time>
      </trkpt>
      <trkpt lat="48.42779" lon="-4.3793">
        <ele>42.400001525879</ele>
        <time>2018-05-28T07:41:26.000Z</time>
      </trkpt>
      <trkpt lat="48.42775" lon="-4.37908">
        <ele>44.599998474121</ele>
        <time>2018-05-28T07:41:32.000Z</time>
      </trkpt>
      <trkpt lat="48.42769" lon="-4.37877">
        <ele>47.599998474121</ele>
        <time>2018-05-28T07:41:40.000Z</time>
      </trkpt>
      <trkpt lat="48.42766" lon="-4.37853">
        <ele>49.799999237061</ele>
        <time>2018-05-28T07:41:48.000Z</time>
      </trkpt>
      <trkpt lat="48.4276" lon="-4.37824">
        <ele>52</ele>
        <time>2018-05-28T07:41:57.000Z</time>
      </trkpt>
      <trkpt lat="48.42755" lon="-4.37799">
        <ele>54</ele>
        <time>2018-05-28T07:42:05.000Z</time>
      </trkpt>
      <trkpt lat="48.42749" lon="-4.37771">
        <ele>54.799999237061</ele>
        <time>2018-05-28T07:42:14.000Z</time>
      </trkpt>
      <trkpt lat="48.42742" lon="-4.3775">
        <ele>56.200000762939</ele>
        <time>2018-05-28T07:42:21.000Z</time>
      </trkpt>
      <trkpt lat="48.42729" lon="-4.37714">
        <ele>58.400001525879</ele>
        <time>2018-05-28T07:42:32.000Z</time>
      </trkpt>
      <trkpt lat="48.42722" lon="-4.37691">
        <ele>60</ele>
        <time>2018-05-28T07:42:39.000Z</time>
      </trkpt>
      <trkpt lat="48.42714" lon="-4.37664">
        <ele>61.799999237061</ele>
        <time>2018-05-28T07:42:47.000Z</time>
      </trkpt>
      <trkpt lat="48.42709" lon="-4.37632">
        <ele>62.799999237061</ele>
        <time>2018-05-28T07:42:55.000Z</time>
      </trkpt>
      <trkpt lat="48.42704" lon="-4.37596">
        <ele>63.799999237061</ele>
        <time>2018-05-28T07:43:04.000Z</time>
      </trkpt>
      <trkpt lat="48.42705" lon="-4.37572">
        <ele>64.599998474121</ele>
        <time>2018-05-28T07:43:10.000Z</time>
      </trkpt>
      <trkpt lat="48.42706" lon="-4.37546">
        <ele>65.800003051758</ele>
        <time>2018-05-28T07:43:16.000Z</time>
      </trkpt>
      <trkpt lat="48.42707" lon="-4.37509">
        <ele>67</ele>
        <time>2018-05-28T07:43:24.000Z</time>
      </trkpt>
      <trkpt lat="48.42706" lon="-4.37471">
        <ele>68.199996948242</ele>
        <time>2018-05-28T07:43:32.000Z</time>
      </trkpt>
      <trkpt lat="48.42706" lon="-4.37433">
        <ele>69.400001525879</ele>
        <time>2018-05-28T07:43:40.000Z</time>
      </trkpt>
      <trkpt lat="48.42706" lon="-4.37404">
        <ele>71.199996948242</ele>
        <time>2018-05-28T07:43:46.000Z</time>
      </trkpt>
      <trkpt lat="48.42708" lon="-4.37369">
        <ele>74.199996948242</ele>
        <time>2018-05-28T07:43:52.000Z</time>
      </trkpt>
      <trkpt lat="48.42715" lon="-4.37319">
        <ele>75.800003051758</ele>
        <time>2018-05-28T07:44:01.000Z</time>
      </trkpt>
      <trkpt lat="48.42721" lon="-4.37287">
        <ele>76.800003051758</ele>
        <time>2018-05-28T07:44:07.000Z</time>
      </trkpt>
      <trkpt lat="48.4273" lon="-4.37237">
        <ele>77.599998474121</ele>
        <time>2018-05-28T07:44:16.000Z</time>
      </trkpt>
      <trkpt lat="48.42739" lon="-4.37198">
        <ele>78.599998474121</ele>
        <time>2018-05-28T07:44:23.000Z</time>
      </trkpt>
      <trkpt lat="48.42747" lon="-4.37159">
        <ele>79.800003051758</ele>
        <time>2018-05-28T07:44:30.000Z</time>
      </trkpt>
      <trkpt lat="48.42749" lon="-4.37143">
        <ele>80.199996948242</ele>
        <time>2018-05-28T07:44:34.000Z</time>
      </trkpt>
      <trkpt lat="48.42756" lon="-4.37121">
        <ele>80.800003051758</ele>
        <time>2018-05-28T07:44:40.000Z</time>
      </trkpt>
      <trkpt lat="48.42766" lon="-4.37071">
        <ele>83.199996948242</ele>
        <time>2018-05-28T07:44:48.000Z</time>
      </trkpt>
      <trkpt lat="48.42775" lon="-4.37025">
        <ele>85.400001525879</ele>
        <time>2018-05-28T07:44:55.000Z</time>
      </trkpt>
      <trkpt lat="48.4278" lon="-4.36987">
        <ele>87.599998474121</ele>
        <time>2018-05-28T07:45:01.000Z</time>
      </trkpt>
      <trkpt lat="48.42781" lon="-4.36952">
        <ele>89.800003051758</ele>
        <time>2018-05-28T07:45:07.000Z</time>
      </trkpt>
      <trkpt lat="48.42781" lon="-4.36946">
        <ele>90</ele>
        <time>2018-05-28T07:45:08.000Z</time>
      </trkpt>
      <trkpt lat="48.42782" lon="-4.36908">
        <ele>91</ele>
        <time>2018-05-28T07:45:14.000Z</time>
      </trkpt>
      <trkpt lat="48.42783" lon="-4.36884">
        <ele>91.800003051758</ele>
        <time>2018-05-28T07:45:18.000Z</time>
      </trkpt>
      <trkpt lat="48.42784" lon="-4.36825">
        <ele>94</ele>
        <time>2018-05-28T07:45:27.000Z</time>
      </trkpt>
      <trkpt lat="48.42784" lon="-4.36792">
        <ele>95.199996948242</ele>
        <time>2018-05-28T07:45:33.000Z</time>
      </trkpt>
      <trkpt lat="48.42779" lon="-4.3675">
        <ele>96.599998474121</ele>
        <time>2018-05-28T07:45:42.000Z</time>
      </trkpt>
      <trkpt lat="48.42768" lon="-4.36739">
        <ele>97.400001525879</ele>
        <time>2018-05-28T07:45:46.000Z</time>
      </trkpt>
      <trkpt lat="48.42755" lon="-4.36739">
        <ele>98.199996948242</ele>
        <time>2018-05-28T07:45:50.000Z</time>
      </trkpt>
      <trkpt lat="48.42753" lon="-4.36736">
        <ele>98.400001525879</ele>
        <time>2018-05-28T07:45:54.000Z</time>
      </trkpt>
      <trkpt lat="48.42758" lon="-4.36731">
        <ele>98.199996948242</ele>
        <time>2018-05-28T07:45:59.000Z</time>
      </trkpt>
      <trkpt lat="48.42759" lon="-4.36731">
        <ele>98.199996948242</ele>
        <time>2018-05-28T07:46:02.000Z</time>
      </trkpt>
      <trkpt lat="48.42755" lon="-4.36742">
        <ele>98</ele>
        <time>2018-05-28T07:46:19.000Z</time>
      </trkpt>
      <trkpt lat="48.42734" lon="-4.36756">
        <ele>98.800003051758</ele>
        <time>2018-05-28T07:46:26.000Z</time>
      </trkpt>
      <trkpt lat="48.42711" lon="-4.36776">
        <ele>99.400001525879</ele>
        <time>2018-05-28T07:46:34.000Z</time>
      </trkpt>
      <trkpt lat="48.42702" lon="-4.36779">
        <ele>100</ele>
        <time>2018-05-28T07:46:37.000Z</time>
      </trkpt>
      <trkpt lat="48.4268" lon="-4.36766">
        <ele>101.19999694824</ele>
        <time>2018-05-28T07:46:45.000Z</time>
      </trkpt>
      <trkpt lat="48.42651" lon="-4.3675">
        <ele>102.80000305176</ele>
        <time>2018-05-28T07:46:55.000Z</time>
      </trkpt>
      <trkpt lat="48.42629" lon="-4.3674">
        <ele>104</ele>
        <time>2018-05-28T07:47:02.000Z</time>
      </trkpt>
      <trkpt lat="48.42599" lon="-4.36724">
        <ele>105</ele>
        <time>2018-05-28T07:47:12.000Z</time>
      </trkpt>
      <trkpt lat="48.42581" lon="-4.36713">
        <ele>105</ele>
        <time>2018-05-28T07:47:18.000Z</time>
      </trkpt>
      <trkpt lat="48.42554" lon="-4.36695">
        <ele>105</ele>
        <time>2018-05-28T07:47:26.000Z</time>
      </trkpt>
      <trkpt lat="48.42533" lon="-4.36683">
        <ele>105.19999694824</ele>
        <time>2018-05-28T07:47:31.000Z</time>
      </trkpt>
      <trkpt lat="48.42501" lon="-4.36664">
        <ele>103.80000305176</ele>
        <time>2018-05-28T07:47:37.000Z</time>
      </trkpt>
      <trkpt lat="48.42455" lon="-4.36644">
        <ele>101.19999694824</ele>
        <time>2018-05-28T07:47:45.000Z</time>
      </trkpt>
      <trkpt lat="48.42426" lon="-4.36632">
        <ele>99.599998474121</ele>
        <time>2018-05-28T07:47:50.000Z</time>
      </trkpt>
      <trkpt lat="48.42414" lon="-4.36626">
        <ele>99</ele>
        <time>2018-05-28T07:47:52.000Z</time>
      </trkpt>
      <trkpt lat="48.42393" lon="-4.36612">
        <ele>97.199996948242</ele>
        <time>2018-05-28T07:47:56.000Z</time>
      </trkpt>
      <trkpt lat="48.42349" lon="-4.36591">
        <ele>94</ele>
        <time>2018-05-28T07:48:04.000Z</time>
      </trkpt>
      <trkpt lat="48.42304" lon="-4.36573">
        <ele>91.199996948242</ele>
        <time>2018-05-28T07:48:12.000Z</time>
      </trkpt>
      <trkpt lat="48.42254" lon="-4.36557">
        <ele>87.400001525879</ele>
        <time>2018-05-28T07:48:20.000Z</time>
      </trkpt>
      <trkpt lat="48.42211" lon="-4.36542">
        <ele>84.199996948242</ele>
        <time>2018-05-28T07:48:28.000Z</time>
      </trkpt>
      <trkpt lat="48.42189" lon="-4.36532">
        <ele>82.400001525879</ele>
        <time>2018-05-28T07:48:33.000Z</time>
      </trkpt>
      <trkpt lat="48.42159" lon="-4.3652">
        <ele>81.800003051758</ele>
        <time>2018-05-28T07:48:39.000Z</time>
      </trkpt>
      <trkpt lat="48.42114" lon="-4.3651">
        <ele>81.599998474121</ele>
        <time>2018-05-28T07:48:48.000Z</time>
      </trkpt>
      <trkpt lat="48.42082" lon="-4.36504">
        <ele>81.599998474121</ele>
        <time>2018-05-28T07:48:56.000Z</time>
      </trkpt>
      <trkpt lat="48.42077" lon="-4.36495">
        <ele>81.400001525879</ele>
        <time>2018-05-28T07:49:00.000Z</time>
      </trkpt>
      <trkpt lat="48.42077" lon="-4.36495">
        <ele>81.400001525879</ele>
        <time>2018-05-28T07:49:02.000Z</time>
      </trkpt>
      <trkpt lat="48.4208" lon="-4.3648">
        <ele>80.800003051758</ele>
        <time>2018-05-28T07:49:25.000Z</time>
      </trkpt>
      <trkpt lat="48.42086" lon="-4.3646">
        <ele>79.800003051758</ele>
        <time>2018-05-28T07:49:29.000Z</time>
      </trkpt>
      <trkpt lat="48.42098" lon="-4.36433">
        <ele>79</ele>
        <time>2018-05-28T07:49:34.000Z</time>
      </trkpt>
      <trkpt lat="48.42099" lon="-4.36427">
        <ele>79</ele>
        <time>2018-05-28T07:49:35.000Z</time>
      </trkpt>
      <trkpt lat="48.42084" lon="-4.36414">
        <ele>79.599998474121</ele>
        <time>2018-05-28T07:49:39.000Z</time>
      </trkpt>
      <trkpt lat="48.4205" lon="-4.36396">
        <ele>79.400001525879</ele>
        <time>2018-05-28T07:49:44.000Z</time>
      </trkpt>
      <trkpt lat="48.42008" lon="-4.36369">
        <ele>74.800003051758</ele>
        <time>2018-05-28T07:49:50.000Z</time>
      </trkpt>
      <trkpt lat="48.41977" lon="-4.36358">
        <ele>72.800003051758</ele>
        <time>2018-05-28T07:49:53.000Z</time>
      </trkpt>
      <trkpt lat="48.41907" lon="-4.36361">
        <ele>68</ele>
        <time>2018-05-28T07:49:59.000Z</time>
      </trkpt>
      <trkpt lat="48.41866" lon="-4.36374">
        <ele>64.400001525879</ele>
        <time>2018-05-28T07:50:03.000Z</time>
      </trkpt>
      <trkpt lat="48.41839" lon="-4.36399">
        <ele>62.200000762939</ele>
        <time>2018-05-28T07:50:06.000Z</time>
      </trkpt>
      <trkpt lat="48.41824" lon="-4.36415">
        <ele>60.599998474121</ele>
        <time>2018-05-28T07:50:08.000Z</time>
      </trkpt>
      <trkpt lat="48.41767" lon="-4.36459">
        <ele>55</ele>
        <time>2018-05-28T07:50:16.000Z</time>
      </trkpt>
      <trkpt lat="48.41751" lon="-4.36487">
        <ele>55.200000762939</ele>
        <time>2018-05-28T07:50:20.000Z</time>
      </trkpt>
      <trkpt lat="48.41749" lon="-4.36501">
        <ele>55.200000762939</ele>
        <time>2018-05-28T07:50:22.000Z</time>
      </trkpt>
      <trkpt lat="48.41751" lon="-4.36538">
        <ele>55.200000762939</ele>
        <time>2018-05-28T07:50:29.000Z</time>
      </trkpt>
      <trkpt lat="48.41752" lon="-4.36542">
        <ele>55.599998474121</ele>
        <time>2018-05-28T07:50:37.000Z</time>
      </trkpt>
      <trkpt lat="48.41752" lon="-4.36558">
        <ele>56</ele>
        <time>2018-05-28T07:50:52.000Z</time>
      </trkpt>
      <trkpt lat="48.41752" lon="-4.36579">
        <ele>56.599998474121</ele>
        <time>2018-05-28T07:50:55.000Z</time>
      </trkpt>
      <trkpt lat="48.41754" lon="-4.36612">
        <ele>57.200000762939</ele>
        <time>2018-05-28T07:50:59.000Z</time>
      </trkpt>
      <trkpt lat="48.41744" lon="-4.36632">
        <ele>58.799999237061</ele>
        <time>2018-05-28T07:51:03.000Z</time>
      </trkpt>
      <trkpt lat="48.4174" lon="-4.36632">
        <ele>59.200000762939</ele>
        <time>2018-05-28T07:51:04.000Z</time>
      </trkpt>
      <trkpt lat="48.4172" lon="-4.3662">
        <ele>61</ele>
        <time>2018-05-28T07:51:09.000Z</time>
      </trkpt>
      <trkpt lat="48.41708" lon="-4.36612">
        <ele>62.200000762939</ele>
        <time>2018-05-28T07:51:13.000Z</time>
      </trkpt>
      <trkpt lat="48.41706" lon="-4.36599">
        <ele>62</ele>
        <time>2018-05-28T07:51:17.000Z</time>
      </trkpt>
      <trkpt lat="48.41694" lon="-4.36581">
        <ele>61.599998474121</ele>
        <time>2018-05-28T07:51:22.000Z</time>
      </trkpt>
      <trkpt lat="48.41687" lon="-4.36559">
        <ele>60.200000762939</ele>
        <time>2018-05-28T07:51:27.000Z</time>
      </trkpt>
      <trkpt lat="48.41681" lon="-4.36536">
        <ele>58.400001525879</ele>
        <time>2018-05-28T07:51:31.000Z</time>
      </trkpt>
      <trkpt lat="48.41678" lon="-4.36522">
        <ele>57.200000762939</ele>
        <time>2018-05-28T07:51:33.000Z</time>
      </trkpt>
      <trkpt lat="48.41669" lon="-4.3649">
        <ele>54.599998474121</ele>
        <time>2018-05-28T07:51:37.000Z</time>
      </trkpt>
      <trkpt lat="48.41658" lon="-4.3647">
        <ele>53</ele>
        <time>2018-05-28T07:51:42.000Z</time>
      </trkpt>
      <trkpt lat="48.41648" lon="-4.36456">
        <ele>52.599998474121</ele>
        <time>2018-05-28T07:51:45.000Z</time>
      </trkpt>
      <trkpt lat="48.41634" lon="-4.3644">
        <ele>52.400001525879</ele>
        <time>2018-05-28T07:51:49.000Z</time>
      </trkpt>
      <trkpt lat="48.41617" lon="-4.36423">
        <ele>52.200000762939</ele>
        <time>2018-05-28T07:51:54.000Z</time>
      </trkpt>
      <trkpt lat="48.41612" lon="-4.36417">
        <ele>51.799999237061</ele>
        <time>2018-05-28T07:51:56.000Z</time>
      </trkpt>
      <trkpt lat="48.41606" lon="-4.36398">
        <ele>50.400001525879</ele>
        <time>2018-05-28T07:52:00.000Z</time>
      </trkpt>
      <trkpt lat="48.41592" lon="-4.36373">
        <ele>48.599998474121</ele>
        <time>2018-05-28T07:52:04.000Z</time>
      </trkpt>
      <trkpt lat="48.41573" lon="-4.36347">
        <ele>49.200000762939</ele>
        <time>2018-05-28T07:52:09.000Z</time>
      </trkpt>
      <trkpt lat="48.41561" lon="-4.36332">
        <ele>49.799999237061</ele>
        <time>2018-05-28T07:52:12.000Z</time>
      </trkpt>
      <trkpt lat="48.41548" lon="-4.36318">
        <ele>49.400001525879</ele>
        <time>2018-05-28T07:52:15.000Z</time>
      </trkpt>
      <trkpt lat="48.41526" lon="-4.36289">
        <ele>46.799999237061</ele>
        <time>2018-05-28T07:52:21.000Z</time>
      </trkpt>
      <trkpt lat="48.41516" lon="-4.36275">
        <ele>45.799999237061</ele>
        <time>2018-05-28T07:52:24.000Z</time>
      </trkpt>
      <trkpt lat="48.41495" lon="-4.36257">
        <ele>44.200000762939</ele>
        <time>2018-05-28T07:52:29.000Z</time>
      </trkpt>
      <trkpt lat="48.41491" lon="-4.36256">
        <ele>44</ele>
        <time>2018-05-28T07:52:30.000Z</time>
      </trkpt>
      <trkpt lat="48.41484" lon="-4.36252">
        <ele>43.400001525879</ele>
        <time>2018-05-28T07:52:32.000Z</time>
      </trkpt>
      <trkpt lat="48.41463" lon="-4.36244">
        <ele>42</ele>
        <time>2018-05-28T07:52:37.000Z</time>
      </trkpt>
      <trkpt lat="48.41451" lon="-4.3624">
        <ele>40.599998474121</ele>
        <time>2018-05-28T07:52:40.000Z</time>
      </trkpt>
      <trkpt lat="48.4143" lon="-4.36237">
        <ele>38.599998474121</ele>
        <time>2018-05-28T07:52:46.000Z</time>
      </trkpt>
      <trkpt lat="48.41425" lon="-4.36236">
        <ele>38</ele>
        <time>2018-05-28T07:52:47.000Z</time>
      </trkpt>
      <trkpt lat="48.41392" lon="-4.36231">
        <ele>33.799999237061</ele>
        <time>2018-05-28T07:52:53.000Z</time>
      </trkpt>
      <trkpt lat="48.41373" lon="-4.36225">
        <ele>31.60000038147</ele>
        <time>2018-05-28T07:52:57.000Z</time>
      </trkpt>
      <trkpt lat="48.41352" lon="-4.36224">
        <ele>29.60000038147</ele>
        <time>2018-05-28T07:53:01.000Z</time>
      </trkpt>
      <trkpt lat="48.41334" lon="-4.36223">
        <ele>27.60000038147</ele>
        <time>2018-05-28T07:53:04.000Z</time>
      </trkpt>
      <trkpt lat="48.41322" lon="-4.36223">
        <ele>26.39999961853</ele>
        <time>2018-05-28T07:53:06.000Z</time>
      </trkpt>
      <trkpt lat="48.41289" lon="-4.3622">
        <ele>22.60000038147</ele>
        <time>2018-05-28T07:53:11.000Z</time>
      </trkpt>
      <trkpt lat="48.41269" lon="-4.36226">
        <ele>20.799999237061</ele>
        <time>2018-05-28T07:53:15.000Z</time>
      </trkpt>
      <trkpt lat="48.41264" lon="-4.36223">
        <ele>20.200000762939</ele>
        <time>2018-05-28T07:53:18.000Z</time>
      </trkpt>
      <trkpt lat="48.41264" lon="-4.36212">
        <ele>19.60000038147</ele>
        <time>2018-05-28T07:53:20.000Z</time>
      </trkpt>
      <trkpt lat="48.41271" lon="-4.36179">
        <ele>20</ele>
        <time>2018-05-28T07:53:24.000Z</time>
      </trkpt>
      <trkpt lat="48.41287" lon="-4.36102">
        <ele>24</ele>
        <time>2018-05-28T07:53:33.000Z</time>
      </trkpt>
      <trkpt lat="48.41294" lon="-4.36047">
        <ele>26.39999961853</ele>
        <time>2018-05-28T07:53:40.000Z</time>
      </trkpt>
      <trkpt lat="48.41297" lon="-4.3598">
        <ele>28.60000038147</ele>
        <time>2018-05-28T07:53:49.000Z</time>
      </trkpt>
      <trkpt lat="48.41299" lon="-4.35958">
        <ele>29.200000762939</ele>
        <time>2018-05-28T07:53:52.000Z</time>
      </trkpt>
      <trkpt lat="48.41292" lon="-4.35937">
        <ele>28.799999237061</ele>
        <time>2018-05-28T07:53:56.000Z</time>
      </trkpt>
      <trkpt lat="48.41288" lon="-4.35935">
        <ele>28.39999961853</ele>
        <time>2018-05-28T07:53:57.000Z</time>
      </trkpt>
      <trkpt lat="48.41251" lon="-4.35916">
        <ele>26.60000038147</ele>
        <time>2018-05-28T07:54:04.000Z</time>
      </trkpt>
      <trkpt lat="48.41216" lon="-4.35894">
        <ele>25.39999961853</ele>
        <time>2018-05-28T07:54:10.000Z</time>
      </trkpt>
      <trkpt lat="48.41196" lon="-4.35881">
        <ele>25.60000038147</ele>
        <time>2018-05-28T07:54:13.000Z</time>
      </trkpt>
      <trkpt lat="48.41166" lon="-4.35879">
        <ele>24.799999237061</ele>
        <time>2018-05-28T07:54:17.000Z</time>
      </trkpt>
      <trkpt lat="48.41147" lon="-4.35897">
        <ele>23.200000762939</ele>
        <time>2018-05-28T07:54:20.000Z</time>
      </trkpt>
      <trkpt lat="48.41137" lon="-4.35927">
        <ele>21.39999961853</ele>
        <time>2018-05-28T07:54:23.000Z</time>
      </trkpt>
      <trkpt lat="48.41135" lon="-4.35963">
        <ele>20.200000762939</ele>
        <time>2018-05-28T07:54:26.000Z</time>
      </trkpt>
      <trkpt lat="48.4113" lon="-4.35979">
        <ele>19.799999237061</ele>
        <time>2018-05-28T07:54:28.000Z</time>
      </trkpt>
      <trkpt lat="48.41116" lon="-4.35983">
        <ele>19.200000762939</ele>
        <time>2018-05-28T07:54:31.000Z</time>
      </trkpt>
      <trkpt lat="48.41108" lon="-4.35994">
        <ele>18.799999237061</ele>
        <time>2018-05-28T07:54:33.000Z</time>
      </trkpt>
      <trkpt lat="48.41105" lon="-4.36013">
        <ele>18.39999961853</ele>
        <time>2018-05-28T07:54:35.000Z</time>
      </trkpt>
      <trkpt lat="48.41098" lon="-4.36062">
        <ele>17.60000038147</ele>
        <time>2018-05-28T07:54:39.000Z</time>
      </trkpt>
      <trkpt lat="48.41079" lon="-4.36112">
        <ele>15.39999961853</ele>
        <time>2018-05-28T07:54:43.000Z</time>
      </trkpt>
      <trkpt lat="48.41061" lon="-4.36126">
        <ele>15</ele>
        <time>2018-05-28T07:54:45.000Z</time>
      </trkpt>
      <trkpt lat="48.41042" lon="-4.36123">
        <ele>13.199999809265</ele>
        <time>2018-05-28T07:54:47.000Z</time>
      </trkpt>
      <trkpt lat="48.40993" lon="-4.36109">
        <ele>10</ele>
        <time>2018-05-28T07:54:53.000Z</time>
      </trkpt>
      <trkpt lat="48.4098" lon="-4.36088">
        <ele>10.39999961853</ele>
        <time>2018-05-28T07:54:57.000Z</time>
      </trkpt>
      <trkpt lat="48.40977" lon="-4.36065">
        <ele>10.199999809265</ele>
        <time>2018-05-28T07:55:00.000Z</time>
      </trkpt>
      <trkpt lat="48.40974" lon="-4.36041">
        <ele>8.6000003814697</ele>
        <time>2018-05-28T07:55:03.000Z</time>
      </trkpt>
      <trkpt lat="48.40963" lon="-4.36003">
        <ele>8.1999998092651</ele>
        <time>2018-05-28T07:55:08.000Z</time>
      </trkpt>
      <trkpt lat="48.40952" lon="-4.35988">
        <ele>7.1999998092651</ele>
        <time>2018-05-28T07:55:11.000Z</time>
      </trkpt>
      <trkpt lat="48.4094" lon="-4.35955">
        <ele>5.8000001907349</ele>
        <time>2018-05-28T07:55:16.000Z</time>
      </trkpt>
      <trkpt lat="48.40935" lon="-4.35918">
        <ele>6.1999998092651</ele>
        <time>2018-05-28T07:55:21.000Z</time>
      </trkpt>
      <trkpt lat="48.40936" lon="-4.35889">
        <ele>7</ele>
        <time>2018-05-28T07:55:26.000Z</time>
      </trkpt>
      <trkpt lat="48.40933" lon="-4.35878">
        <ele>6.8000001907349</ele>
        <time>2018-05-28T07:55:28.000Z</time>
      </trkpt>
      <trkpt lat="48.40911" lon="-4.3583">
        <ele>8.3999996185303</ele>
        <time>2018-05-28T07:55:37.000Z</time>
      </trkpt>
      <trkpt lat="48.4089" lon="-4.35785">
        <ele>6.1999998092651</ele>
        <time>2018-05-28T07:55:45.000Z</time>
      </trkpt>
      <trkpt lat="48.40866" lon="-4.35738">
        <ele>4.1999998092651</ele>
        <time>2018-05-28T07:55:53.000Z</time>
      </trkpt>
      <trkpt lat="48.40853" lon="-4.35717">
        <ele>4.4000000953674</ele>
        <time>2018-05-28T07:55:57.000Z</time>
      </trkpt>
      <trkpt lat="48.40838" lon="-4.35693">
        <ele>4.5999999046326</ele>
        <time>2018-05-28T07:56:02.000Z</time>
      </trkpt>
      <trkpt lat="48.4082" lon="-4.3566">
        <ele>5</ele>
        <time>2018-05-28T07:56:09.000Z</time>
      </trkpt>
      <trkpt lat="48.40805" lon="-4.35622">
        <ele>4.4000000953674</ele>
        <time>2018-05-28T07:56:15.000Z</time>
      </trkpt>
      <trkpt lat="48.40803" lon="-4.35615">
        <ele>4.1999998092651</ele>
        <time>2018-05-28T07:56:16.000Z</time>
      </trkpt>
      <trkpt lat="48.40799" lon="-4.356">
        <ele>3.2000000476837</ele>
        <time>2018-05-28T07:56:18.000Z</time>
      </trkpt>
      <trkpt lat="48.40797" lon="-4.35564">
        <ele>3</ele>
        <time>2018-05-28T07:56:23.000Z</time>
      </trkpt>
      <trkpt lat="48.4081" lon="-4.35543">
        <ele>3.7999999523163</ele>
        <time>2018-05-28T07:56:27.000Z</time>
      </trkpt>
      <trkpt lat="48.40818" lon="-4.35538">
        <ele>4</ele>
        <time>2018-05-28T07:56:29.000Z</time>
      </trkpt>
      <trkpt lat="48.40836" lon="-4.35522">
        <ele>4.5999999046326</ele>
        <time>2018-05-28T07:56:36.000Z</time>
      </trkpt>
      <trkpt lat="48.40844" lon="-4.35519">
        <ele>4.8000001907349</ele>
        <time>2018-05-28T07:56:40.000Z</time>
      </trkpt>
      <trkpt lat="48.4086" lon="-4.3552">
        <ele>5.5999999046326</ele>
        <time>2018-05-28T07:56:47.000Z</time>
      </trkpt>
      <trkpt lat="48.40869" lon="-4.35522">
        <ele>5.4000000953674</ele>
        <time>2018-05-28T07:56:53.000Z</time>
      </trkpt>
      <trkpt lat="48.40874" lon="-4.35528">
        <ele>5.1999998092651</ele>
        <time>2018-05-28T07:56:57.000Z</time>
      </trkpt>
      <trkpt lat="48.40885" lon="-4.35541">
        <ele>5.4000000953674</ele>
        <time>2018-05-28T07:57:03.000Z</time>
      </trkpt>
      <trkpt lat="48.40891" lon="-4.35542">
        <ele>5.4000000953674</ele>
        <time>2018-05-28T07:57:05.000Z</time>
      </trkpt>
      <trkpt lat="48.40921" lon="-4.35536">
        <ele>5.1999998092651</ele>
        <time>2018-05-28T07:57:13.000Z</time>
      </trkpt>
      <trkpt lat="48.40942" lon="-4.35513">
        <ele>6.5999999046326</ele>
        <time>2018-05-28T07:57:20.000Z</time>
      </trkpt>
      <trkpt lat="48.40957" lon="-4.35482">
        <ele>9.1999998092651</ele>
        <time>2018-05-28T07:57:27.000Z</time>
      </trkpt>
      <trkpt lat="48.4096" lon="-4.35458">
        <ele>10.39999961853</ele>
        <time>2018-05-28T07:57:32.000Z</time>
      </trkpt>
      <trkpt lat="48.40946" lon="-4.35444">
        <ele>10.199999809265</ele>
        <time>2018-05-28T07:57:36.000Z</time>
      </trkpt>
      <trkpt lat="48.40916" lon="-4.35459">
        <ele>8.1999998092651</ele>
        <time>2018-05-28T07:57:42.000Z</time>
      </trkpt>
      <trkpt lat="48.409" lon="-4.35469">
        <ele>7.4000000953674</ele>
        <time>2018-05-28T07:57:46.000Z</time>
      </trkpt>
      <trkpt lat="48.40889" lon="-4.35468">
        <ele>6.8000001907349</ele>
        <time>2018-05-28T07:57:51.000Z</time>
      </trkpt>
      <trkpt lat="48.40888" lon="-4.35466">
        <ele>6.5999999046326</ele>
        <time>2018-05-28T07:57:52.000Z</time>
      </trkpt>
      <trkpt lat="48.40878" lon="-4.35447">
        <ele>5.8000001907349</ele>
        <time>2018-05-28T07:57:58.000Z</time>
      </trkpt>
      <trkpt lat="48.40872" lon="-4.35418">
        <ele>6</ele>
        <time>2018-05-28T07:58:05.000Z</time>
      </trkpt>
      <trkpt lat="48.40875" lon="-4.35381">
        <ele>7.4000000953674</ele>
        <time>2018-05-28T07:58:13.000Z</time>
      </trkpt>
      <trkpt lat="48.40883" lon="-4.35348">
        <ele>9</ele>
        <time>2018-05-28T07:58:20.000Z</time>
      </trkpt>
      <trkpt lat="48.4089" lon="-4.35323">
        <ele>8.6000003814697</ele>
        <time>2018-05-28T07:58:25.000Z</time>
      </trkpt>
      <trkpt lat="48.40895" lon="-4.35295">
        <ele>8.3999996185303</ele>
        <time>2018-05-28T07:58:30.000Z</time>
      </trkpt>
      <trkpt lat="48.40896" lon="-4.35269">
        <ele>8</ele>
        <time>2018-05-28T07:58:35.000Z</time>
      </trkpt>
      <trkpt lat="48.40902" lon="-4.35238">
        <ele>8</ele>
        <time>2018-05-28T07:58:42.000Z</time>
      </trkpt>
      <trkpt lat="48.40905" lon="-4.35215">
        <ele>8</ele>
        <time>2018-05-28T07:58:48.000Z</time>
      </trkpt>
      <trkpt lat="48.40906" lon="-4.3521">
        <ele>8</ele>
        <time>2018-05-28T07:58:49.000Z</time>
      </trkpt>
      <trkpt lat="48.40899" lon="-4.35191">
        <ele>7.1999998092651</ele>
        <time>2018-05-28T07:58:53.000Z</time>
      </trkpt>
      <trkpt lat="48.40877" lon="-4.35157">
        <ele>6</ele>
        <time>2018-05-28T07:59:00.000Z</time>
      </trkpt>
      <trkpt lat="48.40847" lon="-4.3511">
        <ele>4.1999998092651</ele>
        <time>2018-05-28T07:59:09.000Z</time>
      </trkpt>
      <trkpt lat="48.40824" lon="-4.35075">
        <ele>5.1999998092651</ele>
        <time>2018-05-28T07:59:17.000Z</time>
      </trkpt>
      <trkpt lat="48.40809" lon="-4.35061">
        <ele>5.5999999046326</ele>
        <time>2018-05-28T07:59:22.000Z</time>
      </trkpt>
      <trkpt lat="48.40787" lon="-4.35031">
        <ele>5.1999998092651</ele>
        <time>2018-05-28T07:59:29.000Z</time>
      </trkpt>
      <trkpt lat="48.40768" lon="-4.35">
        <ele>4</ele>
        <time>2018-05-28T07:59:36.000Z</time>
      </trkpt>
      <trkpt lat="48.40748" lon="-4.34963">
        <ele>2</ele>
        <time>2018-05-28T07:59:44.000Z</time>
      </trkpt>
      <trkpt lat="48.40736" lon="-4.34932">
        <ele>1.7999999523163</ele>
        <time>2018-05-28T07:59:51.000Z</time>
      </trkpt>
      <trkpt lat="48.40731" lon="-4.34898">
        <ele>2.2000000476837</ele>
        <time>2018-05-28T07:59:58.000Z</time>
      </trkpt>
      <trkpt lat="48.4073" lon="-4.34865">
        <ele>1.7999999523163</ele>
        <time>2018-05-28T08:00:03.000Z</time>
      </trkpt>
      <trkpt lat="48.40724" lon="-4.34813">
        <ele>1.6000000238419</ele>
        <time>2018-05-28T08:00:10.000Z</time>
      </trkpt>
      <trkpt lat="48.40724" lon="-4.34806">
        <ele>1.6000000238419</ele>
        <time>2018-05-28T08:00:11.000Z</time>
      </trkpt>
      <trkpt lat="48.40726" lon="-4.34769">
        <ele>1.6000000238419</ele>
        <time>2018-05-28T08:00:16.000Z</time>
      </trkpt>
      <trkpt lat="48.40726" lon="-4.34747">
        <ele>1.6000000238419</ele>
        <time>2018-05-28T08:00:19.000Z</time>
      </trkpt>
      <trkpt lat="48.40732" lon="-4.3471">
        <ele>1.7999999523163</ele>
        <time>2018-05-28T08:00:25.000Z</time>
      </trkpt>
      <trkpt lat="48.40734" lon="-4.34705">
        <ele>1.7999999523163</ele>
        <time>2018-05-28T08:00:26.000Z</time>
      </trkpt>
      <trkpt lat="48.40749" lon="-4.34679">
        <ele>1.2000000476837</ele>
        <time>2018-05-28T08:00:32.000Z</time>
      </trkpt>
      <trkpt lat="48.40753" lon="-4.34675">
        <ele>1</ele>
        <time>2018-05-28T08:00:33.000Z</time>
      </trkpt>
      <trkpt lat="48.40775" lon="-4.34663">
        <ele>1</ele>
        <time>2018-05-28T08:00:38.000Z</time>
      </trkpt>
      <trkpt lat="48.40784" lon="-4.34657">
        <ele>0.80000001192093</ele>
        <time>2018-05-28T08:00:40.000Z</time>
      </trkpt>
      <trkpt lat="48.40805" lon="-4.3464">
        <ele>0.40000000596046</ele>
        <time>2018-05-28T08:00:45.000Z</time>
      </trkpt>
      <trkpt lat="48.40837" lon="-4.34623">
        <ele>0.20000000298023</ele>
        <time>2018-05-28T08:00:52.000Z</time>
      </trkpt>
      <trkpt lat="48.40875" lon="-4.34617">
        <ele>1.6000000238419</ele>
        <time>2018-05-28T08:01:01.000Z</time>
      </trkpt>
      <trkpt lat="48.40898" lon="-4.34614">
        <ele>2.4000000953674</ele>
        <time>2018-05-28T08:01:07.000Z</time>
      </trkpt>
      <trkpt lat="48.4092" lon="-4.34605">
        <ele>3.2000000476837</ele>
        <time>2018-05-28T08:01:15.000Z</time>
      </trkpt>
      <trkpt lat="48.40926" lon="-4.34603">
        <ele>3.4000000953674</ele>
        <time>2018-05-28T08:01:18.000Z</time>
      </trkpt>
      <trkpt lat="48.40942" lon="-4.34596">
        <ele>4</ele>
        <time>2018-05-28T08:01:24.000Z</time>
      </trkpt>
      <trkpt lat="48.40963" lon="-4.34586">
        <ele>4.5999999046326</ele>
        <time>2018-05-28T08:01:30.000Z</time>
      </trkpt>
      <trkpt lat="48.40984" lon="-4.34582">
        <ele>5.8000001907349</ele>
        <time>2018-05-28T08:01:36.000Z</time>
      </trkpt>
      <trkpt lat="48.41005" lon="-4.3457">
        <ele>6.5999999046326</ele>
        <time>2018-05-28T08:01:43.000Z</time>
      </trkpt>
      <trkpt lat="48.41016" lon="-4.34556">
        <ele>6.5999999046326</ele>
        <time>2018-05-28T08:01:48.000Z</time>
      </trkpt>
      <trkpt lat="48.41025" lon="-4.3454">
        <ele>6</ele>
        <time>2018-05-28T08:01:53.000Z</time>
      </trkpt>
      <trkpt lat="48.41036" lon="-4.34524">
        <ele>5.8000001907349</ele>
        <time>2018-05-28T08:01:58.000Z</time>
      </trkpt>
      <trkpt lat="48.41041" lon="-4.34514">
        <ele>5.5999999046326</ele>
        <time>2018-05-28T08:02:01.000Z</time>
      </trkpt>
      <trkpt lat="48.41044" lon="-4.34489">
        <ele>5.5999999046326</ele>
        <time>2018-05-28T08:02:06.000Z</time>
      </trkpt>
      <trkpt lat="48.41049" lon="-4.34473">
        <ele>5.5999999046326</ele>
        <time>2018-05-28T08:02:09.000Z</time>
      </trkpt>
      <trkpt lat="48.41059" lon="-4.3445">
        <ele>6</ele>
        <time>2018-05-28T08:02:13.000Z</time>
      </trkpt>
      <trkpt lat="48.41077" lon="-4.34454">
        <ele>6</ele>
        <time>2018-05-28T08:02:18.000Z</time>
      </trkpt>
      <trkpt lat="48.41088" lon="-4.34451">
        <ele>6</ele>
        <time>2018-05-28T08:02:22.000Z</time>
      </trkpt>
      <trkpt lat="48.41109" lon="-4.34438">
        <ele>5.5999999046326</ele>
        <time>2018-05-28T08:02:28.000Z</time>
      </trkpt>
      <trkpt lat="48.41126" lon="-4.34426">
        <ele>5.4000000953674</ele>
        <time>2018-05-28T08:02:33.000Z</time>
      </trkpt>
      <trkpt lat="48.41151" lon="-4.34409">
        <ele>5.4000000953674</ele>
        <time>2018-05-28T08:02:39.000Z</time>
      </trkpt>
      <trkpt lat="48.41177" lon="-4.34381">
        <ele>4.1999998092651</ele>
        <time>2018-05-28T08:02:46.000Z</time>
      </trkpt>
      <trkpt lat="48.41198" lon="-4.34361">
        <ele>4.4000000953674</ele>
        <time>2018-05-28T08:02:51.000Z</time>
      </trkpt>
      <trkpt lat="48.41219" lon="-4.34332">
        <ele>5.8000001907349</ele>
        <time>2018-05-28T08:02:56.000Z</time>
      </trkpt>
      <trkpt lat="48.41229" lon="-4.34318">
        <ele>6.4000000953674</ele>
        <time>2018-05-28T08:02:58.000Z</time>
      </trkpt>
      <trkpt lat="48.41262" lon="-4.34268">
        <ele>8</ele>
        <time>2018-05-28T08:03:05.000Z</time>
      </trkpt>
      <trkpt lat="48.41276" lon="-4.34247">
        <ele>7.4000000953674</ele>
        <time>2018-05-28T08:03:08.000Z</time>
      </trkpt>
      <trkpt lat="48.41294" lon="-4.34205">
        <ele>5.5999999046326</ele>
        <time>2018-05-28T08:03:14.000Z</time>
      </trkpt>
      <trkpt lat="48.41303" lon="-4.34181">
        <ele>5</ele>
        <time>2018-05-28T08:03:18.000Z</time>
      </trkpt>
      <trkpt lat="48.41323" lon="-4.34146">
        <ele>4.8000001907349</ele>
        <time>2018-05-28T08:03:24.000Z</time>
      </trkpt>
      <trkpt lat="48.41333" lon="-4.34131">
        <ele>4.8000001907349</ele>
        <time>2018-05-28T08:03:27.000Z</time>
      </trkpt>
      <trkpt lat="48.41348" lon="-4.34108">
        <ele>5</ele>
        <time>2018-05-28T08:03:32.000Z</time>
      </trkpt>
      <trkpt lat="48.4136" lon="-4.341">
        <ele>5.4000000953674</ele>
        <time>2018-05-28T08:03:37.000Z</time>
      </trkpt>
      <trkpt lat="48.41365" lon="-4.34105">
        <ele>5.8000001907349</ele>
        <time>2018-05-28T08:03:40.000Z</time>
      </trkpt>
      <trkpt lat="48.41386" lon="-4.34126">
        <ele>7.5999999046326</ele>
        <time>2018-05-28T08:03:48.000Z</time>
      </trkpt>
      <trkpt lat="48.41398" lon="-4.34138">
        <ele>8.6000003814697</ele>
        <time>2018-05-28T08:03:53.000Z</time>
      </trkpt>
      <trkpt lat="48.41408" lon="-4.34157">
        <ele>9.1999998092651</ele>
        <time>2018-05-28T08:03:59.000Z</time>
      </trkpt>
      <trkpt lat="48.41415" lon="-4.34166">
        <ele>9.3999996185303</ele>
        <time>2018-05-28T08:04:04.000Z</time>
      </trkpt>
      <trkpt lat="48.41423" lon="-4.34187">
        <ele>9.6000003814697</ele>
        <time>2018-05-28T08:04:11.000Z</time>
      </trkpt>
      <trkpt lat="48.41433" lon="-4.34208">
        <ele>10.199999809265</ele>
        <time>2018-05-28T08:04:17.000Z</time>
      </trkpt>
      <trkpt lat="48.41441" lon="-4.34227">
        <ele>10.800000190735</ele>
        <time>2018-05-28T08:04:22.000Z</time>
      </trkpt>
      <trkpt lat="48.41452" lon="-4.34248">
        <ele>11.60000038147</ele>
        <time>2018-05-28T08:04:28.000Z</time>
      </trkpt>
      <trkpt lat="48.41459" lon="-4.34268">
        <ele>12.60000038147</ele>
        <time>2018-05-28T08:04:33.000Z</time>
      </trkpt>
      <trkpt lat="48.41467" lon="-4.34291">
        <ele>14</ele>
        <time>2018-05-28T08:04:39.000Z</time>
      </trkpt>
      <trkpt lat="48.41471" lon="-4.34308">
        <ele>15.199999809265</ele>
        <time>2018-05-28T08:04:43.000Z</time>
      </trkpt>
      <trkpt lat="48.41477" lon="-4.34338">
        <ele>16.799999237061</ele>
        <time>2018-05-28T08:04:50.000Z</time>
      </trkpt>
      <trkpt lat="48.41481" lon="-4.3436">
        <ele>17.799999237061</ele>
        <time>2018-05-28T08:04:56.000Z</time>
      </trkpt>
      <trkpt lat="48.41485" lon="-4.34383">
        <ele>19.200000762939</ele>
        <time>2018-05-28T08:05:02.000Z</time>
      </trkpt>
      <trkpt lat="48.41489" lon="-4.34404">
        <ele>20.39999961853</ele>
        <time>2018-05-28T08:05:07.000Z</time>
      </trkpt>
      <trkpt lat="48.41498" lon="-4.34432">
        <ele>22.200000762939</ele>
        <time>2018-05-28T08:05:14.000Z</time>
      </trkpt>
      <trkpt lat="48.41507" lon="-4.34455">
        <ele>24</ele>
        <time>2018-05-28T08:05:20.000Z</time>
      </trkpt>
      <trkpt lat="48.41513" lon="-4.34475">
        <ele>25.200000762939</ele>
        <time>2018-05-28T08:05:25.000Z</time>
      </trkpt>
      <trkpt lat="48.41517" lon="-4.34504">
        <ele>26.799999237061</ele>
        <time>2018-05-28T08:05:31.000Z</time>
      </trkpt>
      <trkpt lat="48.41517" lon="-4.34528">
        <ele>28</ele>
        <time>2018-05-28T08:05:36.000Z</time>
      </trkpt>
      <trkpt lat="48.41516" lon="-4.34534">
        <ele>28.200000762939</ele>
        <time>2018-05-28T08:05:37.000Z</time>
      </trkpt>
      <trkpt lat="48.41508" lon="-4.3455">
        <ele>28.60000038147</ele>
        <time>2018-05-28T08:05:41.000Z</time>
      </trkpt>
      <trkpt lat="48.4148" lon="-4.3458">
        <ele>29</ele>
        <time>2018-05-28T08:05:50.000Z</time>
      </trkpt>
      <trkpt lat="48.41468" lon="-4.34603">
        <ele>29.39999961853</ele>
        <time>2018-05-28T08:05:55.000Z</time>
      </trkpt>
      <trkpt lat="48.41472" lon="-4.34624">
        <ele>30.39999961853</ele>
        <time>2018-05-28T08:05:59.000Z</time>
      </trkpt>
      <trkpt lat="48.41486" lon="-4.34652">
        <ele>31.60000038147</ele>
        <time>2018-05-28T08:06:05.000Z</time>
      </trkpt>
      <trkpt lat="48.41505" lon="-4.34672">
        <ele>32.799999237061</ele>
        <time>2018-05-28T08:06:11.000Z</time>
      </trkpt>
      <trkpt lat="48.4153" lon="-4.34701">
        <ele>34.799999237061</ele>
        <time>2018-05-28T08:06:20.000Z</time>
      </trkpt>
      <trkpt lat="48.41549" lon="-4.3473">
        <ele>36.799999237061</ele>
        <time>2018-05-28T08:06:28.000Z</time>
      </trkpt>
      <trkpt lat="48.41574" lon="-4.3477">
        <ele>38.799999237061</ele>
        <time>2018-05-28T08:06:38.000Z</time>
      </trkpt>
      <trkpt lat="48.4158" lon="-4.34775">
        <ele>39.200000762939</ele>
        <time>2018-05-28T08:06:40.000Z</time>
      </trkpt>
      <trkpt lat="48.41594" lon="-4.34758">
        <ele>39.200000762939</ele>
        <time>2018-05-28T08:06:45.000Z</time>
      </trkpt>
      <trkpt lat="48.41614" lon="-4.34723">
        <ele>38.799999237061</ele>
        <time>2018-05-28T08:06:52.000Z</time>
      </trkpt>
      <trkpt lat="48.41637" lon="-4.34685">
        <ele>38</ele>
        <time>2018-05-28T08:06:58.000Z</time>
      </trkpt>
      <trkpt lat="48.41641" lon="-4.34678">
        <ele>37.799999237061</ele>
        <time>2018-05-28T08:06:59.000Z</time>
      </trkpt>
      <trkpt lat="48.41664" lon="-4.34629">
        <ele>36.200000762939</ele>
        <time>2018-05-28T08:07:05.000Z</time>
      </trkpt>
      <trkpt lat="48.41688" lon="-4.34567">
        <ele>34.599998474121</ele>
        <time>2018-05-28T08:07:11.000Z</time>
      </trkpt>
      <trkpt lat="48.4171" lon="-4.34499">
        <ele>33.200000762939</ele>
        <time>2018-05-28T08:07:17.000Z</time>
      </trkpt>
      <trkpt lat="48.41739" lon="-4.34418">
        <ele>30.60000038147</ele>
        <time>2018-05-28T08:07:25.000Z</time>
      </trkpt>
      <trkpt lat="48.41762" lon="-4.34351">
        <ele>28</ele>
        <time>2018-05-28T08:07:32.000Z</time>
      </trkpt>
      <trkpt lat="48.41791" lon="-4.34271">
        <ele>26.200000762939</ele>
        <time>2018-05-28T08:07:40.000Z</time>
      </trkpt>
      <trkpt lat="48.41808" lon="-4.34221">
        <ele>26.39999961853</ele>
        <time>2018-05-28T08:07:45.000Z</time>
      </trkpt>
      <trkpt lat="48.41828" lon="-4.34161">
        <ele>27.39999961853</ele>
        <time>2018-05-28T08:07:51.000Z</time>
      </trkpt>
      <trkpt lat="48.41851" lon="-4.34087">
        <ele>28.200000762939</ele>
        <time>2018-05-28T08:07:59.000Z</time>
      </trkpt>
      <trkpt lat="48.41858" lon="-4.34042">
        <ele>27.200000762939</ele>
        <time>2018-05-28T08:08:04.000Z</time>
      </trkpt>
      <trkpt lat="48.4185" lon="-4.34011">
        <ele>25.799999237061</ele>
        <time>2018-05-28T08:08:08.000Z</time>
      </trkpt>
      <trkpt lat="48.41845" lon="-4.34005">
        <ele>25.39999961853</ele>
        <time>2018-05-28T08:08:09.000Z</time>
      </trkpt>
      <trkpt lat="48.41814" lon="-4.33973">
        <ele>22.799999237061</ele>
        <time>2018-05-28T08:08:14.000Z</time>
      </trkpt>
      <trkpt lat="48.41781" lon="-4.33911">
        <ele>19.60000038147</ele>
        <time>2018-05-28T08:08:20.000Z</time>
      </trkpt>
      <trkpt lat="48.41753" lon="-4.33853">
        <ele>17.200000762939</ele>
        <time>2018-05-28T08:08:25.000Z</time>
      </trkpt>
      <trkpt lat="48.41736" lon="-4.33821">
        <ele>16</ele>
        <time>2018-05-28T08:08:29.000Z</time>
      </trkpt>
      <trkpt lat="48.41729" lon="-4.33807">
        <ele>15.199999809265</ele>
        <time>2018-05-28T08:08:35.000Z</time>
      </trkpt>
      <trkpt lat="48.41712" lon="-4.3377">
        <ele>13.39999961853</ele>
        <time>2018-05-28T08:08:41.000Z</time>
      </trkpt>
      <trkpt lat="48.41686" lon="-4.33714">
        <ele>12</ele>
        <time>2018-05-28T08:08:48.000Z</time>
      </trkpt>
      <trkpt lat="48.41652" lon="-4.33646">
        <ele>11.199999809265</ele>
        <time>2018-05-28T08:08:56.000Z</time>
      </trkpt>
      <trkpt lat="48.41626" lon="-4.33592">
        <ele>10.199999809265</ele>
        <time>2018-05-28T08:09:03.000Z</time>
      </trkpt>
      <trkpt lat="48.41613" lon="-4.33563">
        <ele>9.1999998092651</ele>
        <time>2018-05-28T08:09:09.000Z</time>
      </trkpt>
      <trkpt lat="48.41611" lon="-4.33558">
        <ele>9</ele>
        <time>2018-05-28T08:09:10.000Z</time>
      </trkpt>
      <trkpt lat="48.41607" lon="-4.33528">
        <ele>8.8000001907349</ele>
        <time>2018-05-28T08:09:15.000Z</time>
      </trkpt>
      <trkpt lat="48.4161" lon="-4.33515">
        <ele>9</ele>
        <time>2018-05-28T08:09:17.000Z</time>
      </trkpt>
      <trkpt lat="48.41624" lon="-4.33475">
        <ele>10.39999961853</ele>
        <time>2018-05-28T08:09:23.000Z</time>
      </trkpt>
      <trkpt lat="48.41641" lon="-4.33432">
        <ele>11.39999961853</ele>
        <time>2018-05-28T08:09:30.000Z</time>
      </trkpt>
      <trkpt lat="48.4165" lon="-4.33407">
        <ele>11.199999809265</ele>
        <time>2018-05-28T08:09:34.000Z</time>
      </trkpt>
      <trkpt lat="48.41665" lon="-4.33386">
        <ele>11.60000038147</ele>
        <time>2018-05-28T08:09:39.000Z</time>
      </trkpt>
      <trkpt lat="48.41672" lon="-4.33379">
        <ele>11.800000190735</ele>
        <time>2018-05-28T08:09:42.000Z</time>
      </trkpt>
      <trkpt lat="48.41686" lon="-4.3336">
        <ele>12</ele>
        <time>2018-05-28T08:09:48.000Z</time>
      </trkpt>
      <trkpt lat="48.41707" lon="-4.3333">
        <ele>11.800000190735</ele>
        <time>2018-05-28T08:09:55.000Z</time>
      </trkpt>
      <trkpt lat="48.41711" lon="-4.33328">
        <ele>11.800000190735</ele>
        <time>2018-05-28T08:09:56.000Z</time>
      </trkpt>
      <trkpt lat="48.41735" lon="-4.33325">
        <ele>12.800000190735</ele>
        <time>2018-05-28T08:10:01.000Z</time>
      </trkpt>
      <trkpt lat="48.41767" lon="-4.33336">
        <ele>15.39999961853</ele>
        <time>2018-05-28T08:10:08.000Z</time>
      </trkpt>
      <trkpt lat="48.41788" lon="-4.33346">
        <ele>16.39999961853</ele>
        <time>2018-05-28T08:10:13.000Z</time>
      </trkpt>
      <trkpt lat="48.41802" lon="-4.33354">
        <ele>16.39999961853</ele>
        <time>2018-05-28T08:10:16.000Z</time>
      </trkpt>
      <trkpt lat="48.41835" lon="-4.33369">
        <ele>16.200000762939</ele>
        <time>2018-05-28T08:10:24.000Z</time>
      </trkpt>
      <trkpt lat="48.4186" lon="-4.3338">
        <ele>16.39999961853</ele>
        <time>2018-05-28T08:10:30.000Z</time>
      </trkpt>
      <trkpt lat="48.41887" lon="-4.33385">
        <ele>16</ele>
        <time>2018-05-28T08:10:34.000Z</time>
      </trkpt>
      <trkpt lat="48.41908" lon="-4.33385">
        <ele>15.60000038147</ele>
        <time>2018-05-28T08:10:37.000Z</time>
      </trkpt>
      <trkpt lat="48.41922" lon="-4.33374">
        <ele>14.800000190735</ele>
        <time>2018-05-28T08:10:41.000Z</time>
      </trkpt>
      <trkpt lat="48.41926" lon="-4.33362">
        <ele>14.199999809265</ele>
        <time>2018-05-28T08:10:43.000Z</time>
      </trkpt>
      <trkpt lat="48.41927" lon="-4.33328">
        <ele>13.60000038147</ele>
        <time>2018-05-28T08:10:48.000Z</time>
      </trkpt>
      <trkpt lat="48.41922" lon="-4.3328">
        <ele>13.199999809265</ele>
        <time>2018-05-28T08:10:55.000Z</time>
      </trkpt>
      <trkpt lat="48.41915" lon="-4.3323">
        <ele>12.60000038147</ele>
        <time>2018-05-28T08:11:02.000Z</time>
      </trkpt>
      <trkpt lat="48.41912" lon="-4.3321">
        <ele>12.199999809265</ele>
        <time>2018-05-28T08:11:06.000Z</time>
      </trkpt>
      <trkpt lat="48.41914" lon="-4.33196">
        <ele>11.800000190735</ele>
        <time>2018-05-28T08:11:11.000Z</time>
      </trkpt>
      <trkpt lat="48.41926" lon="-4.33185">
        <ele>11.60000038147</ele>
        <time>2018-05-28T08:11:15.000Z</time>
      </trkpt>
      <trkpt lat="48.41934" lon="-4.33179">
        <ele>11.800000190735</ele>
        <time>2018-05-28T08:11:19.000Z</time>
      </trkpt>
      <trkpt lat="48.41935" lon="-4.33179">
        <ele>11.800000190735</ele>
        <time>2018-05-28T08:11:22.000Z</time>
      </trkpt>
      <trkpt lat="48.41942" lon="-4.33178">
        <ele>12.39999961853</ele>
        <time>2018-05-28T08:11:28.000Z</time>
      </trkpt>
      <trkpt lat="48.41945" lon="-4.33175">
        <ele>12.60000038147</ele>
        <time>2018-05-28T08:11:30.000Z</time>
      </trkpt>
      <trkpt lat="48.41946" lon="-4.33161">
        <ele>12.199999809265</ele>
        <time>2018-05-28T08:11:35.000Z</time>
      </trkpt>
      <trkpt lat="48.41948" lon="-4.33146">
        <ele>12.199999809265</ele>
        <time>2018-05-28T08:11:39.000Z</time>
      </trkpt>
      <trkpt lat="48.41954" lon="-4.33114">
        <ele>11.800000190735</ele>
        <time>2018-05-28T08:11:46.000Z</time>
      </trkpt>
      <trkpt lat="48.41949" lon="-4.33086">
        <ele>12</ele>
        <time>2018-05-28T08:11:50.000Z</time>
      </trkpt>
      <trkpt lat="48.41947" lon="-4.33079">
        <ele>11.800000190735</ele>
        <time>2018-05-28T08:11:51.000Z</time>
      </trkpt>
      <trkpt lat="48.4194" lon="-4.33034">
        <ele>11.800000190735</ele>
        <time>2018-05-28T08:11:57.000Z</time>
      </trkpt>
      <trkpt lat="48.41939" lon="-4.33026">
        <ele>11.800000190735</ele>
        <time>2018-05-28T08:11:58.000Z</time>
      </trkpt>
      <trkpt lat="48.41938" lon="-4.33004">
        <ele>12</ele>
        <time>2018-05-28T08:12:02.000Z</time>
      </trkpt>
      <trkpt lat="48.41933" lon="-4.32986">
        <ele>11.60000038147</ele>
        <time>2018-05-28T08:12:08.000Z</time>
      </trkpt>
      <trkpt lat="48.41928" lon="-4.32971">
        <ele>11.39999961853</ele>
        <time>2018-05-28T08:12:13.000Z</time>
      </trkpt>
      <trkpt lat="48.41926" lon="-4.32959">
        <ele>11.39999961853</ele>
        <time>2018-05-28T08:12:16.000Z</time>
      </trkpt>
      <trkpt lat="48.41918" lon="-4.32938">
        <ele>11.199999809265</ele>
        <time>2018-05-28T08:12:22.000Z</time>
      </trkpt>
      <trkpt lat="48.41915" lon="-4.3292">
        <ele>11.39999961853</ele>
        <time>2018-05-28T08:12:26.000Z</time>
      </trkpt>
      <trkpt lat="48.41908" lon="-4.32899">
        <ele>11.39999961853</ele>
        <time>2018-05-28T08:12:31.000Z</time>
      </trkpt>
      <trkpt lat="48.41899" lon="-4.32872">
        <ele>11.39999961853</ele>
        <time>2018-05-28T08:12:37.000Z</time>
      </trkpt>
      <trkpt lat="48.41889" lon="-4.32842">
        <ele>10.800000190735</ele>
        <time>2018-05-28T08:12:44.000Z</time>
      </trkpt>
      <trkpt lat="48.41882" lon="-4.32811">
        <ele>10.199999809265</ele>
        <time>2018-05-28T08:12:51.000Z</time>
      </trkpt>
      <trkpt lat="48.41874" lon="-4.32797">
        <ele>9.3999996185303</ele>
        <time>2018-05-28T08:12:56.000Z</time>
      </trkpt>
      <trkpt lat="48.4187" lon="-4.32792">
        <ele>9</ele>
        <time>2018-05-28T08:12:58.000Z</time>
      </trkpt>
      <trkpt lat="48.41865" lon="-4.32776">
        <ele>8.3999996185303</ele>
        <time>2018-05-28T08:13:04.000Z</time>
      </trkpt>
      <trkpt lat="48.41865" lon="-4.32772">
        <ele>8.6000003814697</ele>
        <time>2018-05-28T08:13:11.000Z</time>
      </trkpt>
      <trkpt lat="48.41869" lon="-4.32794">
        <ele>8.8000001907349</ele>
        <time>2018-05-28T08:14:48.000Z</time>
      </trkpt>
      <trkpt lat="48.41874" lon="-4.328">
        <ele>9.3999996185303</ele>
        <time>2018-05-28T08:14:51.000Z</time>
      </trkpt>
      <trkpt lat="48.41878" lon="-4.32805">
        <ele>9.8000001907349</ele>
        <time>2018-05-28T08:14:54.000Z</time>
      </trkpt>
      <trkpt lat="48.41883" lon="-4.32801">
        <ele>10.199999809265</ele>
        <time>2018-05-28T08:15:00.000Z</time>
      </trkpt>
      <trkpt lat="48.41884" lon="-4.32801">
        <ele>10.199999809265</ele>
        <time>2018-05-28T08:15:01.000Z</time>
      </trkpt>
      <trkpt lat="48.41889" lon="-4.32793">
        <ele>10.60000038147</ele>
        <time>2018-05-28T08:15:09.000Z</time>
      </trkpt>
      <trkpt lat="48.41889" lon="-4.32791">
        <ele>10.60000038147</ele>
        <time>2018-05-28T08:15:13.000Z</time>
      </trkpt>
      <trkpt lat="48.41885" lon="-4.32809">
        <ele>10.39999961853</ele>
        <time>2018-05-28T08:16:07.000Z</time>
      </trkpt>
      <trkpt lat="48.41887" lon="-4.32827">
        <ele>10.800000190735</ele>
        <time>2018-05-28T08:16:12.000Z</time>
      </trkpt>
      <trkpt lat="48.41893" lon="-4.32842">
        <ele>11.199999809265</ele>
        <time>2018-05-28T08:16:17.000Z</time>
      </trkpt>
      <trkpt lat="48.41899" lon="-4.32859">
        <ele>11.60000038147</ele>
        <time>2018-05-28T08:16:22.000Z</time>
      </trkpt>
      <trkpt lat="48.41906" lon="-4.32877">
        <ele>11.800000190735</ele>
        <time>2018-05-28T08:16:28.000Z</time>
      </trkpt>
      <trkpt lat="48.41917" lon="-4.32901">
        <ele>12</ele>
        <time>2018-05-28T08:16:35.000Z</time>
      </trkpt>
      <trkpt lat="48.4192" lon="-4.32915">
        <ele>12</ele>
        <time>2018-05-28T08:16:39.000Z</time>
      </trkpt>
      <trkpt lat="48.41923" lon="-4.3294">
        <ele>11.60000038147</ele>
        <time>2018-05-28T08:16:45.000Z</time>
      </trkpt>
      <trkpt lat="48.41928" lon="-4.32953">
        <ele>11.60000038147</ele>
        <time>2018-05-28T08:16:49.000Z</time>
      </trkpt>
      <trkpt lat="48.41934" lon="-4.32972">
        <ele>11.800000190735</ele>
        <time>2018-05-28T08:16:54.000Z</time>
      </trkpt>
      <trkpt lat="48.41938" lon="-4.32992">
        <ele>12.199999809265</ele>
        <time>2018-05-28T08:16:59.000Z</time>
      </trkpt>
      <trkpt lat="48.41941" lon="-4.33015">
        <ele>12.199999809265</ele>
        <time>2018-05-28T08:17:04.000Z</time>
      </trkpt>
      <trkpt lat="48.41943" lon="-4.33037">
        <ele>12</ele>
        <time>2018-05-28T08:17:10.000Z</time>
      </trkpt>
      <trkpt lat="48.41946" lon="-4.33061">
        <ele>12</ele>
        <time>2018-05-28T08:17:16.000Z</time>
      </trkpt>
      <trkpt lat="48.4195" lon="-4.33082">
        <ele>12</ele>
        <time>2018-05-28T08:17:22.000Z</time>
      </trkpt>
      <trkpt lat="48.41953" lon="-4.33091">
        <ele>12.199999809265</ele>
        <time>2018-05-28T08:17:25.000Z</time>
      </trkpt>
      <trkpt lat="48.41953" lon="-4.33098">
        <ele>12.199999809265</ele>
        <time>2018-05-28T08:17:28.000Z</time>
      </trkpt>
      <trkpt lat="48.41952" lon="-4.33123">
        <ele>12</ele>
        <time>2018-05-28T08:17:34.000Z</time>
      </trkpt>
      <trkpt lat="48.41953" lon="-4.33139">
        <ele>12.39999961853</ele>
        <time>2018-05-28T08:17:38.000Z</time>
      </trkpt>
      <trkpt lat="48.41952" lon="-4.33162">
        <ele>12.800000190735</ele>
        <time>2018-05-28T08:17:44.000Z</time>
      </trkpt>
      <trkpt lat="48.41953" lon="-4.33164">
        <ele>13</ele>
        <time>2018-05-28T08:17:45.000Z</time>
      </trkpt>
      <trkpt lat="48.41949" lon="-4.3317">
        <ele>12.800000190735</ele>
        <time>2018-05-28T08:17:48.000Z</time>
      </trkpt>
      <trkpt lat="48.41928" lon="-4.33178">
        <ele>11.39999961853</ele>
        <time>2018-05-28T08:17:53.000Z</time>
      </trkpt>
      <trkpt lat="48.41914" lon="-4.33194">
        <ele>11.800000190735</ele>
        <time>2018-05-28T08:17:57.000Z</time>
      </trkpt>
      <trkpt lat="48.41915" lon="-4.33212">
        <ele>12.39999961853</ele>
        <time>2018-05-28T08:18:02.000Z</time>
      </trkpt>
      <trkpt lat="48.41918" lon="-4.33242">
        <ele>12.800000190735</ele>
        <time>2018-05-28T08:18:08.000Z</time>
      </trkpt>
      <trkpt lat="48.41924" lon="-4.33287">
        <ele>13.199999809265</ele>
        <time>2018-05-28T08:18:15.000Z</time>
      </trkpt>
      <trkpt lat="48.41927" lon="-4.33311">
        <ele>13.39999961853</ele>
        <time>2018-05-28T08:18:19.000Z</time>
      </trkpt>
      <trkpt lat="48.4193" lon="-4.33335">
        <ele>13.800000190735</ele>
        <time>2018-05-28T08:18:23.000Z</time>
      </trkpt>
      <trkpt lat="48.41924" lon="-4.33361">
        <ele>14.199999809265</ele>
        <time>2018-05-28T08:18:28.000Z</time>
      </trkpt>
      <trkpt lat="48.41923" lon="-4.33378">
        <ele>15</ele>
        <time>2018-05-28T08:18:32.000Z</time>
      </trkpt>
      <trkpt lat="48.41931" lon="-4.33372">
        <ele>14.39999961853</ele>
        <time>2018-05-28T08:18:35.000Z</time>
      </trkpt>
      <trkpt lat="48.41934" lon="-4.33366">
        <ele>14.199999809265</ele>
        <time>2018-05-28T08:18:36.000Z</time>
      </trkpt>
      <trkpt lat="48.41951" lon="-4.33324">
        <ele>14</ele>
        <time>2018-05-28T08:18:42.000Z</time>
      </trkpt>
      <trkpt lat="48.41959" lon="-4.33303">
        <ele>14</ele>
        <time>2018-05-28T08:18:45.000Z</time>
      </trkpt>
      <trkpt lat="48.41963" lon="-4.33289">
        <ele>13.800000190735</ele>
        <time>2018-05-28T08:18:47.000Z</time>
      </trkpt>
      <trkpt lat="48.41964" lon="-4.33274">
        <ele>14</ele>
        <time>2018-05-28T08:18:49.000Z</time>
      </trkpt>
      <trkpt lat="48.41963" lon="-4.33239">
        <ele>14.800000190735</ele>
        <time>2018-05-28T08:18:54.000Z</time>
      </trkpt>
      <trkpt lat="48.4196" lon="-4.33208">
        <ele>14.199999809265</ele>
        <time>2018-05-28T08:18:58.000Z</time>
      </trkpt>
      <trkpt lat="48.41958" lon="-4.33185">
        <ele>13.800000190735</ele>
        <time>2018-05-28T08:19:01.000Z</time>
      </trkpt>
      <trkpt lat="48.4196" lon="-4.33154">
        <ele>13.39999961853</ele>
        <time>2018-05-28T08:19:06.000Z</time>
      </trkpt>
      <trkpt lat="48.41968" lon="-4.33122">
        <ele>13.199999809265</ele>
        <time>2018-05-28T08:19:12.000Z</time>
      </trkpt>
      <trkpt lat="48.41973" lon="-4.33093">
        <ele>14</ele>
        <time>2018-05-28T08:19:17.000Z</time>
      </trkpt>
      <trkpt lat="48.41975" lon="-4.33081">
        <ele>14.39999961853</ele>
        <time>2018-05-28T08:19:19.000Z</time>
      </trkpt>
      <trkpt lat="48.41976" lon="-4.33038">
        <ele>15.199999809265</ele>
        <time>2018-05-28T08:19:24.000Z</time>
      </trkpt>
      <trkpt lat="48.41981" lon="-4.32982">
        <ele>16.799999237061</ele>
        <time>2018-05-28T08:19:31.000Z</time>
      </trkpt>
      <trkpt lat="48.41987" lon="-4.32956">
        <ele>17.799999237061</ele>
        <time>2018-05-28T08:19:35.000Z</time>
      </trkpt>
      <trkpt lat="48.41991" lon="-4.32946">
        <ele>18.39999961853</ele>
        <time>2018-05-28T08:19:37.000Z</time>
      </trkpt>
      <trkpt lat="48.41999" lon="-4.32921">
        <ele>19.60000038147</ele>
        <time>2018-05-28T08:19:42.000Z</time>
      </trkpt>
      <trkpt lat="48.42008" lon="-4.32889">
        <ele>20.799999237061</ele>
        <time>2018-05-28T08:19:48.000Z</time>
      </trkpt>
      <trkpt lat="48.42017" lon="-4.32852">
        <ele>22.200000762939</ele>
        <time>2018-05-28T08:19:54.000Z</time>
      </trkpt>
      <trkpt lat="48.42028" lon="-4.32817">
        <ele>23</ele>
        <time>2018-05-28T08:20:00.000Z</time>
      </trkpt>
      <trkpt lat="48.42042" lon="-4.32766">
        <ele>24</ele>
        <time>2018-05-28T08:20:08.000Z</time>
      </trkpt>
      <trkpt lat="48.42048" lon="-4.3275">
        <ele>24.39999961853</ele>
        <time>2018-05-28T08:20:11.000Z</time>
      </trkpt>
      <trkpt lat="48.42052" lon="-4.32732">
        <ele>25</ele>
        <time>2018-05-28T08:20:15.000Z</time>
      </trkpt>
      <trkpt lat="48.42043" lon="-4.32716">
        <ele>24.799999237061</ele>
        <time>2018-05-28T08:20:19.000Z</time>
      </trkpt>
      <trkpt lat="48.42036" lon="-4.32706">
        <ele>24.799999237061</ele>
        <time>2018-05-28T08:20:21.000Z</time>
      </trkpt>
      <trkpt lat="48.42014" lon="-4.32665">
        <ele>23.799999237061</ele>
        <time>2018-05-28T08:20:27.000Z</time>
      </trkpt>
      <trkpt lat="48.42006" lon="-4.32654">
        <ele>23.200000762939</ele>
        <time>2018-05-28T08:20:29.000Z</time>
      </trkpt>
      <trkpt lat="48.41993" lon="-4.3264">
        <ele>21.799999237061</ele>
        <time>2018-05-28T08:20:32.000Z</time>
      </trkpt>
      <trkpt lat="48.41982" lon="-4.32628">
        <ele>21</ele>
        <time>2018-05-28T08:20:35.000Z</time>
      </trkpt>
      <trkpt lat="48.41977" lon="-4.32618">
        <ele>20.799999237061</ele>
        <time>2018-05-28T08:20:39.000Z</time>
      </trkpt>
      <trkpt lat="48.41977" lon="-4.32599">
        <ele>20.39999961853</ele>
        <time>2018-05-28T08:20:43.000Z</time>
      </trkpt>
      <trkpt lat="48.41958" lon="-4.32532">
        <ele>17.799999237061</ele>
        <time>2018-05-28T08:20:52.000Z</time>
      </trkpt>
      <trkpt lat="48.41938" lon="-4.32474">
        <ele>15.39999961853</ele>
        <time>2018-05-28T08:21:00.000Z</time>
      </trkpt>
      <trkpt lat="48.41933" lon="-4.32459">
        <ele>15.199999809265</ele>
        <time>2018-05-28T08:21:02.000Z</time>
      </trkpt>
      <trkpt lat="48.41915" lon="-4.32441">
        <ele>14.199999809265</ele>
        <time>2018-05-28T08:21:06.000Z</time>
      </trkpt>
      <trkpt lat="48.41891" lon="-4.32429">
        <ele>12.800000190735</ele>
        <time>2018-05-28T08:21:11.000Z</time>
      </trkpt>
      <trkpt lat="48.41887" lon="-4.32415">
        <ele>12.199999809265</ele>
        <time>2018-05-28T08:21:16.000Z</time>
      </trkpt>
      <trkpt lat="48.41894" lon="-4.32391">
        <ele>11.39999961853</ele>
        <time>2018-05-28T08:21:21.000Z</time>
      </trkpt>
      <trkpt lat="48.41897" lon="-4.32384">
        <ele>11.199999809265</ele>
        <time>2018-05-28T08:21:24.000Z</time>
      </trkpt>
      <trkpt lat="48.41905" lon="-4.32364">
        <ele>10.39999961853</ele>
        <time>2018-05-28T08:21:30.000Z</time>
      </trkpt>
      <trkpt lat="48.41912" lon="-4.32338">
        <ele>9.6000003814697</ele>
        <time>2018-05-28T08:21:35.000Z</time>
      </trkpt>
      <trkpt lat="48.41913" lon="-4.32317">
        <ele>8.6000003814697</ele>
        <time>2018-05-28T08:21:39.000Z</time>
      </trkpt>
      <trkpt lat="48.4191" lon="-4.32296">
        <ele>7.5999999046326</ele>
        <time>2018-05-28T08:21:43.000Z</time>
      </trkpt>
      <trkpt lat="48.41909" lon="-4.32266">
        <ele>6.8000001907349</ele>
        <time>2018-05-28T08:21:48.000Z</time>
      </trkpt>
      <trkpt lat="48.41906" lon="-4.32242">
        <ele>6.1999998092651</ele>
        <time>2018-05-28T08:21:52.000Z</time>
      </trkpt>
      <trkpt lat="48.41905" lon="-4.32236">
        <ele>6</ele>
        <time>2018-05-28T08:21:53.000Z</time>
      </trkpt>
      <trkpt lat="48.41905" lon="-4.32212">
        <ele>5</ele>
        <time>2018-05-28T08:21:56.000Z</time>
      </trkpt>
      <trkpt lat="48.41904" lon="-4.3219">
        <ele>4</ele>
        <time>2018-05-28T08:22:00.000Z</time>
      </trkpt>
      <trkpt lat="48.41901" lon="-4.32169">
        <ele>3.2000000476837</ele>
        <time>2018-05-28T08:22:06.000Z</time>
      </trkpt>
      <trkpt lat="48.419" lon="-4.32167">
        <ele>3</ele>
        <time>2018-05-28T08:22:07.000Z</time>
      </trkpt>
      <trkpt lat="48.419" lon="-4.32166">
        <ele>3</ele>
        <time>2018-05-28T08:22:10.000Z</time>
      </trkpt>
      <trkpt lat="48.41897" lon="-4.32154">
        <ele>2.4000000953674</ele>
        <time>2018-05-28T08:22:17.000Z</time>
      </trkpt>
      <trkpt lat="48.41905" lon="-4.32141">
        <ele>2.4000000953674</ele>
        <time>2018-05-28T08:22:23.000Z</time>
      </trkpt>
      <trkpt lat="48.4191" lon="-4.32133">
        <ele>2.4000000953674</ele>
        <time>2018-05-28T08:22:25.000Z</time>
      </trkpt>
      <trkpt lat="48.41925" lon="-4.32097">
        <ele>2.7999999523163</ele>
        <time>2018-05-28T08:22:31.000Z</time>
      </trkpt>
      <trkpt lat="48.41929" lon="-4.32066">
        <ele>3.4000000953674</ele>
        <time>2018-05-28T08:22:35.000Z</time>
      </trkpt>
      <trkpt lat="48.41926" lon="-4.32006">
        <ele>4</ele>
        <time>2018-05-28T08:22:42.000Z</time>
      </trkpt>
      <trkpt lat="48.41925" lon="-4.31998">
        <ele>4</ele>
        <time>2018-05-28T08:22:43.000Z</time>
      </trkpt>
      <trkpt lat="48.41923" lon="-4.31973">
        <ele>4</ele>
        <time>2018-05-28T08:22:46.000Z</time>
      </trkpt>
      <trkpt lat="48.41927" lon="-4.31907">
        <ele>4</ele>
        <time>2018-05-28T08:22:54.000Z</time>
      </trkpt>
      <trkpt lat="48.41929" lon="-4.31891">
        <ele>4</ele>
        <time>2018-05-28T08:22:56.000Z</time>
      </trkpt>
      <trkpt lat="48.41933" lon="-4.3187">
        <ele>5.8000001907349</ele>
        <time>2018-05-28T08:22:59.000Z</time>
      </trkpt>
      <trkpt lat="48.41948" lon="-4.31841">
        <ele>4.8000001907349</ele>
        <time>2018-05-28T08:23:04.000Z</time>
      </trkpt>
      <trkpt lat="48.41967" lon="-4.31826">
        <ele>4.5999999046326</ele>
        <time>2018-05-28T08:23:09.000Z</time>
      </trkpt>
      <trkpt lat="48.41983" lon="-4.31811">
        <ele>4.4000000953674</ele>
        <time>2018-05-28T08:23:13.000Z</time>
      </trkpt>
      <trkpt lat="48.42013" lon="-4.31763">
        <ele>4.4000000953674</ele>
        <time>2018-05-28T08:23:21.000Z</time>
      </trkpt>
      <trkpt lat="48.42026" lon="-4.31744">
        <ele>5.5999999046326</ele>
        <time>2018-05-28T08:23:24.000Z</time>
      </trkpt>
      <trkpt lat="48.42041" lon="-4.3172">
        <ele>7.1999998092651</ele>
        <time>2018-05-28T08:23:28.000Z</time>
      </trkpt>
      <trkpt lat="48.42057" lon="-4.31704">
        <ele>8.8000001907349</ele>
        <time>2018-05-28T08:23:32.000Z</time>
      </trkpt>
      <trkpt lat="48.42068" lon="-4.31675">
        <ele>10.60000038147</ele>
        <time>2018-05-28T08:23:37.000Z</time>
      </trkpt>
      <trkpt lat="48.42078" lon="-4.31637">
        <ele>12.60000038147</ele>
        <time>2018-05-28T08:23:43.000Z</time>
      </trkpt>
      <trkpt lat="48.42072" lon="-4.31612">
        <ele>12.800000190735</ele>
        <time>2018-05-28T08:23:47.000Z</time>
      </trkpt>
      <trkpt lat="48.42064" lon="-4.31603">
        <ele>12.800000190735</ele>
        <time>2018-05-28T08:23:49.000Z</time>
      </trkpt>
      <trkpt lat="48.4204" lon="-4.31581">
        <ele>11.60000038147</ele>
        <time>2018-05-28T08:23:55.000Z</time>
      </trkpt>
      <trkpt lat="48.42035" lon="-4.31559">
        <ele>11.199999809265</ele>
        <time>2018-05-28T08:23:59.000Z</time>
      </trkpt>
      <trkpt lat="48.42038" lon="-4.31549">
        <ele>11.800000190735</ele>
        <time>2018-05-28T08:24:01.000Z</time>
      </trkpt>
      <trkpt lat="48.42051" lon="-4.31518">
        <ele>13.800000190735</ele>
        <time>2018-05-28T08:24:08.000Z</time>
      </trkpt>
      <trkpt lat="48.42061" lon="-4.315">
        <ele>15</ele>
        <time>2018-05-28T08:24:13.000Z</time>
      </trkpt>
      <trkpt lat="48.42073" lon="-4.31475">
        <ele>16.60000038147</ele>
        <time>2018-05-28T08:24:20.000Z</time>
      </trkpt>
      <trkpt lat="48.42083" lon="-4.31452">
        <ele>18</ele>
        <time>2018-05-28T08:24:25.000Z</time>
      </trkpt>
      <trkpt lat="48.42085" lon="-4.31448">
        <ele>18.39999961853</ele>
        <time>2018-05-28T08:24:26.000Z</time>
      </trkpt>
      <trkpt lat="48.42074" lon="-4.31429">
        <ele>16.200000762939</ele>
        <time>2018-05-28T08:24:31.000Z</time>
      </trkpt>
      <trkpt lat="48.42057" lon="-4.31406">
        <ele>13</ele>
        <time>2018-05-28T08:24:36.000Z</time>
      </trkpt>
      <trkpt lat="48.42054" lon="-4.31402">
        <ele>12.60000038147</ele>
        <time>2018-05-28T08:24:37.000Z</time>
      </trkpt>
      <trkpt lat="48.42056" lon="-4.31384">
        <ele>11.800000190735</ele>
        <time>2018-05-28T08:24:42.000Z</time>
      </trkpt>
      <trkpt lat="48.42071" lon="-4.31368">
        <ele>12.800000190735</ele>
        <time>2018-05-28T08:24:47.000Z</time>
      </trkpt>
      <trkpt lat="48.42084" lon="-4.31356">
        <ele>13.199999809265</ele>
        <time>2018-05-28T08:24:51.000Z</time>
      </trkpt>
      <trkpt lat="48.42098" lon="-4.3134">
        <ele>12.800000190735</ele>
        <time>2018-05-28T08:24:56.000Z</time>
      </trkpt>
      <trkpt lat="48.42113" lon="-4.31325">
        <ele>12.60000038147</ele>
        <time>2018-05-28T08:25:00.000Z</time>
      </trkpt>
      <trkpt lat="48.42117" lon="-4.31321">
        <ele>12.39999961853</ele>
        <time>2018-05-28T08:25:01.000Z</time>
      </trkpt>
      <trkpt lat="48.42125" lon="-4.31311">
        <ele>11.800000190735</ele>
        <time>2018-05-28T08:25:03.000Z</time>
      </trkpt>
      <trkpt lat="48.42148" lon="-4.31288">
        <ele>11.39999961853</ele>
        <time>2018-05-28T08:25:08.000Z</time>
      </trkpt>
      <trkpt lat="48.42152" lon="-4.31284">
        <ele>11.199999809265</ele>
        <time>2018-05-28T08:25:09.000Z</time>
      </trkpt>
      <trkpt lat="48.42162" lon="-4.31278">
        <ele>11.800000190735</ele>
        <time>2018-05-28T08:25:12.000Z</time>
      </trkpt>
      <trkpt lat="48.42174" lon="-4.3127">
        <ele>12.60000038147</ele>
        <time>2018-05-28T08:25:16.000Z</time>
      </trkpt>
      <trkpt lat="48.42191" lon="-4.31253">
        <ele>12.39999961853</ele>
        <time>2018-05-28T08:25:20.000Z</time>
      </trkpt>
      <trkpt lat="48.42227" lon="-4.31242">
        <ele>10.39999961853</ele>
        <time>2018-05-28T08:25:26.000Z</time>
      </trkpt>
      <trkpt lat="48.42267" lon="-4.31225">
        <ele>8.8000001907349</ele>
        <time>2018-05-28T08:25:32.000Z</time>
      </trkpt>
      <trkpt lat="48.4228" lon="-4.3122">
        <ele>9</ele>
        <time>2018-05-28T08:25:34.000Z</time>
      </trkpt>
      <trkpt lat="48.42304" lon="-4.31207">
        <ele>8.8000001907349</ele>
        <time>2018-05-28T08:25:38.000Z</time>
      </trkpt>
      <trkpt lat="48.42327" lon="-4.31192">
        <ele>8.8000001907349</ele>
        <time>2018-05-28T08:25:42.000Z</time>
      </trkpt>
      <trkpt lat="48.4235" lon="-4.31173">
        <ele>8.8000001907349</ele>
        <time>2018-05-28T08:25:46.000Z</time>
      </trkpt>
      <trkpt lat="48.42377" lon="-4.31151">
        <ele>8.3999996185303</ele>
        <time>2018-05-28T08:25:51.000Z</time>
      </trkpt>
      <trkpt lat="48.42397" lon="-4.31136">
        <ele>8.1999998092651</ele>
        <time>2018-05-28T08:25:55.000Z</time>
      </trkpt>
      <trkpt lat="48.42412" lon="-4.3113">
        <ele>8.3999996185303</ele>
        <time>2018-05-28T08:25:58.000Z</time>
      </trkpt>
      <trkpt lat="48.42424" lon="-4.31119">
        <ele>8</ele>
        <time>2018-05-28T08:26:01.000Z</time>
      </trkpt>
      <trkpt lat="48.42432" lon="-4.31115">
        <ele>8.1999998092651</ele>
        <time>2018-05-28T08:26:03.000Z</time>
      </trkpt>
      <trkpt lat="48.42435" lon="-4.31111">
        <ele>8</ele>
        <time>2018-05-28T08:26:05.000Z</time>
      </trkpt>
      <trkpt lat="48.42453" lon="-4.31091">
        <ele>8.1999998092651</ele>
        <time>2018-05-28T08:26:11.000Z</time>
      </trkpt>
      <trkpt lat="48.42473" lon="-4.31074">
        <ele>8.6000003814697</ele>
        <time>2018-05-28T08:26:16.000Z</time>
      </trkpt>
      <trkpt lat="48.42485" lon="-4.31067">
        <ele>8.8000001907349</ele>
        <time>2018-05-28T08:26:19.000Z</time>
      </trkpt>
      <trkpt lat="48.42505" lon="-4.31045">
        <ele>9</ele>
        <time>2018-05-28T08:26:25.000Z</time>
      </trkpt>
      <trkpt lat="48.42509" lon="-4.31041">
        <ele>9</ele>
        <time>2018-05-28T08:26:26.000Z</time>
      </trkpt>
      <trkpt lat="48.42531" lon="-4.31012">
        <ele>9</ele>
        <time>2018-05-28T08:26:32.000Z</time>
      </trkpt>
      <trkpt lat="48.42553" lon="-4.30976">
        <ele>8.6000003814697</ele>
        <time>2018-05-28T08:26:37.000Z</time>
      </trkpt>
      <trkpt lat="48.42559" lon="-4.30959">
        <ele>8.1999998092651</ele>
        <time>2018-05-28T08:26:41.000Z</time>
      </trkpt>
      <trkpt lat="48.42559" lon="-4.30955">
        <ele>8</ele>
        <time>2018-05-28T08:26:42.000Z</time>
      </trkpt>
      <trkpt lat="48.42555" lon="-4.30949">
        <ele>7.5999999046326</ele>
        <time>2018-05-28T08:26:45.000Z</time>
      </trkpt>
      <trkpt lat="48.42544" lon="-4.3093">
        <ele>7.1999998092651</ele>
        <time>2018-05-28T08:26:52.000Z</time>
      </trkpt>
      <trkpt lat="48.42535" lon="-4.30896">
        <ele>5.5999999046326</ele>
        <time>2018-05-28T08:26:57.000Z</time>
      </trkpt>
      <trkpt lat="48.42534" lon="-4.30887">
        <ele>5</ele>
        <time>2018-05-28T08:26:59.000Z</time>
      </trkpt>
      <trkpt lat="48.42533" lon="-4.30864">
        <ele>4.1999998092651</ele>
        <time>2018-05-28T08:27:06.000Z</time>
      </trkpt>
      <trkpt lat="48.42535" lon="-4.3086">
        <ele>4.4000000953674</ele>
        <time>2018-05-28T08:27:08.000Z</time>
      </trkpt>
      <trkpt lat="48.42538" lon="-4.30854">
        <ele>4.5999999046326</ele>
        <time>2018-05-28T08:27:11.000Z</time>
      </trkpt>
      <trkpt lat="48.4254" lon="-4.30839">
        <ele>4.8000001907349</ele>
        <time>2018-05-28T08:27:16.000Z</time>
      </trkpt>
      <trkpt lat="48.4255" lon="-4.30809">
        <ele>6</ele>
        <time>2018-05-28T08:27:23.000Z</time>
      </trkpt>
      <trkpt lat="48.42552" lon="-4.30781">
        <ele>6.5999999046326</ele>
        <time>2018-05-28T08:27:28.000Z</time>
      </trkpt>
      <trkpt lat="48.4255" lon="-4.30745">
        <ele>5.5999999046326</ele>
        <time>2018-05-28T08:27:34.000Z</time>
      </trkpt>
      <trkpt lat="48.42553" lon="-4.30709">
        <ele>4.8000001907349</ele>
        <time>2018-05-28T08:27:40.000Z</time>
      </trkpt>
      <trkpt lat="48.42553" lon="-4.30701">
        <ele>4.8000001907349</ele>
        <time>2018-05-28T08:27:41.000Z</time>
      </trkpt>
      <trkpt lat="48.42554" lon="-4.30688">
        <ele>4.5999999046326</ele>
        <time>2018-05-28T08:27:43.000Z</time>
      </trkpt>
      <trkpt lat="48.42558" lon="-4.3066">
        <ele>4.1999998092651</ele>
        <time>2018-05-28T08:27:48.000Z</time>
      </trkpt>
      <trkpt lat="48.42557" lon="-4.30619">
        <ele>4</ele>
        <time>2018-05-28T08:27:55.000Z</time>
      </trkpt>
      <trkpt lat="48.42553" lon="-4.30601">
        <ele>3.5999999046326</ele>
        <time>2018-05-28T08:27:58.000Z</time>
      </trkpt>
      <trkpt lat="48.42551" lon="-4.30588">
        <ele>3.2000000476837</ele>
        <time>2018-05-28T08:28:00.000Z</time>
      </trkpt>
      <trkpt lat="48.42546" lon="-4.3057">
        <ele>3.4000000953674</ele>
        <time>2018-05-28T08:28:03.000Z</time>
      </trkpt>
      <trkpt lat="48.42547" lon="-4.30548">
        <ele>4.1999998092651</ele>
        <time>2018-05-28T08:28:07.000Z</time>
      </trkpt>
      <trkpt lat="48.42553" lon="-4.30546">
        <ele>4.4000000953674</ele>
        <time>2018-05-28T08:28:10.000Z</time>
      </trkpt>
      <trkpt lat="48.42555" lon="-4.30549">
        <ele>4.1999998092651</ele>
        <time>2018-05-28T08:28:11.000Z</time>
      </trkpt>
      <trkpt lat="48.42572" lon="-4.30577">
        <ele>4.5999999046326</ele>
        <time>2018-05-28T08:28:19.000Z</time>
      </trkpt>
      <trkpt lat="48.4258" lon="-4.30597">
        <ele>5.4000000953674</ele>
        <time>2018-05-28T08:28:24.000Z</time>
      </trkpt>
      <trkpt lat="48.426" lon="-4.30638">
        <ele>7.5999999046326</ele>
        <time>2018-05-28T08:28:34.000Z</time>
      </trkpt>
      <trkpt lat="48.4262" lon="-4.30675">
        <ele>10.199999809265</ele>
        <time>2018-05-28T08:28:43.000Z</time>
      </trkpt>
      <trkpt lat="48.42637" lon="-4.30703">
        <ele>11.39999961853</ele>
        <time>2018-05-28T08:28:50.000Z</time>
      </trkpt>
      <trkpt lat="48.42656" lon="-4.3072">
        <ele>13</ele>
        <time>2018-05-28T08:28:56.000Z</time>
      </trkpt>
      <trkpt lat="48.42678" lon="-4.30734">
        <ele>14.60000038147</ele>
        <time>2018-05-28T08:29:03.000Z</time>
      </trkpt>
      <trkpt lat="48.4269" lon="-4.30743">
        <ele>15.800000190735</ele>
        <time>2018-05-28T08:29:07.000Z</time>
      </trkpt>
      <trkpt lat="48.42701" lon="-4.30736">
        <ele>16.60000038147</ele>
        <time>2018-05-28T08:29:11.000Z</time>
      </trkpt>
      <trkpt lat="48.42722" lon="-4.30685">
        <ele>17</ele>
        <time>2018-05-28T08:29:20.000Z</time>
      </trkpt>
      <trkpt lat="48.42739" lon="-4.30634">
        <ele>16.799999237061</ele>
        <time>2018-05-28T08:29:28.000Z</time>
      </trkpt>
      <trkpt lat="48.42743" lon="-4.3062">
        <ele>17</ele>
        <time>2018-05-28T08:29:30.000Z</time>
      </trkpt>
      <trkpt lat="48.42753" lon="-4.306">
        <ele>17</ele>
        <time>2018-05-28T08:29:33.000Z</time>
      </trkpt>
      <trkpt lat="48.42776" lon="-4.3056">
        <ele>17.60000038147</ele>
        <time>2018-05-28T08:29:40.000Z</time>
      </trkpt>
      <trkpt lat="48.42779" lon="-4.30555">
        <ele>17.799999237061</ele>
        <time>2018-05-28T08:29:41.000Z</time>
      </trkpt>
      <trkpt lat="48.42794" lon="-4.30546">
        <ele>18.799999237061</ele>
        <time>2018-05-28T08:29:45.000Z</time>
      </trkpt>
      <trkpt lat="48.42801" lon="-4.30552">
        <ele>19.39999961853</ele>
        <time>2018-05-28T08:29:47.000Z</time>
      </trkpt>
      <trkpt lat="48.42819" lon="-4.3057">
        <ele>21.60000038147</ele>
        <time>2018-05-28T08:29:52.000Z</time>
      </trkpt>
      <trkpt lat="48.42837" lon="-4.3059">
        <ele>24</ele>
        <time>2018-05-28T08:29:58.000Z</time>
      </trkpt>
      <trkpt lat="48.42846" lon="-4.30612">
        <ele>25.799999237061</ele>
        <time>2018-05-28T08:30:03.000Z</time>
      </trkpt>
      <trkpt lat="48.42859" lon="-4.30643">
        <ele>28.200000762939</ele>
        <time>2018-05-28T08:30:11.000Z</time>
      </trkpt>
      <trkpt lat="48.4287" lon="-4.30668">
        <ele>30.200000762939</ele>
        <time>2018-05-28T08:30:18.000Z</time>
      </trkpt>
      <trkpt lat="48.42875" lon="-4.30677">
        <ele>30.799999237061</ele>
        <time>2018-05-28T08:30:21.000Z</time>
      </trkpt>
      <trkpt lat="48.42889" lon="-4.30676">
        <ele>31.39999961853</ele>
        <time>2018-05-28T08:30:26.000Z</time>
      </trkpt>
      <trkpt lat="48.42905" lon="-4.30662">
        <ele>31.799999237061</ele>
        <time>2018-05-28T08:30:32.000Z</time>
      </trkpt>
      <trkpt lat="48.42926" lon="-4.30645">
        <ele>32.400001525879</ele>
        <time>2018-05-28T08:30:39.000Z</time>
      </trkpt>
      <trkpt lat="48.42932" lon="-4.30643">
        <ele>32.599998474121</ele>
        <time>2018-05-28T08:30:41.000Z</time>
      </trkpt>
      <trkpt lat="48.42944" lon="-4.30651">
        <ele>32.400001525879</ele>
        <time>2018-05-28T08:30:45.000Z</time>
      </trkpt>
      <trkpt lat="48.42958" lon="-4.30669">
        <ele>32.400001525879</ele>
        <time>2018-05-28T08:30:51.000Z</time>
      </trkpt>
      <trkpt lat="48.42974" lon="-4.30688">
        <ele>34.200000762939</ele>
        <time>2018-05-28T08:30:57.000Z</time>
      </trkpt>
      <trkpt lat="48.42991" lon="-4.30706">
        <ele>35.599998474121</ele>
        <time>2018-05-28T08:31:03.000Z</time>
      </trkpt>
      <trkpt lat="48.43003" lon="-4.30719">
        <ele>36.599998474121</ele>
        <time>2018-05-28T08:31:08.000Z</time>
      </trkpt>
      <trkpt lat="48.4301" lon="-4.30727">
        <ele>38</ele>
        <time>2018-05-28T08:31:13.000Z</time>
      </trkpt>
      <trkpt lat="48.43019" lon="-4.30736">
        <ele>39.200000762939</ele>
        <time>2018-05-28T08:31:19.000Z</time>
      </trkpt>
      <trkpt lat="48.43029" lon="-4.30746">
        <ele>40</ele>
        <time>2018-05-28T08:31:25.000Z</time>
      </trkpt>
      <trkpt lat="48.43035" lon="-4.30753">
        <ele>40.400001525879</ele>
        <time>2018-05-28T08:31:31.000Z</time>
      </trkpt>
      <trkpt lat="48.43037" lon="-4.30755">
        <ele>40.599998474121</ele>
        <time>2018-05-28T08:31:34.000Z</time>
      </trkpt>
      <trkpt lat="48.43043" lon="-4.3076">
        <ele>41.799999237061</ele>
        <time>2018-05-28T08:31:38.000Z</time>
      </trkpt>
      <trkpt lat="48.43049" lon="-4.30765">
        <ele>43.200000762939</ele>
        <time>2018-05-28T08:31:40.000Z</time>
      </trkpt>
      <trkpt lat="48.43053" lon="-4.3077">
        <ele>44.400001525879</ele>
        <time>2018-05-28T08:31:44.000Z</time>
      </trkpt>
      <trkpt lat="48.43055" lon="-4.30773">
        <ele>45</ele>
        <time>2018-05-28T08:31:46.000Z</time>
      </trkpt>
      <trkpt lat="48.43063" lon="-4.30783">
        <ele>47.200000762939</ele>
        <time>2018-05-28T08:31:52.000Z</time>
      </trkpt>
      <trkpt lat="48.43068" lon="-4.30789">
        <ele>47.799999237061</ele>
        <time>2018-05-28T08:31:54.000Z</time>
      </trkpt>
      <trkpt lat="48.43083" lon="-4.30804">
        <ele>50</ele>
        <time>2018-05-28T08:32:02.000Z</time>
      </trkpt>
      <trkpt lat="48.43088" lon="-4.30808">
        <ele>51</ele>
        <time>2018-05-28T08:32:06.000Z</time>
      </trkpt>
      <trkpt lat="48.4309" lon="-4.30808">
        <ele>51.200000762939</ele>
        <time>2018-05-28T08:32:08.000Z</time>
      </trkpt>
      <trkpt lat="48.43095" lon="-4.30809">
        <ele>52</ele>
        <time>2018-05-28T08:32:12.000Z</time>
      </trkpt>
      <trkpt lat="48.43105" lon="-4.30813">
        <ele>52.599998474121</ele>
        <time>2018-05-28T08:32:17.000Z</time>
      </trkpt>
      <trkpt lat="48.43109" lon="-4.30826">
        <ele>53.599998474121</ele>
        <time>2018-05-28T08:32:22.000Z</time>
      </trkpt>
      <trkpt lat="48.43104" lon="-4.30838">
        <ele>54.599998474121</ele>
        <time>2018-05-28T08:32:28.000Z</time>
      </trkpt>
      <trkpt lat="48.43097" lon="-4.30848">
        <ele>55.400001525879</ele>
        <time>2018-05-28T08:32:33.000Z</time>
      </trkpt>
      <trkpt lat="48.43087" lon="-4.30858">
        <ele>55</ele>
        <time>2018-05-28T08:32:40.000Z</time>
      </trkpt>
      <trkpt lat="48.43079" lon="-4.30868">
        <ele>54.799999237061</ele>
        <time>2018-05-28T08:32:47.000Z</time>
      </trkpt>
      <trkpt lat="48.43067" lon="-4.30882">
        <ele>54.400001525879</ele>
        <time>2018-05-28T08:32:55.000Z</time>
      </trkpt>
      <trkpt lat="48.4306" lon="-4.30897">
        <ele>54.799999237061</ele>
        <time>2018-05-28T08:33:00.000Z</time>
      </trkpt>
      <trkpt lat="48.43049" lon="-4.30916">
        <ele>54.799999237061</ele>
        <time>2018-05-28T08:33:06.000Z</time>
      </trkpt>
      <trkpt lat="48.43041" lon="-4.3094">
        <ele>55.599998474121</ele>
        <time>2018-05-28T08:33:11.000Z</time>
      </trkpt>
      <trkpt lat="48.43036" lon="-4.30963">
        <ele>57.200000762939</ele>
        <time>2018-05-28T08:33:16.000Z</time>
      </trkpt>
      <trkpt lat="48.43028" lon="-4.30981">
        <ele>58.200000762939</ele>
        <time>2018-05-28T08:33:21.000Z</time>
      </trkpt>
      <trkpt lat="48.43021" lon="-4.31007">
        <ele>60.200000762939</ele>
        <time>2018-05-28T08:33:27.000Z</time>
      </trkpt>
      <trkpt lat="48.43016" lon="-4.31027">
        <ele>61.799999237061</ele>
        <time>2018-05-28T08:33:32.000Z</time>
      </trkpt>
      <trkpt lat="48.43004" lon="-4.31053">
        <ele>62.200000762939</ele>
        <time>2018-05-28T08:33:37.000Z</time>
      </trkpt>
      <trkpt lat="48.42996" lon="-4.31072">
        <ele>62.799999237061</ele>
        <time>2018-05-28T08:33:41.000Z</time>
      </trkpt>
      <trkpt lat="48.43001" lon="-4.31083">
        <ele>65</ele>
        <time>2018-05-28T08:33:46.000Z</time>
      </trkpt>
      <trkpt lat="48.43004" lon="-4.31094">
        <ele>66.599998474121</ele>
        <time>2018-05-28T08:33:49.000Z</time>
      </trkpt>
      <trkpt lat="48.43003" lon="-4.3112">
        <ele>69</ele>
        <time>2018-05-28T08:33:54.000Z</time>
      </trkpt>
      <trkpt lat="48.43007" lon="-4.31145">
        <ele>70.599998474121</ele>
        <time>2018-05-28T08:33:58.000Z</time>
      </trkpt>
      <trkpt lat="48.4302" lon="-4.31169">
        <ele>73.599998474121</ele>
        <time>2018-05-28T08:34:03.000Z</time>
      </trkpt>
      <trkpt lat="48.43019" lon="-4.31186">
        <ele>74</ele>
        <time>2018-05-28T08:34:06.000Z</time>
      </trkpt>
      <trkpt lat="48.43024" lon="-4.31206">
        <ele>74.400001525879</ele>
        <time>2018-05-28T08:34:10.000Z</time>
      </trkpt>
      <trkpt lat="48.43031" lon="-4.3122">
        <ele>74.400001525879</ele>
        <time>2018-05-28T08:34:13.000Z</time>
      </trkpt>
      <trkpt lat="48.43036" lon="-4.3123">
        <ele>74.599998474121</ele>
        <time>2018-05-28T08:34:15.000Z</time>
      </trkpt>
      <trkpt lat="48.43051" lon="-4.31255">
        <ele>74.199996948242</ele>
        <time>2018-05-28T08:34:21.000Z</time>
      </trkpt>
      <trkpt lat="48.43061" lon="-4.31269">
        <ele>72.800003051758</ele>
        <time>2018-05-28T08:34:24.000Z</time>
      </trkpt>
      <trkpt lat="48.43071" lon="-4.3129">
        <ele>70.800003051758</ele>
        <time>2018-05-28T08:34:28.000Z</time>
      </trkpt>
      <trkpt lat="48.43073" lon="-4.31292">
        <ele>70.599998474121</ele>
        <time>2018-05-28T08:34:32.000Z</time>
      </trkpt>
      <trkpt lat="48.43086" lon="-4.31285">
        <ele>71.400001525879</ele>
        <time>2018-05-28T08:35:34.000Z</time>
      </trkpt>
      <trkpt lat="48.43113" lon="-4.31248">
        <ele>72.400001525879</ele>
        <time>2018-05-28T08:35:42.000Z</time>
      </trkpt>
      <trkpt lat="48.43126" lon="-4.31232">
        <ele>71.599998474121</ele>
        <time>2018-05-28T08:35:45.000Z</time>
      </trkpt>
      <trkpt lat="48.43142" lon="-4.31216">
        <ele>70.199996948242</ele>
        <time>2018-05-28T08:35:50.000Z</time>
      </trkpt>
      <trkpt lat="48.43148" lon="-4.31217">
        <ele>68.800003051758</ele>
        <time>2018-05-28T08:35:52.000Z</time>
      </trkpt>
      <trkpt lat="48.43161" lon="-4.31239">
        <ele>66</ele>
        <time>2018-05-28T08:35:59.000Z</time>
      </trkpt>
      <trkpt lat="48.43171" lon="-4.31265">
        <ele>65</ele>
        <time>2018-05-28T08:36:05.000Z</time>
      </trkpt>
      <trkpt lat="48.43183" lon="-4.31288">
        <ele>64.599998474121</ele>
        <time>2018-05-28T08:36:10.000Z</time>
      </trkpt>
      <trkpt lat="48.43183" lon="-4.31308">
        <ele>66</ele>
        <time>2018-05-28T08:36:15.000Z</time>
      </trkpt>
      <trkpt lat="48.43184" lon="-4.31333">
        <ele>67.599998474121</ele>
        <time>2018-05-28T08:36:20.000Z</time>
      </trkpt>
      <trkpt lat="48.43188" lon="-4.31349">
        <ele>68.599998474121</ele>
        <time>2018-05-28T08:36:25.000Z</time>
      </trkpt>
      <trkpt lat="48.43188" lon="-4.31351">
        <ele>68.800003051758</ele>
        <time>2018-05-28T08:36:26.000Z</time>
      </trkpt>
      <trkpt lat="48.43193" lon="-4.3136">
        <ele>69.599998474121</ele>
        <time>2018-05-28T08:36:30.000Z</time>
      </trkpt>
      <trkpt lat="48.43196" lon="-4.31365">
        <ele>70.199996948242</ele>
        <time>2018-05-28T08:36:32.000Z</time>
      </trkpt>
      <trkpt lat="48.43209" lon="-4.31379">
        <ele>70.800003051758</ele>
        <time>2018-05-28T08:36:38.000Z</time>
      </trkpt>
      <trkpt lat="48.43224" lon="-4.31393">
        <ele>71.599998474121</ele>
        <time>2018-05-28T08:36:43.000Z</time>
      </trkpt>
      <trkpt lat="48.43239" lon="-4.31396">
        <ele>72</ele>
        <time>2018-05-28T08:36:49.000Z</time>
      </trkpt>
      <trkpt lat="48.43257" lon="-4.31388">
        <ele>72.400001525879</ele>
        <time>2018-05-28T08:36:54.000Z</time>
      </trkpt>
      <trkpt lat="48.43273" lon="-4.31375">
        <ele>70.800003051758</ele>
        <time>2018-05-28T08:36:59.000Z</time>
      </trkpt>
      <trkpt lat="48.43283" lon="-4.31366">
        <ele>68.400001525879</ele>
        <time>2018-05-28T08:37:03.000Z</time>
      </trkpt>
      <trkpt lat="48.43297" lon="-4.31375">
        <ele>67</ele>
        <time>2018-05-28T08:37:08.000Z</time>
      </trkpt>
      <trkpt lat="48.43303" lon="-4.31385">
        <ele>66.800003051758</ele>
        <time>2018-05-28T08:37:12.000Z</time>
      </trkpt>
      <trkpt lat="48.43314" lon="-4.31397">
        <ele>65.800003051758</ele>
        <time>2018-05-28T08:37:19.000Z</time>
      </trkpt>
      <trkpt lat="48.43331" lon="-4.31397">
        <ele>64.400001525879</ele>
        <time>2018-05-28T08:37:23.000Z</time>
      </trkpt>
      <trkpt lat="48.43347" lon="-4.31402">
        <ele>64.199996948242</ele>
        <time>2018-05-28T08:37:27.000Z</time>
      </trkpt>
      <trkpt lat="48.43377" lon="-4.31442">
        <ele>67.400001525879</ele>
        <time>2018-05-28T08:37:34.000Z</time>
      </trkpt>
      <trkpt lat="48.4338" lon="-4.31452">
        <ele>67.599998474121</ele>
        <time>2018-05-28T08:37:35.000Z</time>
      </trkpt>
      <trkpt lat="48.43387" lon="-4.31497">
        <ele>68.599998474121</ele>
        <time>2018-05-28T08:37:40.000Z</time>
      </trkpt>
      <trkpt lat="48.43389" lon="-4.31533">
        <ele>68.199996948242</ele>
        <time>2018-05-28T08:37:45.000Z</time>
      </trkpt>
      <trkpt lat="48.43408" lon="-4.3155">
        <ele>65.800003051758</ele>
        <time>2018-05-28T08:37:50.000Z</time>
      </trkpt>
      <trkpt lat="48.43411" lon="-4.31549">
        <ele>65.400001525879</ele>
        <time>2018-05-28T08:37:51.000Z</time>
      </trkpt>
      <trkpt lat="48.43421" lon="-4.31549">
        <ele>63.400001525879</ele>
        <time>2018-05-28T08:37:55.000Z</time>
      </trkpt>
      <trkpt lat="48.43427" lon="-4.31543">
        <ele>62.200000762939</ele>
        <time>2018-05-28T08:37:59.000Z</time>
      </trkpt>
      <trkpt lat="48.43431" lon="-4.31531">
        <ele>61.200000762939</ele>
        <time>2018-05-28T08:38:05.000Z</time>
      </trkpt>
      <trkpt lat="48.43432" lon="-4.31527">
        <ele>61</ele>
        <time>2018-05-28T08:38:07.000Z</time>
      </trkpt>
      <trkpt lat="48.43437" lon="-4.31524">
        <ele>61.400001525879</ele>
        <time>2018-05-28T08:38:10.000Z</time>
      </trkpt>
      <trkpt lat="48.43442" lon="-4.3152">
        <ele>61.799999237061</ele>
        <time>2018-05-28T08:38:15.000Z</time>
      </trkpt>
      <trkpt lat="48.43442" lon="-4.31521">
        <ele>62</ele>
        <time>2018-05-28T08:38:18.000Z</time>
      </trkpt>
      <trkpt lat="48.43442" lon="-4.31531">
        <ele>61.799999237061</ele>
        <time>2018-05-28T08:38:25.000Z</time>
      </trkpt>
      <trkpt lat="48.43442" lon="-4.31535">
        <ele>61.799999237061</ele>
        <time>2018-05-28T08:38:27.000Z</time>
      </trkpt>
      <trkpt lat="48.43438" lon="-4.31548">
        <ele>61.799999237061</ele>
        <time>2018-05-28T08:38:34.000Z</time>
      </trkpt>
      <trkpt lat="48.43438" lon="-4.31557">
        <ele>62</ele>
        <time>2018-05-28T08:38:38.000Z</time>
      </trkpt>
      <trkpt lat="48.4344" lon="-4.31571">
        <ele>62.599998474121</ele>
        <time>2018-05-28T08:38:45.000Z</time>
      </trkpt>
      <trkpt lat="48.43446" lon="-4.31584">
        <ele>63.400001525879</ele>
        <time>2018-05-28T08:38:51.000Z</time>
      </trkpt>
      <trkpt lat="48.43454" lon="-4.316">
        <ele>64.199996948242</ele>
        <time>2018-05-28T08:38:57.000Z</time>
      </trkpt>
      <trkpt lat="48.43463" lon="-4.3161">
        <ele>64.199996948242</ele>
        <time>2018-05-28T08:39:02.000Z</time>
      </trkpt>
      <trkpt lat="48.43466" lon="-4.31614">
        <ele>64.199996948242</ele>
        <time>2018-05-28T08:39:06.000Z</time>
      </trkpt>
      <trkpt lat="48.43466" lon="-4.31614">
        <ele>64.199996948242</ele>
        <time>2018-05-28T08:39:07.000Z</time>
      </trkpt>
      <trkpt lat="48.4348" lon="-4.31626">
        <ele>64.599998474121</ele>
        <time>2018-05-28T08:39:31.000Z</time>
      </trkpt>
      <trkpt lat="48.43483" lon="-4.31629">
        <ele>64.599998474121</ele>
        <time>2018-05-28T08:39:36.000Z</time>
      </trkpt>
      <trkpt lat="48.43486" lon="-4.31633">
        <ele>64.599998474121</ele>
        <time>2018-05-28T08:39:39.000Z</time>
      </trkpt>
      <trkpt lat="48.43487" lon="-4.31637">
        <ele>64.599998474121</ele>
        <time>2018-05-28T08:39:44.000Z</time>
      </trkpt>
      <trkpt lat="48.43473" lon="-4.31624">
        <ele>64.400001525879</ele>
        <time>2018-05-28T08:39:58.000Z</time>
      </trkpt>
      <trkpt lat="48.43469" lon="-4.31619">
        <ele>64.199996948242</ele>
        <time>2018-05-28T08:40:04.000Z</time>
      </trkpt>
      <trkpt lat="48.43462" lon="-4.31613">
        <ele>64</ele>
        <time>2018-05-28T08:40:11.000Z</time>
      </trkpt>
      <trkpt lat="48.4346" lon="-4.31613">
        <ele>64</ele>
        <time>2018-05-28T08:40:12.000Z</time>
      </trkpt>
      <trkpt lat="48.43447" lon="-4.31604">
        <ele>63.799999237061</ele>
        <time>2018-05-28T08:40:19.000Z</time>
      </trkpt>
      <trkpt lat="48.43438" lon="-4.31593">
        <ele>63</ele>
        <time>2018-05-28T08:40:23.000Z</time>
      </trkpt>
      <trkpt lat="48.43437" lon="-4.31585">
        <ele>62.599998474121</ele>
        <time>2018-05-28T08:40:25.000Z</time>
      </trkpt>
      <trkpt lat="48.43436" lon="-4.31578">
        <ele>62.400001525879</ele>
        <time>2018-05-28T08:40:27.000Z</time>
      </trkpt>
      <trkpt lat="48.43435" lon="-4.31562">
        <ele>62</ele>
        <time>2018-05-28T08:40:33.000Z</time>
      </trkpt>
      <trkpt lat="48.43434" lon="-4.3156">
        <ele>61.799999237061</ele>
        <time>2018-05-28T08:40:34.000Z</time>
      </trkpt>
      <trkpt lat="48.43435" lon="-4.31556">
        <ele>61.799999237061</ele>
        <time>2018-05-28T08:40:36.000Z</time>
      </trkpt>
      <trkpt lat="48.43441" lon="-4.31546">
        <ele>62.200000762939</ele>
        <time>2018-05-28T08:40:42.000Z</time>
      </trkpt>
      <trkpt lat="48.43444" lon="-4.31531">
        <ele>62</ele>
        <time>2018-05-28T08:40:48.000Z</time>
      </trkpt>
      <trkpt lat="48.43447" lon="-4.31519">
        <ele>62.400001525879</ele>
        <time>2018-05-28T08:40:52.000Z</time>
      </trkpt>
      <trkpt lat="48.43448" lon="-4.31517">
        <ele>62.400001525879</ele>
        <time>2018-05-28T08:40:53.000Z</time>
      </trkpt>
      <trkpt lat="48.4345" lon="-4.31508">
        <ele>62.599998474121</ele>
        <time>2018-05-28T08:40:57.000Z</time>
      </trkpt>
      <trkpt lat="48.43453" lon="-4.31494">
        <ele>63</ele>
        <time>2018-05-28T08:41:03.000Z</time>
      </trkpt>
      <trkpt lat="48.43455" lon="-4.31483">
        <ele>63.200000762939</ele>
        <time>2018-05-28T08:41:08.000Z</time>
      </trkpt>
      <trkpt lat="48.43456" lon="-4.31471">
        <ele>63.200000762939</ele>
        <time>2018-05-28T08:41:14.000Z</time>
      </trkpt>
      <trkpt lat="48.43457" lon="-4.31463">
        <ele>63.400001525879</ele>
        <time>2018-05-28T08:41:18.000Z</time>
      </trkpt>
      <trkpt lat="48.4346" lon="-4.31455">
        <ele>63.599998474121</ele>
        <time>2018-05-28T08:41:21.000Z</time>
      </trkpt>
      <trkpt lat="48.43463" lon="-4.31443">
        <ele>63.799999237061</ele>
        <time>2018-05-28T08:41:26.000Z</time>
      </trkpt>
      <trkpt lat="48.43468" lon="-4.31431">
        <ele>63.799999237061</ele>
        <time>2018-05-28T08:41:33.000Z</time>
      </trkpt>
      <trkpt lat="48.43475" lon="-4.31428">
        <ele>64.400001525879</ele>
        <time>2018-05-28T08:41:40.000Z</time>
      </trkpt>
      <trkpt lat="48.43477" lon="-4.31426">
        <ele>64.599998474121</ele>
        <time>2018-05-28T08:41:42.000Z</time>
      </trkpt>
      <trkpt lat="48.43488" lon="-4.31423">
        <ele>65.400001525879</ele>
        <time>2018-05-28T08:41:50.000Z</time>
      </trkpt>
      <trkpt lat="48.43499" lon="-4.31424">
        <ele>66.599998474121</ele>
        <time>2018-05-28T08:41:57.000Z</time>
      </trkpt>
      <trkpt lat="48.43507" lon="-4.31421">
        <ele>67.199996948242</ele>
        <time>2018-05-28T08:42:05.000Z</time>
      </trkpt>
      <trkpt lat="48.43519" lon="-4.31421">
        <ele>68.400001525879</ele>
        <time>2018-05-28T08:42:12.000Z</time>
      </trkpt>
      <trkpt lat="48.43528" lon="-4.31417">
        <ele>68.800003051758</ele>
        <time>2018-05-28T08:42:17.000Z</time>
      </trkpt>
      <trkpt lat="48.43533" lon="-4.31398">
        <ele>68.400001525879</ele>
        <time>2018-05-28T08:42:24.000Z</time>
      </trkpt>
      <trkpt lat="48.43534" lon="-4.31394">
        <ele>68.400001525879</ele>
        <time>2018-05-28T08:42:25.000Z</time>
      </trkpt>
      <trkpt lat="48.43542" lon="-4.31382">
        <ele>68.599998474121</ele>
        <time>2018-05-28T08:42:31.000Z</time>
      </trkpt>
      <trkpt lat="48.43552" lon="-4.3137">
        <ele>68.800003051758</ele>
        <time>2018-05-28T08:42:36.000Z</time>
      </trkpt>
      <trkpt lat="48.43552" lon="-4.31347">
        <ele>68</ele>
        <time>2018-05-28T08:42:40.000Z</time>
      </trkpt>
      <trkpt lat="48.43544" lon="-4.31308">
        <ele>66.400001525879</ele>
        <time>2018-05-28T08:42:45.000Z</time>
      </trkpt>
      <trkpt lat="48.43533" lon="-4.31268">
        <ele>64.800003051758</ele>
        <time>2018-05-28T08:42:49.000Z</time>
      </trkpt>
      <trkpt lat="48.43522" lon="-4.31207">
        <ele>61.799999237061</ele>
        <time>2018-05-28T08:42:54.000Z</time>
      </trkpt>
      <trkpt lat="48.4352" lon="-4.31181">
        <ele>62</ele>
        <time>2018-05-28T08:42:56.000Z</time>
      </trkpt>
      <trkpt lat="48.43505" lon="-4.31135">
        <ele>62.799999237061</ele>
        <time>2018-05-28T08:43:00.000Z</time>
      </trkpt>
      <trkpt lat="48.43498" lon="-4.31126">
        <ele>63</ele>
        <time>2018-05-28T08:43:01.000Z</time>
      </trkpt>
      <trkpt lat="48.4347" lon="-4.3109">
        <ele>66</ele>
        <time>2018-05-28T08:43:06.000Z</time>
      </trkpt>
      <trkpt lat="48.43462" lon="-4.31078">
        <ele>67</ele>
        <time>2018-05-28T08:43:08.000Z</time>
      </trkpt>
      <trkpt lat="48.43458" lon="-4.31055">
        <ele>68.400001525879</ele>
        <time>2018-05-28T08:43:12.000Z</time>
      </trkpt>
      <trkpt lat="48.4345" lon="-4.31044">
        <ele>68.800003051758</ele>
        <time>2018-05-28T08:43:17.000Z</time>
      </trkpt>
      <trkpt lat="48.43443" lon="-4.31029">
        <ele>69.599998474121</ele>
        <time>2018-05-28T08:43:21.000Z</time>
      </trkpt>
      <trkpt lat="48.43436" lon="-4.3101">
        <ele>70.400001525879</ele>
        <time>2018-05-28T08:43:27.000Z</time>
      </trkpt>
      <trkpt lat="48.43436" lon="-4.31008">
        <ele>70.400001525879</ele>
        <time>2018-05-28T08:43:28.000Z</time>
      </trkpt>
      <trkpt lat="48.43432" lon="-4.31002">
        <ele>70.400001525879</ele>
        <time>2018-05-28T08:43:31.000Z</time>
      </trkpt>
      <trkpt lat="48.43432" lon="-4.30998">
        <ele>70.400001525879</ele>
        <time>2018-05-28T08:43:33.000Z</time>
      </trkpt>
      <trkpt lat="48.43426" lon="-4.3098">
        <ele>70.199996948242</ele>
        <time>2018-05-28T08:43:38.000Z</time>
      </trkpt>
      <trkpt lat="48.43432" lon="-4.30964">
        <ele>72</ele>
        <time>2018-05-28T08:43:44.000Z</time>
      </trkpt>
      <trkpt lat="48.43438" lon="-4.30955">
        <ele>73.199996948242</ele>
        <time>2018-05-28T08:43:48.000Z</time>
      </trkpt>
      <trkpt lat="48.43446" lon="-4.30947">
        <ele>74.599998474121</ele>
        <time>2018-05-28T08:43:54.000Z</time>
      </trkpt>
      <trkpt lat="48.43452" lon="-4.30933">
        <ele>75.599998474121</ele>
        <time>2018-05-28T08:43:59.000Z</time>
      </trkpt>
      <trkpt lat="48.43456" lon="-4.30927">
        <ele>76.199996948242</ele>
        <time>2018-05-28T08:44:02.000Z</time>
      </trkpt>
      <trkpt lat="48.43469" lon="-4.30908">
        <ele>78.400001525879</ele>
        <time>2018-05-28T08:44:11.000Z</time>
      </trkpt>
      <trkpt lat="48.43475" lon="-4.30901">
        <ele>79.199996948242</ele>
        <time>2018-05-28T08:44:15.000Z</time>
      </trkpt>
      <trkpt lat="48.43485" lon="-4.30883">
        <ele>81</ele>
        <time>2018-05-28T08:44:21.000Z</time>
      </trkpt>
      <trkpt lat="48.43498" lon="-4.30863">
        <ele>83.199996948242</ele>
        <time>2018-05-28T08:44:28.000Z</time>
      </trkpt>
      <trkpt lat="48.43504" lon="-4.30852">
        <ele>84</ele>
        <time>2018-05-28T08:44:33.000Z</time>
      </trkpt>
      <trkpt lat="48.43509" lon="-4.30838">
        <ele>84.599998474121</ele>
        <time>2018-05-28T08:44:38.000Z</time>
      </trkpt>
      <trkpt lat="48.43517" lon="-4.30827">
        <ele>85.400001525879</ele>
        <time>2018-05-28T08:44:42.000Z</time>
      </trkpt>
      <trkpt lat="48.43525" lon="-4.30813">
        <ele>85.800003051758</ele>
        <time>2018-05-28T08:44:46.000Z</time>
      </trkpt>
      <trkpt lat="48.43531" lon="-4.30794">
        <ele>86.199996948242</ele>
        <time>2018-05-28T08:44:51.000Z</time>
      </trkpt>
      <trkpt lat="48.43535" lon="-4.3078">
        <ele>86.400001525879</ele>
        <time>2018-05-28T08:44:55.000Z</time>
      </trkpt>
      <trkpt lat="48.43539" lon="-4.30767">
        <ele>87</ele>
        <time>2018-05-28T08:44:59.000Z</time>
      </trkpt>
      <trkpt lat="48.43552" lon="-4.30745">
        <ele>88.199996948242</ele>
        <time>2018-05-28T08:45:06.000Z</time>
      </trkpt>
      <trkpt lat="48.43556" lon="-4.30743">
        <ele>88.199996948242</ele>
        <time>2018-05-28T08:45:08.000Z</time>
      </trkpt>
      <trkpt lat="48.43572" lon="-4.30756">
        <ele>88.199996948242</ele>
        <time>2018-05-28T08:45:15.000Z</time>
      </trkpt>
      <trkpt lat="48.43574" lon="-4.30759">
        <ele>88.199996948242</ele>
        <time>2018-05-28T08:45:16.000Z</time>
      </trkpt>
      <trkpt lat="48.43594" lon="-4.30772">
        <ele>88.199996948242</ele>
        <time>2018-05-28T08:45:21.000Z</time>
      </trkpt>
      <trkpt lat="48.43598" lon="-4.30775">
        <ele>88.199996948242</ele>
        <time>2018-05-28T08:45:22.000Z</time>
      </trkpt>
      <trkpt lat="48.43616" lon="-4.30788">
        <ele>87.800003051758</ele>
        <time>2018-05-28T08:45:25.000Z</time>
      </trkpt>
      <trkpt lat="48.43632" lon="-4.30805">
        <ele>86.599998474121</ele>
        <time>2018-05-28T08:45:30.000Z</time>
      </trkpt>
      <trkpt lat="48.43642" lon="-4.3082">
        <ele>85.800003051758</ele>
        <time>2018-05-28T08:45:33.000Z</time>
      </trkpt>
      <trkpt lat="48.4365" lon="-4.30817">
        <ele>86</ele>
        <time>2018-05-28T08:45:37.000Z</time>
      </trkpt>
      <trkpt lat="48.43652" lon="-4.30811">
        <ele>86.599998474121</ele>
        <time>2018-05-28T08:45:39.000Z</time>
      </trkpt>
      <trkpt lat="48.43654" lon="-4.30805">
        <ele>87.199996948242</ele>
        <time>2018-05-28T08:45:41.000Z</time>
      </trkpt>
      <trkpt lat="48.43666" lon="-4.308">
        <ele>87.800003051758</ele>
        <time>2018-05-28T08:45:46.000Z</time>
      </trkpt>
      <trkpt lat="48.43676" lon="-4.30787">
        <ele>89.199996948242</ele>
        <time>2018-05-28T08:45:50.000Z</time>
      </trkpt>
      <trkpt lat="48.43689" lon="-4.30764">
        <ele>90.400001525879</ele>
        <time>2018-05-28T08:45:57.000Z</time>
      </trkpt>
      <trkpt lat="48.43707" lon="-4.30757">
        <ele>90.800003051758</ele>
        <time>2018-05-28T08:46:03.000Z</time>
      </trkpt>
      <trkpt lat="48.43723" lon="-4.30755">
        <ele>90.599998474121</ele>
        <time>2018-05-28T08:46:07.000Z</time>
      </trkpt>
      <trkpt lat="48.43728" lon="-4.30758">
        <ele>90.599998474121</ele>
        <time>2018-05-28T08:46:08.000Z</time>
      </trkpt>
      <trkpt lat="48.43746" lon="-4.30758">
        <ele>90.400001525879</ele>
        <time>2018-05-28T08:46:12.000Z</time>
      </trkpt>
      <trkpt lat="48.43756" lon="-4.30752">
        <ele>90.400001525879</ele>
        <time>2018-05-28T08:46:15.000Z</time>
      </trkpt>
      <trkpt lat="48.43776" lon="-4.30756">
        <ele>90.199996948242</ele>
        <time>2018-05-28T08:46:20.000Z</time>
      </trkpt>
      <trkpt lat="48.43785" lon="-4.30754">
        <ele>90.199996948242</ele>
        <time>2018-05-28T08:46:22.000Z</time>
      </trkpt>
      <trkpt lat="48.43799" lon="-4.30747">
        <ele>90.599998474121</ele>
        <time>2018-05-28T08:46:26.000Z</time>
      </trkpt>
      <trkpt lat="48.43802" lon="-4.3074">
        <ele>91</ele>
        <time>2018-05-28T08:46:28.000Z</time>
      </trkpt>
      <trkpt lat="48.43821" lon="-4.30737">
        <ele>90.800003051758</ele>
        <time>2018-05-28T08:46:33.000Z</time>
      </trkpt>
      <trkpt lat="48.4383" lon="-4.30729">
        <ele>91.199996948242</ele>
        <time>2018-05-28T08:46:36.000Z</time>
      </trkpt>
      <trkpt lat="48.43829" lon="-4.30689">
        <ele>92.800003051758</ele>
        <time>2018-05-28T08:46:43.000Z</time>
      </trkpt>
      <trkpt lat="48.43827" lon="-4.30661">
        <ele>92.199996948242</ele>
        <time>2018-05-28T08:46:47.000Z</time>
      </trkpt>
      <trkpt lat="48.43829" lon="-4.30645">
        <ele>91.800003051758</ele>
        <time>2018-05-28T08:46:49.000Z</time>
      </trkpt>
      <trkpt lat="48.43827" lon="-4.30608">
        <ele>91.599998474121</ele>
        <time>2018-05-28T08:46:53.000Z</time>
      </trkpt>
      <trkpt lat="48.43822" lon="-4.30563">
        <ele>89.599998474121</ele>
        <time>2018-05-28T08:46:58.000Z</time>
      </trkpt>
      <trkpt lat="48.43821" lon="-4.30517">
        <ele>89.599998474121</ele>
        <time>2018-05-28T08:47:03.000Z</time>
      </trkpt>
      <trkpt lat="48.43821" lon="-4.30508">
        <ele>89.199996948242</ele>
        <time>2018-05-28T08:47:04.000Z</time>
      </trkpt>
      <trkpt lat="48.43824" lon="-4.30482">
        <ele>88</ele>
        <time>2018-05-28T08:47:07.000Z</time>
      </trkpt>
      <trkpt lat="48.43832" lon="-4.30448">
        <ele>85.800003051758</ele>
        <time>2018-05-28T08:47:11.000Z</time>
      </trkpt>
      <trkpt lat="48.43839" lon="-4.30407">
        <ele>85</ele>
        <time>2018-05-28T08:47:15.000Z</time>
      </trkpt>
      <trkpt lat="48.43848" lon="-4.30346">
        <ele>84.199996948242</ele>
        <time>2018-05-28T08:47:21.000Z</time>
      </trkpt>
      <trkpt lat="48.43853" lon="-4.30286">
        <ele>84.800003051758</ele>
        <time>2018-05-28T08:47:26.000Z</time>
      </trkpt>
      <trkpt lat="48.43857" lon="-4.30267">
        <ele>85.400001525879</ele>
        <time>2018-05-28T08:47:28.000Z</time>
      </trkpt>
      <trkpt lat="48.43863" lon="-4.3023">
        <ele>87.800003051758</ele>
        <time>2018-05-28T08:47:32.000Z</time>
      </trkpt>
      <trkpt lat="48.4387" lon="-4.30181">
        <ele>90.199996948242</ele>
        <time>2018-05-28T08:47:37.000Z</time>
      </trkpt>
      <trkpt lat="48.43873" lon="-4.30171">
        <ele>90.199996948242</ele>
        <time>2018-05-28T08:47:38.000Z</time>
      </trkpt>
      <trkpt lat="48.43881" lon="-4.30145">
        <ele>90.599998474121</ele>
        <time>2018-05-28T08:47:41.000Z</time>
      </trkpt>
      <trkpt lat="48.439" lon="-4.30092">
        <ele>89.800003051758</ele>
        <time>2018-05-28T08:47:47.000Z</time>
      </trkpt>
      <trkpt lat="48.43905" lon="-4.30072">
        <ele>89</ele>
        <time>2018-05-28T08:47:49.000Z</time>
      </trkpt>
      <trkpt lat="48.43913" lon="-4.3006">
        <ele>88.199996948242</ele>
        <time>2018-05-28T08:47:51.000Z</time>
      </trkpt>
      <trkpt lat="48.4394" lon="-4.30041">
        <ele>85.599998474121</ele>
        <time>2018-05-28T08:47:55.000Z</time>
      </trkpt>
      <trkpt lat="48.43967" lon="-4.3001">
        <ele>82.400001525879</ele>
        <time>2018-05-28T08:47:59.000Z</time>
      </trkpt>
      <trkpt lat="48.43981" lon="-4.29965">
        <ele>80</ele>
        <time>2018-05-28T08:48:03.000Z</time>
      </trkpt>
      <trkpt lat="48.43996" lon="-4.29943">
        <ele>78.400001525879</ele>
        <time>2018-05-28T08:48:05.000Z</time>
      </trkpt>
      <trkpt lat="48.44035" lon="-4.29885">
        <ele>77.199996948242</ele>
        <time>2018-05-28T08:48:11.000Z</time>
      </trkpt>
      <trkpt lat="48.44062" lon="-4.29846">
        <ele>76</ele>
        <time>2018-05-28T08:48:16.000Z</time>
      </trkpt>
      <trkpt lat="48.4407" lon="-4.29831">
        <ele>75.599998474121</ele>
        <time>2018-05-28T08:48:18.000Z</time>
      </trkpt>
      <trkpt lat="48.44081" lon="-4.29793">
        <ele>75.400001525879</ele>
        <time>2018-05-28T08:48:22.000Z</time>
      </trkpt>
      <trkpt lat="48.44088" lon="-4.2976">
        <ele>76.599998474121</ele>
        <time>2018-05-28T08:48:25.000Z</time>
      </trkpt>
      <trkpt lat="48.4411" lon="-4.297">
        <ele>79</ele>
        <time>2018-05-28T08:48:31.000Z</time>
      </trkpt>
      <trkpt lat="48.44127" lon="-4.2967">
        <ele>79.599998474121</ele>
        <time>2018-05-28T08:48:36.000Z</time>
      </trkpt>
      <trkpt lat="48.44135" lon="-4.29637">
        <ele>80.400001525879</ele>
        <time>2018-05-28T08:48:41.000Z</time>
      </trkpt>
      <trkpt lat="48.44137" lon="-4.2962">
        <ele>81</ele>
        <time>2018-05-28T08:48:43.000Z</time>
      </trkpt>
      <trkpt lat="48.4415" lon="-4.29592">
        <ele>80.800003051758</ele>
        <time>2018-05-28T08:48:47.000Z</time>
      </trkpt>
      <trkpt lat="48.44157" lon="-4.29579">
        <ele>80.599998474121</ele>
        <time>2018-05-28T08:48:49.000Z</time>
      </trkpt>
      <trkpt lat="48.44167" lon="-4.29569">
        <ele>80.199996948242</ele>
        <time>2018-05-28T08:48:52.000Z</time>
      </trkpt>
      <trkpt lat="48.44176" lon="-4.29569">
        <ele>79.800003051758</ele>
        <time>2018-05-28T08:48:54.000Z</time>
      </trkpt>
      <trkpt lat="48.44202" lon="-4.29569">
        <ele>78.199996948242</ele>
        <time>2018-05-28T08:48:59.000Z</time>
      </trkpt>
      <trkpt lat="48.44213" lon="-4.29567">
        <ele>77.400001525879</ele>
        <time>2018-05-28T08:49:03.000Z</time>
      </trkpt>
      <trkpt lat="48.44215" lon="-4.29564">
        <ele>77.199996948242</ele>
        <time>2018-05-28T08:49:05.000Z</time>
      </trkpt>
      <trkpt lat="48.44222" lon="-4.29564">
        <ele>76.800003051758</ele>
        <time>2018-05-28T08:49:14.000Z</time>
      </trkpt>
      <trkpt lat="48.44224" lon="-4.29565">
        <ele>76.599998474121</ele>
        <time>2018-05-28T08:49:15.000Z</time>
      </trkpt>
      <trkpt lat="48.4423" lon="-4.29566">
        <ele>76.199996948242</ele>
        <time>2018-05-28T08:49:17.000Z</time>
      </trkpt>
      <trkpt lat="48.44234" lon="-4.29572">
        <ele>75.599998474121</ele>
        <time>2018-05-28T08:49:21.000Z</time>
      </trkpt>
      <trkpt lat="48.44251" lon="-4.29579">
        <ele>74</ele>
        <time>2018-05-28T08:49:26.000Z</time>
      </trkpt>
      <trkpt lat="48.44272" lon="-4.29584">
        <ele>71.800003051758</ele>
        <time>2018-05-28T08:49:30.000Z</time>
      </trkpt>
      <trkpt lat="48.44296" lon="-4.29589">
        <ele>68.800003051758</ele>
        <time>2018-05-28T08:49:35.000Z</time>
      </trkpt>
      <trkpt lat="48.44307" lon="-4.29591">
        <ele>67.599998474121</ele>
        <time>2018-05-28T08:49:38.000Z</time>
      </trkpt>
      <trkpt lat="48.44332" lon="-4.29582">
        <ele>64.800003051758</ele>
        <time>2018-05-28T08:49:44.000Z</time>
      </trkpt>
      <trkpt lat="48.44348" lon="-4.29568">
        <ele>63</ele>
        <time>2018-05-28T08:49:48.000Z</time>
      </trkpt>
      <trkpt lat="48.44371" lon="-4.29546">
        <ele>59.400001525879</ele>
        <time>2018-05-28T08:49:53.000Z</time>
      </trkpt>
      <trkpt lat="48.44381" lon="-4.29536">
        <ele>57.599998474121</ele>
        <time>2018-05-28T08:49:55.000Z</time>
      </trkpt>
      <trkpt lat="48.44399" lon="-4.29526">
        <ele>54.599998474121</ele>
        <time>2018-05-28T08:50:00.000Z</time>
      </trkpt>
      <trkpt lat="48.44408" lon="-4.29529">
        <ele>53</ele>
        <time>2018-05-28T08:50:02.000Z</time>
      </trkpt>
      <trkpt lat="48.44431" lon="-4.2954">
        <ele>49.200000762939</ele>
        <time>2018-05-28T08:50:06.000Z</time>
      </trkpt>
      <trkpt lat="48.44466" lon="-4.29553">
        <ele>43.400001525879</ele>
        <time>2018-05-28T08:50:12.000Z</time>
      </trkpt>
      <trkpt lat="48.44474" lon="-4.29554">
        <ele>42</ele>
        <time>2018-05-28T08:50:16.000Z</time>
      </trkpt>
      <trkpt lat="48.44471" lon="-4.29551">
        <ele>42.599998474121</ele>
        <time>2018-05-28T08:50:20.000Z</time>
      </trkpt>
      <trkpt lat="48.44472" lon="-4.29556">
        <ele>42.400001525879</ele>
        <time>2018-05-28T08:50:22.000Z</time>
      </trkpt>
      <trkpt lat="48.44472" lon="-4.29575">
        <ele>42.200000762939</ele>
        <time>2018-05-28T08:50:28.000Z</time>
      </trkpt>
      <trkpt lat="48.44472" lon="-4.2958">
        <ele>42.200000762939</ele>
        <time>2018-05-28T08:50:30.000Z</time>
      </trkpt>
      <trkpt lat="48.44467" lon="-4.29604">
        <ele>42.400001525879</ele>
        <time>2018-05-28T08:50:36.000Z</time>
      </trkpt>
      <trkpt lat="48.4446" lon="-4.29635">
        <ele>43.400001525879</ele>
        <time>2018-05-28T08:50:42.000Z</time>
      </trkpt>
      <trkpt lat="48.44457" lon="-4.29651">
        <ele>44</ele>
        <time>2018-05-28T08:50:47.000Z</time>
      </trkpt>
      <trkpt lat="48.44453" lon="-4.29669">
        <ele>44.799999237061</ele>
        <time>2018-05-28T08:50:51.000Z</time>
      </trkpt>
      <trkpt lat="48.4445" lon="-4.29688">
        <ele>45</ele>
        <time>2018-05-28T08:50:56.000Z</time>
      </trkpt>
      <trkpt lat="48.44447" lon="-4.29699">
        <ele>45.599998474121</ele>
        <time>2018-05-28T08:51:00.000Z</time>
      </trkpt>
      <trkpt lat="48.44446" lon="-4.29698">
        <ele>45.599998474121</ele>
        <time>2018-05-28T08:51:02.000Z</time>
      </trkpt>
      <trkpt lat="48.44441" lon="-4.29713">
        <ele>46.599998474121</ele>
        <time>2018-05-28T08:51:10.000Z</time>
      </trkpt>
      <trkpt lat="48.44434" lon="-4.29737">
        <ele>47.599998474121</ele>
        <time>2018-05-28T08:51:16.000Z</time>
      </trkpt>
      <trkpt lat="48.44429" lon="-4.29753">
        <ele>48.200000762939</ele>
        <time>2018-05-28T08:51:20.000Z</time>
      </trkpt>
      <trkpt lat="48.44428" lon="-4.29756">
        <ele>48.400001525879</ele>
        <time>2018-05-28T08:51:21.000Z</time>
      </trkpt>
      <trkpt lat="48.44429" lon="-4.29769">
        <ele>47.799999237061</ele>
        <time>2018-05-28T08:51:27.000Z</time>
      </trkpt>
      <trkpt lat="48.4443" lon="-4.29769">
        <ele>47.599998474121</ele>
        <time>2018-05-28T08:51:34.000Z</time>
      </trkpt>
      <trkpt lat="48.44444" lon="-4.29782">
        <ele>44.799999237061</ele>
        <time>2018-05-28T08:51:48.000Z</time>
      </trkpt>
      <trkpt lat="48.44461" lon="-4.29781">
        <ele>41.400001525879</ele>
        <time>2018-05-28T08:51:56.000Z</time>
      </trkpt>
      <trkpt lat="48.44466" lon="-4.29783">
        <ele>40.599998474121</ele>
        <time>2018-05-28T08:52:02.000Z</time>
      </trkpt>
      <trkpt lat="48.44475" lon="-4.29784">
        <ele>38.799999237061</ele>
        <time>2018-05-28T08:52:08.000Z</time>
      </trkpt>
      <trkpt lat="48.44475" lon="-4.29789">
        <ele>39</ele>
        <time>2018-05-28T08:52:12.000Z</time>
      </trkpt>
      <trkpt lat="48.44481" lon="-4.29798">
        <ele>37.799999237061</ele>
        <time>2018-05-28T08:52:16.000Z</time>
      </trkpt>
      <trkpt lat="48.44484" lon="-4.29814">
        <ele>37.400001525879</ele>
        <time>2018-05-28T08:52:20.000Z</time>
      </trkpt>
      <trkpt lat="48.44489" lon="-4.29824">
        <ele>37.599998474121</ele>
        <time>2018-05-28T08:52:24.000Z</time>
      </trkpt>
      <trkpt lat="48.44492" lon="-4.29827">
        <ele>37.599998474121</ele>
        <time>2018-05-28T08:52:29.000Z</time>
      </trkpt>
      <trkpt lat="48.445" lon="-4.29826">
        <ele>36.599998474121</ele>
        <time>2018-05-28T08:52:33.000Z</time>
      </trkpt>
      <trkpt lat="48.44516" lon="-4.29824">
        <ele>34.799999237061</ele>
        <time>2018-05-28T08:52:39.000Z</time>
      </trkpt>
      <trkpt lat="48.44526" lon="-4.29821">
        <ele>36.599998474121</ele>
        <time>2018-05-28T08:52:43.000Z</time>
      </trkpt>
      <trkpt lat="48.44539" lon="-4.29816">
        <ele>39</ele>
        <time>2018-05-28T08:52:48.000Z</time>
      </trkpt>
      <trkpt lat="48.44548" lon="-4.29825">
        <ele>41.799999237061</ele>
        <time>2018-05-28T08:52:52.000Z</time>
      </trkpt>
      <trkpt lat="48.44546" lon="-4.29837">
        <ele>42</ele>
        <time>2018-05-28T08:52:55.000Z</time>
      </trkpt>
      <trkpt lat="48.44547" lon="-4.29872">
        <ele>43</ele>
        <time>2018-05-28T08:53:02.000Z</time>
      </trkpt>
      <trkpt lat="48.44549" lon="-4.29894">
        <ele>45.200000762939</ele>
        <time>2018-05-28T08:53:06.000Z</time>
      </trkpt>
      <trkpt lat="48.44552" lon="-4.29921">
        <ele>47</ele>
        <time>2018-05-28T08:53:11.000Z</time>
      </trkpt>
      <trkpt lat="48.44559" lon="-4.29942">
        <ele>46.599998474121</ele>
        <time>2018-05-28T08:53:15.000Z</time>
      </trkpt>
      <trkpt lat="48.44562" lon="-4.29955">
        <ele>46.799999237061</ele>
        <time>2018-05-28T08:53:17.000Z</time>
      </trkpt>
      <trkpt lat="48.44571" lon="-4.29974">
        <ele>47.599998474121</ele>
        <time>2018-05-28T08:53:20.000Z</time>
      </trkpt>
      <trkpt lat="48.44575" lon="-4.29986">
        <ele>46.799999237061</ele>
        <time>2018-05-28T08:53:22.000Z</time>
      </trkpt>
      <trkpt lat="48.44584" lon="-4.30002">
        <ele>45</ele>
        <time>2018-05-28T08:53:25.000Z</time>
      </trkpt>
      <trkpt lat="48.44597" lon="-4.30023">
        <ele>42.599998474121</ele>
        <time>2018-05-28T08:53:29.000Z</time>
      </trkpt>
      <trkpt lat="48.44617" lon="-4.30061">
        <ele>46.200000762939</ele>
        <time>2018-05-28T08:53:35.000Z</time>
      </trkpt>
      <trkpt lat="48.44624" lon="-4.30073">
        <ele>47.799999237061</ele>
        <time>2018-05-28T08:53:37.000Z</time>
      </trkpt>
      <trkpt lat="48.44636" lon="-4.30092">
        <ele>47.799999237061</ele>
        <time>2018-05-28T08:53:41.000Z</time>
      </trkpt>
      <trkpt lat="48.44654" lon="-4.30098">
        <ele>47</ele>
        <time>2018-05-28T08:53:48.000Z</time>
      </trkpt>
      <trkpt lat="48.44665" lon="-4.301">
        <ele>46.799999237061</ele>
        <time>2018-05-28T08:53:53.000Z</time>
      </trkpt>
      <trkpt lat="48.44676" lon="-4.30094">
        <ele>48</ele>
        <time>2018-05-28T08:53:59.000Z</time>
      </trkpt>
      <trkpt lat="48.44682" lon="-4.30093">
        <ele>48</ele>
        <time>2018-05-28T08:54:01.000Z</time>
      </trkpt>
      <trkpt lat="48.44709" lon="-4.30093">
        <ele>49.799999237061</ele>
        <time>2018-05-28T08:54:08.000Z</time>
      </trkpt>
      <trkpt lat="48.44727" lon="-4.30097">
        <ele>49.599998474121</ele>
        <time>2018-05-28T08:54:12.000Z</time>
      </trkpt>
      <trkpt lat="48.44731" lon="-4.30097">
        <ele>49.799999237061</ele>
        <time>2018-05-28T08:54:13.000Z</time>
      </trkpt>
      <trkpt lat="48.44747" lon="-4.30102">
        <ele>49.599998474121</ele>
        <time>2018-05-28T08:54:18.000Z</time>
      </trkpt>
      <trkpt lat="48.44764" lon="-4.3011">
        <ele>48.599998474121</ele>
        <time>2018-05-28T08:54:24.000Z</time>
      </trkpt>
      <trkpt lat="48.44776" lon="-4.3011">
        <ele>48</ele>
        <time>2018-05-28T08:54:28.000Z</time>
      </trkpt>
      <trkpt lat="48.44782" lon="-4.30108">
        <ele>48</ele>
        <time>2018-05-28T08:54:30.000Z</time>
      </trkpt>
      <trkpt lat="48.44797" lon="-4.30103">
        <ele>48.200000762939</ele>
        <time>2018-05-28T08:54:34.000Z</time>
      </trkpt>
      <trkpt lat="48.44807" lon="-4.30095">
        <ele>49.200000762939</ele>
        <time>2018-05-28T08:54:37.000Z</time>
      </trkpt>
      <trkpt lat="48.44828" lon="-4.30076">
        <ele>51.400001525879</ele>
        <time>2018-05-28T08:54:43.000Z</time>
      </trkpt>
      <trkpt lat="48.44843" lon="-4.30062">
        <ele>53</ele>
        <time>2018-05-28T08:54:47.000Z</time>
      </trkpt>
      <trkpt lat="48.44852" lon="-4.30053">
        <ele>54</ele>
        <time>2018-05-28T08:54:50.000Z</time>
      </trkpt>
      <trkpt lat="48.44869" lon="-4.30041">
        <ele>54.599998474121</ele>
        <time>2018-05-28T08:54:54.000Z</time>
      </trkpt>
      <trkpt lat="48.44877" lon="-4.30035">
        <ele>55.200000762939</ele>
        <time>2018-05-28T08:55:00.000Z</time>
      </trkpt>
      <trkpt lat="48.44878" lon="-4.30043">
        <ele>53.799999237061</ele>
        <time>2018-05-28T08:55:02.000Z</time>
      </trkpt>
      <trkpt lat="48.44875" lon="-4.30078">
        <ele>48</ele>
        <time>2018-05-28T08:55:07.000Z</time>
      </trkpt>
      <trkpt lat="48.44878" lon="-4.30105">
        <ele>45.200000762939</ele>
        <time>2018-05-28T08:55:10.000Z</time>
      </trkpt>
      <trkpt lat="48.4489" lon="-4.30135">
        <ele>45.200000762939</ele>
        <time>2018-05-28T08:55:14.000Z</time>
      </trkpt>
      <trkpt lat="48.44896" lon="-4.30151">
        <ele>45.599998474121</ele>
        <time>2018-05-28T08:55:16.000Z</time>
      </trkpt>
      <trkpt lat="48.44904" lon="-4.30169">
        <ele>45.400001525879</ele>
        <time>2018-05-28T08:55:19.000Z</time>
      </trkpt>
      <trkpt lat="48.44906" lon="-4.30181">
        <ele>45.200000762939</ele>
        <time>2018-05-28T08:55:23.000Z</time>
      </trkpt>
      <trkpt lat="48.44896" lon="-4.30204">
        <ele>46</ele>
        <time>2018-05-28T08:55:30.000Z</time>
      </trkpt>
      <trkpt lat="48.44883" lon="-4.30208">
        <ele>46.599998474121</ele>
        <time>2018-05-28T08:55:38.000Z</time>
      </trkpt>
      <trkpt lat="48.44869" lon="-4.30214">
        <ele>47.400001525879</ele>
        <time>2018-05-28T08:55:46.000Z</time>
      </trkpt>
      <trkpt lat="48.44858" lon="-4.30223">
        <ele>48.400001525879</ele>
        <time>2018-05-28T08:55:53.000Z</time>
      </trkpt>
      <trkpt lat="48.44845" lon="-4.30231">
        <ele>49.599998474121</ele>
        <time>2018-05-28T08:56:00.000Z</time>
      </trkpt>
      <trkpt lat="48.44829" lon="-4.30228">
        <ele>49.799999237061</ele>
        <time>2018-05-28T08:56:07.000Z</time>
      </trkpt>
      <trkpt lat="48.44822" lon="-4.30229">
        <ele>50.200000762939</ele>
        <time>2018-05-28T08:56:11.000Z</time>
      </trkpt>
      <trkpt lat="48.44815" lon="-4.30223">
        <ele>50.200000762939</ele>
        <time>2018-05-28T08:56:15.000Z</time>
      </trkpt>
      <trkpt lat="48.44811" lon="-4.30223">
        <ele>50.599998474121</ele>
        <time>2018-05-28T08:56:19.000Z</time>
      </trkpt>
      <trkpt lat="48.44806" lon="-4.30219">
        <ele>50.799999237061</ele>
        <time>2018-05-28T08:56:23.000Z</time>
      </trkpt>
      <trkpt lat="48.44797" lon="-4.30212">
        <ele>51</ele>
        <time>2018-05-28T08:56:31.000Z</time>
      </trkpt>
      <trkpt lat="48.4479" lon="-4.30203">
        <ele>51.200000762939</ele>
        <time>2018-05-28T08:56:37.000Z</time>
      </trkpt>
      <trkpt lat="48.44789" lon="-4.30202">
        <ele>51.200000762939</ele>
        <time>2018-05-28T08:56:38.000Z</time>
      </trkpt>
      <trkpt lat="48.44785" lon="-4.30198">
        <ele>51.200000762939</ele>
        <time>2018-05-28T08:56:42.000Z</time>
      </trkpt>
      <trkpt lat="48.44772" lon="-4.30197">
        <ele>52.400001525879</ele>
        <time>2018-05-28T08:56:50.000Z</time>
      </trkpt>
      <trkpt lat="48.44769" lon="-4.30208">
        <ele>53.400001525879</ele>
        <time>2018-05-28T08:56:56.000Z</time>
      </trkpt>
      <trkpt lat="48.44776" lon="-4.30218">
        <ele>53.599998474121</ele>
        <time>2018-05-28T08:57:02.000Z</time>
      </trkpt>
      <trkpt lat="48.44789" lon="-4.30237">
        <ele>53.799999237061</ele>
        <time>2018-05-28T08:57:09.000Z</time>
      </trkpt>
      <trkpt lat="48.44797" lon="-4.30251">
        <ele>54</ele>
        <time>2018-05-28T08:57:13.000Z</time>
      </trkpt>
      <trkpt lat="48.44808" lon="-4.30268">
        <ele>55.799999237061</ele>
        <time>2018-05-28T08:57:18.000Z</time>
      </trkpt>
      <trkpt lat="48.44813" lon="-4.30277">
        <ele>57</ele>
        <time>2018-05-28T08:57:22.000Z</time>
      </trkpt>
      <trkpt lat="48.44822" lon="-4.30292">
        <ele>57.599998474121</ele>
        <time>2018-05-28T08:57:27.000Z</time>
      </trkpt>
      <trkpt lat="48.44836" lon="-4.3031">
        <ele>58.400001525879</ele>
        <time>2018-05-28T08:57:34.000Z</time>
      </trkpt>
      <trkpt lat="48.44848" lon="-4.30322">
        <ele>59</ele>
        <time>2018-05-28T08:57:40.000Z</time>
      </trkpt>
      <trkpt lat="48.44856" lon="-4.30331">
        <ele>59.599998474121</ele>
        <time>2018-05-28T08:57:44.000Z</time>
      </trkpt>
      <trkpt lat="48.44868" lon="-4.30344">
        <ele>60.400001525879</ele>
        <time>2018-05-28T08:57:51.000Z</time>
      </trkpt>
      <trkpt lat="48.44873" lon="-4.30349">
        <ele>60.799999237061</ele>
        <time>2018-05-28T08:57:55.000Z</time>
      </trkpt>
      <trkpt lat="48.44878" lon="-4.30353">
        <ele>61.200000762939</ele>
        <time>2018-05-28T08:58:00.000Z</time>
      </trkpt>
      <trkpt lat="48.44891" lon="-4.30365">
        <ele>62.200000762939</ele>
        <time>2018-05-28T08:58:06.000Z</time>
      </trkpt>
      <trkpt lat="48.44896" lon="-4.30372">
        <ele>62.400001525879</ele>
        <time>2018-05-28T08:58:09.000Z</time>
      </trkpt>
      <trkpt lat="48.44908" lon="-4.30381">
        <ele>63</ele>
        <time>2018-05-28T08:58:16.000Z</time>
      </trkpt>
      <trkpt lat="48.44919" lon="-4.3039">
        <ele>63.599998474121</ele>
        <time>2018-05-28T08:58:23.000Z</time>
      </trkpt>
      <trkpt lat="48.44927" lon="-4.30398">
        <ele>64</ele>
        <time>2018-05-28T08:58:28.000Z</time>
      </trkpt>
      <trkpt lat="48.44937" lon="-4.30404">
        <ele>64.400001525879</ele>
        <time>2018-05-28T08:58:34.000Z</time>
      </trkpt>
      <trkpt lat="48.44951" lon="-4.30415">
        <ele>64.599998474121</ele>
        <time>2018-05-28T08:58:41.000Z</time>
      </trkpt>
      <trkpt lat="48.44966" lon="-4.30429">
        <ele>65.400001525879</ele>
        <time>2018-05-28T08:58:49.000Z</time>
      </trkpt>
      <trkpt lat="48.44978" lon="-4.30441">
        <ele>66.599998474121</ele>
        <time>2018-05-28T08:58:56.000Z</time>
      </trkpt>
      <trkpt lat="48.44979" lon="-4.30443">
        <ele>66.599998474121</ele>
        <time>2018-05-28T08:58:57.000Z</time>
      </trkpt>
      <trkpt lat="48.44981" lon="-4.30444">
        <ele>66.800003051758</ele>
        <time>2018-05-28T08:59:00.000Z</time>
      </trkpt>
      <trkpt lat="48.44992" lon="-4.3045">
        <ele>67.199996948242</ele>
        <time>2018-05-28T08:59:07.000Z</time>
      </trkpt>
      <trkpt lat="48.45006" lon="-4.30457">
        <ele>67.400001525879</ele>
        <time>2018-05-28T08:59:13.000Z</time>
      </trkpt>
      <trkpt lat="48.45016" lon="-4.30468">
        <ele>68</ele>
        <time>2018-05-28T08:59:18.000Z</time>
      </trkpt>
      <trkpt lat="48.45013" lon="-4.30484">
        <ele>68.800003051758</ele>
        <time>2018-05-28T08:59:23.000Z</time>
      </trkpt>
      <trkpt lat="48.45012" lon="-4.30486">
        <ele>68.800003051758</ele>
        <time>2018-05-28T08:59:24.000Z</time>
      </trkpt>
      <trkpt lat="48.44999" lon="-4.30514">
        <ele>70</ele>
        <time>2018-05-28T08:59:33.000Z</time>
      </trkpt>
      <trkpt lat="48.44994" lon="-4.30531">
        <ele>70.800003051758</ele>
        <time>2018-05-28T08:59:38.000Z</time>
      </trkpt>
      <trkpt lat="48.44999" lon="-4.30556">
        <ele>71</ele>
        <time>2018-05-28T08:59:45.000Z</time>
      </trkpt>
      <trkpt lat="48.45013" lon="-4.30581">
        <ele>72.199996948242</ele>
        <time>2018-05-28T08:59:53.000Z</time>
      </trkpt>
      <trkpt lat="48.4503" lon="-4.30595">
        <ele>72.400001525879</ele>
        <time>2018-05-28T09:00:00.000Z</time>
      </trkpt>
      <trkpt lat="48.45047" lon="-4.30607">
        <ele>73.599998474121</ele>
        <time>2018-05-28T09:00:07.000Z</time>
      </trkpt>
      <trkpt lat="48.45062" lon="-4.30618">
        <ele>74.800003051758</ele>
        <time>2018-05-28T09:00:14.000Z</time>
      </trkpt>
      <trkpt lat="48.45072" lon="-4.3063">
        <ele>75.400001525879</ele>
        <time>2018-05-28T09:00:19.000Z</time>
      </trkpt>
      <trkpt lat="48.45083" lon="-4.30646">
        <ele>76.400001525879</ele>
        <time>2018-05-28T09:00:25.000Z</time>
      </trkpt>
      <trkpt lat="48.45097" lon="-4.30657">
        <ele>77.400001525879</ele>
        <time>2018-05-28T09:00:31.000Z</time>
      </trkpt>
      <trkpt lat="48.45117" lon="-4.30664">
        <ele>78.400001525879</ele>
        <time>2018-05-28T09:00:38.000Z</time>
      </trkpt>
      <trkpt lat="48.45137" lon="-4.30676">
        <ele>79.599998474121</ele>
        <time>2018-05-28T09:00:45.000Z</time>
      </trkpt>
      <trkpt lat="48.45164" lon="-4.30692">
        <ele>81.199996948242</ele>
        <time>2018-05-28T09:00:54.000Z</time>
      </trkpt>
      <trkpt lat="48.45176" lon="-4.30713">
        <ele>82.400001525879</ele>
        <time>2018-05-28T09:01:00.000Z</time>
      </trkpt>
      <trkpt lat="48.45189" lon="-4.30737">
        <ele>83.199996948242</ele>
        <time>2018-05-28T09:01:07.000Z</time>
      </trkpt>
      <trkpt lat="48.45206" lon="-4.30762">
        <ele>84.199996948242</ele>
        <time>2018-05-28T09:01:14.000Z</time>
      </trkpt>
      <trkpt lat="48.45227" lon="-4.30777">
        <ele>85.400001525879</ele>
        <time>2018-05-28T09:01:20.000Z</time>
      </trkpt>
      <trkpt lat="48.45245" lon="-4.30787">
        <ele>86.400001525879</ele>
        <time>2018-05-28T09:01:25.000Z</time>
      </trkpt>
      <trkpt lat="48.45257" lon="-4.30794">
        <ele>87</ele>
        <time>2018-05-28T09:01:28.000Z</time>
      </trkpt>
      <trkpt lat="48.45287" lon="-4.30817">
        <ele>86.800003051758</ele>
        <time>2018-05-28T09:01:36.000Z</time>
      </trkpt>
      <trkpt lat="48.45312" lon="-4.3084">
        <ele>86.199996948242</ele>
        <time>2018-05-28T09:01:43.000Z</time>
      </trkpt>
      <trkpt lat="48.45325" lon="-4.3085">
        <ele>85.800003051758</ele>
        <time>2018-05-28T09:01:46.000Z</time>
      </trkpt>
      <trkpt lat="48.45346" lon="-4.30862">
        <ele>85</ele>
        <time>2018-05-28T09:01:51.000Z</time>
      </trkpt>
      <trkpt lat="48.45358" lon="-4.30879">
        <ele>85.199996948242</ele>
        <time>2018-05-28T09:01:55.000Z</time>
      </trkpt>
      <trkpt lat="48.45369" lon="-4.30889">
        <ele>85</ele>
        <time>2018-05-28T09:01:58.000Z</time>
      </trkpt>
      <trkpt lat="48.45379" lon="-4.3089">
        <ele>84.599998474121</ele>
        <time>2018-05-28T09:02:00.000Z</time>
      </trkpt>
      <trkpt lat="48.45397" lon="-4.30894">
        <ele>83.800003051758</ele>
        <time>2018-05-28T09:02:04.000Z</time>
      </trkpt>
      <trkpt lat="48.45401" lon="-4.30895">
        <ele>83.599998474121</ele>
        <time>2018-05-28T09:02:08.000Z</time>
      </trkpt>
      <trkpt lat="48.45418" lon="-4.30907">
        <ele>84</ele>
        <time>2018-05-28T09:02:33.000Z</time>
      </trkpt>
      <trkpt lat="48.45435" lon="-4.30925">
        <ele>84.800003051758</ele>
        <time>2018-05-28T09:02:37.000Z</time>
      </trkpt>
      <trkpt lat="48.45468" lon="-4.30962">
        <ele>87.599998474121</ele>
        <time>2018-05-28T09:02:45.000Z</time>
      </trkpt>
      <trkpt lat="48.45486" lon="-4.30984">
        <ele>88.800003051758</ele>
        <time>2018-05-28T09:02:50.000Z</time>
      </trkpt>
      <trkpt lat="48.45493" lon="-4.30992">
        <ele>89.199996948242</ele>
        <time>2018-05-28T09:02:52.000Z</time>
      </trkpt>
      <trkpt lat="48.45508" lon="-4.3101">
        <ele>90.199996948242</ele>
        <time>2018-05-28T09:02:56.000Z</time>
      </trkpt>
      <trkpt lat="48.45535" lon="-4.31042">
        <ele>91.800003051758</ele>
        <time>2018-05-28T09:03:03.000Z</time>
      </trkpt>
      <trkpt lat="48.45575" lon="-4.31089">
        <ele>94.199996948242</ele>
        <time>2018-05-28T09:03:14.000Z</time>
      </trkpt>
      <trkpt lat="48.45605" lon="-4.31125">
        <ele>96.199996948242</ele>
        <time>2018-05-28T09:03:22.000Z</time>
      </trkpt>
      <trkpt lat="48.45612" lon="-4.31134">
        <ele>96.400001525879</ele>
        <time>2018-05-28T09:03:24.000Z</time>
      </trkpt>
      <trkpt lat="48.45644" lon="-4.31164">
        <ele>97.199996948242</ele>
        <time>2018-05-28T09:03:32.000Z</time>
      </trkpt>
      <trkpt lat="48.4568" lon="-4.31188">
        <ele>98.800003051758</ele>
        <time>2018-05-28T09:03:40.000Z</time>
      </trkpt>
      <trkpt lat="48.45713" lon="-4.312">
        <ele>98.599998474121</ele>
        <time>2018-05-28T09:03:47.000Z</time>
      </trkpt>
      <trkpt lat="48.45759" lon="-4.31202">
        <ele>98</ele>
        <time>2018-05-28T09:03:56.000Z</time>
      </trkpt>
      <trkpt lat="48.45791" lon="-4.31199">
        <ele>97.400001525879</ele>
        <time>2018-05-28T09:04:02.000Z</time>
      </trkpt>
      <trkpt lat="48.45832" lon="-4.31191">
        <ele>96.199996948242</ele>
        <time>2018-05-28T09:04:09.000Z</time>
      </trkpt>
      <trkpt lat="48.45887" lon="-4.31178">
        <ele>96</ele>
        <time>2018-05-28T09:04:18.000Z</time>
      </trkpt>
      <trkpt lat="48.45918" lon="-4.3117">
        <ele>96.199996948242</ele>
        <time>2018-05-28T09:04:23.000Z</time>
      </trkpt>
      <trkpt lat="48.45975" lon="-4.31156">
        <ele>97</ele>
        <time>2018-05-28T09:04:32.000Z</time>
      </trkpt>
      <trkpt lat="48.46022" lon="-4.31144">
        <ele>96.599998474121</ele>
        <time>2018-05-28T09:04:39.000Z</time>
      </trkpt>
      <trkpt lat="48.46076" lon="-4.3113">
        <ele>95.400001525879</ele>
        <time>2018-05-28T09:04:47.000Z</time>
      </trkpt>
      <trkpt lat="48.46125" lon="-4.31123">
        <ele>94.199996948242</ele>
        <time>2018-05-28T09:04:53.000Z</time>
      </trkpt>
      <trkpt lat="48.46133" lon="-4.31123">
        <ele>94</ele>
        <time>2018-05-28T09:04:54.000Z</time>
      </trkpt>
      <trkpt lat="48.46149" lon="-4.31126">
        <ele>93.599998474121</ele>
        <time>2018-05-28T09:04:56.000Z</time>
      </trkpt>
      <trkpt lat="48.46176" lon="-4.31151">
        <ele>93</ele>
        <time>2018-05-28T09:05:01.000Z</time>
      </trkpt>
      <trkpt lat="48.46184" lon="-4.31161">
        <ele>93</ele>
        <time>2018-05-28T09:05:03.000Z</time>
      </trkpt>
      <trkpt lat="48.46207" lon="-4.31174">
        <ele>93.400001525879</ele>
        <time>2018-05-28T09:05:08.000Z</time>
      </trkpt>
      <trkpt lat="48.46252" lon="-4.31164">
        <ele>96</ele>
        <time>2018-05-28T09:05:16.000Z</time>
      </trkpt>
      <trkpt lat="48.46289" lon="-4.31144">
        <ele>96.599998474121</ele>
        <time>2018-05-28T09:05:22.000Z</time>
      </trkpt>
      <trkpt lat="48.46301" lon="-4.31138">
        <ele>96.800003051758</ele>
        <time>2018-05-28T09:05:24.000Z</time>
      </trkpt>
      <trkpt lat="48.46313" lon="-4.31151">
        <ele>97.800003051758</ele>
        <time>2018-05-28T09:05:28.000Z</time>
      </trkpt>
      <trkpt lat="48.46311" lon="-4.31185">
        <ele>98</ele>
        <time>2018-05-28T09:05:33.000Z</time>
      </trkpt>
      <trkpt lat="48.46304" lon="-4.31229">
        <ele>97.400001525879</ele>
        <time>2018-05-28T09:05:39.000Z</time>
      </trkpt>
      <trkpt lat="48.46298" lon="-4.3126">
        <ele>96.800003051758</ele>
        <time>2018-05-28T09:05:43.000Z</time>
      </trkpt>
      <trkpt lat="48.46288" lon="-4.31322">
        <ele>96.199996948242</ele>
        <time>2018-05-28T09:05:50.000Z</time>
      </trkpt>
      <trkpt lat="48.46276" lon="-4.31368">
        <ele>95.800003051758</ele>
        <time>2018-05-28T09:05:55.000Z</time>
      </trkpt>
      <trkpt lat="48.46259" lon="-4.31398">
        <ele>95</ele>
        <time>2018-05-28T09:05:59.000Z</time>
      </trkpt>
      <trkpt lat="48.46232" lon="-4.31442">
        <ele>93.800003051758</ele>
        <time>2018-05-28T09:06:05.000Z</time>
      </trkpt>
      <trkpt lat="48.46229" lon="-4.31446">
        <ele>93.599998474121</ele>
        <time>2018-05-28T09:06:06.000Z</time>
      </trkpt>
      <trkpt lat="48.4622" lon="-4.31474">
        <ele>94.800003051758</ele>
        <time>2018-05-28T09:06:11.000Z</time>
      </trkpt>
      <trkpt lat="48.46215" lon="-4.31514">
        <ele>96.199996948242</ele>
        <time>2018-05-28T09:06:17.000Z</time>
      </trkpt>
      <trkpt lat="48.46213" lon="-4.31533">
        <ele>96.599998474121</ele>
        <time>2018-05-28T09:06:20.000Z</time>
      </trkpt>
      <trkpt lat="48.46211" lon="-4.31562">
        <ele>97.400001525879</ele>
        <time>2018-05-28T09:06:25.000Z</time>
      </trkpt>
      <trkpt lat="48.46203" lon="-4.31608">
        <ele>98.599998474121</ele>
        <time>2018-05-28T09:06:33.000Z</time>
      </trkpt>
      <trkpt lat="48.46197" lon="-4.31656">
        <ele>100.40000152588</ele>
        <time>2018-05-28T09:06:40.000Z</time>
      </trkpt>
      <trkpt lat="48.46194" lon="-4.31677">
        <ele>101.19999694824</ele>
        <time>2018-05-28T09:06:43.000Z</time>
      </trkpt>
      <trkpt lat="48.4619" lon="-4.31737">
        <ele>101.80000305176</ele>
        <time>2018-05-28T09:06:52.000Z</time>
      </trkpt>
      <trkpt lat="48.46189" lon="-4.31749">
        <ele>101.80000305176</ele>
        <time>2018-05-28T09:06:54.000Z</time>
      </trkpt>
      <trkpt lat="48.46179" lon="-4.31793">
        <ele>102.19999694824</ele>
        <time>2018-05-28T09:07:01.000Z</time>
      </trkpt>
      <trkpt lat="48.46174" lon="-4.31812">
        <ele>102.40000152588</ele>
        <time>2018-05-28T09:07:04.000Z</time>
      </trkpt>
      <trkpt lat="48.46164" lon="-4.31842">
        <ele>103</ele>
        <time>2018-05-28T09:07:09.000Z</time>
      </trkpt>
      <trkpt lat="48.46161" lon="-4.3187">
        <ele>103.40000152588</ele>
        <time>2018-05-28T09:07:13.000Z</time>
      </trkpt>
      <trkpt lat="48.46161" lon="-4.31907">
        <ele>103.59999847412</ele>
        <time>2018-05-28T09:07:18.000Z</time>
      </trkpt>
      <trkpt lat="48.46155" lon="-4.31959">
        <ele>103.59999847412</ele>
        <time>2018-05-28T09:07:25.000Z</time>
      </trkpt>
      <trkpt lat="48.46154" lon="-4.31966">
        <ele>103.59999847412</ele>
        <time>2018-05-28T09:07:26.000Z</time>
      </trkpt>
      <trkpt lat="48.46149" lon="-4.31987">
        <ele>103.59999847412</ele>
        <time>2018-05-28T09:07:29.000Z</time>
      </trkpt>
      <trkpt lat="48.4614" lon="-4.3201">
        <ele>103.59999847412</ele>
        <time>2018-05-28T09:07:33.000Z</time>
      </trkpt>
      <trkpt lat="48.46132" lon="-4.32025">
        <ele>103.59999847412</ele>
        <time>2018-05-28T09:07:36.000Z</time>
      </trkpt>
      <trkpt lat="48.46107" lon="-4.32069">
        <ele>103.19999694824</ele>
        <time>2018-05-28T09:07:43.000Z</time>
      </trkpt>
      <trkpt lat="48.46085" lon="-4.32102">
        <ele>103.19999694824</ele>
        <time>2018-05-28T09:07:47.000Z</time>
      </trkpt>
      <trkpt lat="48.46075" lon="-4.32114">
        <ele>103.19999694824</ele>
        <time>2018-05-28T09:07:49.000Z</time>
      </trkpt>
      <trkpt lat="48.46061" lon="-4.3214">
        <ele>103.59999847412</ele>
        <time>2018-05-28T09:07:53.000Z</time>
      </trkpt>
      <trkpt lat="48.46056" lon="-4.32184">
        <ele>103.59999847412</ele>
        <time>2018-05-28T09:08:00.000Z</time>
      </trkpt>
      <trkpt lat="48.46054" lon="-4.32201">
        <ele>103.80000305176</ele>
        <time>2018-05-28T09:08:03.000Z</time>
      </trkpt>
      <trkpt lat="48.46056" lon="-4.32241">
        <ele>104.59999847412</ele>
        <time>2018-05-28T09:08:10.000Z</time>
      </trkpt>
      <trkpt lat="48.46058" lon="-4.32278">
        <ele>105.40000152588</ele>
        <time>2018-05-28T09:08:16.000Z</time>
      </trkpt>
      <trkpt lat="48.46059" lon="-4.32321">
        <ele>106</ele>
        <time>2018-05-28T09:08:22.000Z</time>
      </trkpt>
      <trkpt lat="48.46056" lon="-4.32352">
        <ele>106.80000305176</ele>
        <time>2018-05-28T09:08:26.000Z</time>
      </trkpt>
      <trkpt lat="48.46047" lon="-4.32373">
        <ele>107.40000152588</ele>
        <time>2018-05-28T09:08:30.000Z</time>
      </trkpt>
      <trkpt lat="48.46043" lon="-4.32374">
        <ele>107.59999847412</ele>
        <time>2018-05-28T09:08:31.000Z</time>
      </trkpt>
      <trkpt lat="48.46002" lon="-4.32372">
        <ele>108.59999847412</ele>
        <time>2018-05-28T09:08:40.000Z</time>
      </trkpt>
      <trkpt lat="48.4596" lon="-4.32375">
        <ele>110</ele>
        <time>2018-05-28T09:08:49.000Z</time>
      </trkpt>
      <trkpt lat="48.45951" lon="-4.32375">
        <ele>110.40000152588</ele>
        <time>2018-05-28T09:08:51.000Z</time>
      </trkpt>
      <trkpt lat="48.4594" lon="-4.32392">
        <ele>110.80000305176</ele>
        <time>2018-05-28T09:08:55.000Z</time>
      </trkpt>
      <trkpt lat="48.45935" lon="-4.32418">
        <ele>111</ele>
        <time>2018-05-28T09:08:59.000Z</time>
      </trkpt>
      <trkpt lat="48.4593" lon="-4.32454">
        <ele>111.19999694824</ele>
        <time>2018-05-28T09:09:04.000Z</time>
      </trkpt>
      <trkpt lat="48.45926" lon="-4.32501">
        <ele>111.40000152588</ele>
        <time>2018-05-28T09:09:11.000Z</time>
      </trkpt>
      <trkpt lat="48.45919" lon="-4.32536">
        <ele>111.80000305176</ele>
        <time>2018-05-28T09:09:16.000Z</time>
      </trkpt>
      <trkpt lat="48.45916" lon="-4.32551">
        <ele>112.19999694824</ele>
        <time>2018-05-28T09:09:18.000Z</time>
      </trkpt>
      <trkpt lat="48.45903" lon="-4.32574">
        <ele>113.40000152588</ele>
        <time>2018-05-28T09:09:22.000Z</time>
      </trkpt>
      <trkpt lat="48.45892" lon="-4.32596">
        <ele>114.19999694824</ele>
        <time>2018-05-28T09:09:26.000Z</time>
      </trkpt>
      <trkpt lat="48.45887" lon="-4.32617">
        <ele>114.80000305176</ele>
        <time>2018-05-28T09:09:29.000Z</time>
      </trkpt>
      <trkpt lat="48.45882" lon="-4.32643">
        <ele>115.40000152588</ele>
        <time>2018-05-28T09:09:33.000Z</time>
      </trkpt>
      <trkpt lat="48.45882" lon="-4.32664">
        <ele>115.59999847412</ele>
        <time>2018-05-28T09:09:36.000Z</time>
      </trkpt>
      <trkpt lat="48.45876" lon="-4.32684">
        <ele>116.19999694824</ele>
        <time>2018-05-28T09:09:41.000Z</time>
      </trkpt>
      <trkpt lat="48.45876" lon="-4.32699">
        <ele>116.19999694824</ele>
        <time>2018-05-28T09:09:46.000Z</time>
      </trkpt>
      <trkpt lat="48.4588" lon="-4.32723">
        <ele>116</ele>
        <time>2018-05-28T09:09:50.000Z</time>
      </trkpt>
      <trkpt lat="48.45888" lon="-4.32765">
        <ele>116.40000152588</ele>
        <time>2018-05-28T09:09:58.000Z</time>
      </trkpt>
      <trkpt lat="48.45895" lon="-4.32801">
        <ele>116.19999694824</ele>
        <time>2018-05-28T09:10:05.000Z</time>
      </trkpt>
      <trkpt lat="48.45901" lon="-4.32826">
        <ele>116.40000152588</ele>
        <time>2018-05-28T09:10:10.000Z</time>
      </trkpt>
      <trkpt lat="48.45906" lon="-4.32865">
        <ele>117.59999847412</ele>
        <time>2018-05-28T09:10:17.000Z</time>
      </trkpt>
      <trkpt lat="48.45909" lon="-4.32913">
        <ele>117.19999694824</ele>
        <time>2018-05-28T09:10:25.000Z</time>
      </trkpt>
      <trkpt lat="48.45911" lon="-4.32955">
        <ele>116.80000305176</ele>
        <time>2018-05-28T09:10:32.000Z</time>
      </trkpt>
      <trkpt lat="48.45911" lon="-4.32961">
        <ele>116.80000305176</ele>
        <time>2018-05-28T09:10:33.000Z</time>
      </trkpt>
      <trkpt lat="48.45915" lon="-4.33004">
        <ele>115.59999847412</ele>
        <time>2018-05-28T09:10:39.000Z</time>
      </trkpt>
      <trkpt lat="48.45918" lon="-4.33034">
        <ele>114.80000305176</ele>
        <time>2018-05-28T09:10:43.000Z</time>
      </trkpt>
      <trkpt lat="48.4592" lon="-4.331">
        <ele>114</ele>
        <time>2018-05-28T09:10:52.000Z</time>
      </trkpt>
      <trkpt lat="48.45923" lon="-4.3315">
        <ele>115.19999694824</ele>
        <time>2018-05-28T09:10:59.000Z</time>
      </trkpt>
      <trkpt lat="48.45927" lon="-4.33209">
        <ele>117.59999847412</ele>
        <time>2018-05-28T09:11:07.000Z</time>
      </trkpt>
      <trkpt lat="48.4593" lon="-4.33265">
        <ele>119.59999847412</ele>
        <time>2018-05-28T09:11:15.000Z</time>
      </trkpt>
      <trkpt lat="48.4593" lon="-4.33272">
        <ele>119.80000305176</ele>
        <time>2018-05-28T09:11:16.000Z</time>
      </trkpt>
      <trkpt lat="48.45923" lon="-4.33295">
        <ele>120.59999847412</ele>
        <time>2018-05-28T09:11:20.000Z</time>
      </trkpt>
      <trkpt lat="48.45919" lon="-4.33298">
        <ele>120.59999847412</ele>
        <time>2018-05-28T09:11:21.000Z</time>
      </trkpt>
      <trkpt lat="48.45907" lon="-4.33307">
        <ele>121.19999694824</ele>
        <time>2018-05-28T09:11:24.000Z</time>
      </trkpt>
      <trkpt lat="48.459" lon="-4.33315">
        <ele>121.59999847412</ele>
        <time>2018-05-28T09:11:26.000Z</time>
      </trkpt>
      <trkpt lat="48.45878" lon="-4.33352">
        <ele>122.80000305176</ele>
        <time>2018-05-28T09:11:33.000Z</time>
      </trkpt>
      <trkpt lat="48.45859" lon="-4.33386">
        <ele>124.19999694824</ele>
        <time>2018-05-28T09:11:40.000Z</time>
      </trkpt>
      <trkpt lat="48.4584" lon="-4.33423">
        <ele>125.40000152588</ele>
        <time>2018-05-28T09:11:47.000Z</time>
      </trkpt>
      <trkpt lat="48.45814" lon="-4.33472">
        <ele>126.19999694824</ele>
        <time>2018-05-28T09:11:56.000Z</time>
      </trkpt>
      <trkpt lat="48.45806" lon="-4.33496">
        <ele>126.59999847412</ele>
        <time>2018-05-28T09:12:01.000Z</time>
      </trkpt>
      <trkpt lat="48.45805" lon="-4.33505">
        <ele>126.59999847412</ele>
        <time>2018-05-28T09:12:04.000Z</time>
      </trkpt>
      <trkpt lat="48.45799" lon="-4.33539">
        <ele>127</ele>
        <time>2018-05-28T09:12:10.000Z</time>
      </trkpt>
      <trkpt lat="48.45793" lon="-4.33592">
        <ele>127</ele>
        <time>2018-05-28T09:12:17.000Z</time>
      </trkpt>
      <trkpt lat="48.45787" lon="-4.33664">
        <ele>127.59999847412</ele>
        <time>2018-05-28T09:12:25.000Z</time>
      </trkpt>
      <trkpt lat="48.45782" lon="-4.33748">
        <ele>127.80000305176</ele>
        <time>2018-05-28T09:12:34.000Z</time>
      </trkpt>
      <trkpt lat="48.45774" lon="-4.33822">
        <ele>128</ele>
        <time>2018-05-28T09:12:42.000Z</time>
      </trkpt>
      <trkpt lat="48.4577" lon="-4.33858">
        <ele>128</ele>
        <time>2018-05-28T09:12:46.000Z</time>
      </trkpt>
      <trkpt lat="48.45764" lon="-4.33922">
        <ele>128.60000610352</ele>
        <time>2018-05-28T09:12:53.000Z</time>
      </trkpt>
      <trkpt lat="48.45755" lon="-4.33995">
        <ele>128.60000610352</ele>
        <time>2018-05-28T09:13:01.000Z</time>
      </trkpt>
      <trkpt lat="48.45752" lon="-4.34031">
        <ele>128.19999694824</ele>
        <time>2018-05-28T09:13:05.000Z</time>
      </trkpt>
      <trkpt lat="48.45747" lon="-4.34066">
        <ele>128.39999389648</ele>
        <time>2018-05-28T09:13:09.000Z</time>
      </trkpt>
      <trkpt lat="48.45753" lon="-4.34071">
        <ele>128.39999389648</ele>
        <time>2018-05-28T09:13:13.000Z</time>
      </trkpt>
      <trkpt lat="48.45758" lon="-4.34071">
        <ele>128.19999694824</ele>
        <time>2018-05-28T09:13:15.000Z</time>
      </trkpt>
      <trkpt lat="48.45786" lon="-4.34079">
        <ele>127.19999694824</ele>
        <time>2018-05-28T09:13:21.000Z</time>
      </trkpt>
      <trkpt lat="48.45806" lon="-4.34086">
        <ele>126.59999847412</ele>
        <time>2018-05-28T09:13:24.000Z</time>
      </trkpt>
      <trkpt lat="48.45846" lon="-4.34097">
        <ele>125.19999694824</ele>
        <time>2018-05-28T09:13:29.000Z</time>
      </trkpt>
      <trkpt lat="48.45893" lon="-4.34117">
        <ele>122.19999694824</ele>
        <time>2018-05-28T09:13:35.000Z</time>
      </trkpt>
      <trkpt lat="48.45932" lon="-4.34132">
        <ele>120</ele>
        <time>2018-05-28T09:13:40.000Z</time>
      </trkpt>
      <trkpt lat="48.45972" lon="-4.34147">
        <ele>118</ele>
        <time>2018-05-28T09:13:45.000Z</time>
      </trkpt>
      <trkpt lat="48.45981" lon="-4.3415">
        <ele>117.80000305176</ele>
        <time>2018-05-28T09:13:46.000Z</time>
      </trkpt>
      <trkpt lat="48.46" lon="-4.34156">
        <ele>117.40000152588</ele>
        <time>2018-05-28T09:13:49.000Z</time>
      </trkpt>
      <trkpt lat="48.46007" lon="-4.3416">
        <ele>117.40000152588</ele>
        <time>2018-05-28T09:13:52.000Z</time>
      </trkpt>
      <trkpt lat="48.4601" lon="-4.34171">
        <ele>117.59999847412</ele>
        <time>2018-05-28T09:13:58.000Z</time>
      </trkpt>
      <trkpt lat="48.4601" lon="-4.34191">
        <ele>118</ele>
        <time>2018-05-28T09:14:02.000Z</time>
      </trkpt>
      <trkpt lat="48.46008" lon="-4.34246">
        <ele>118.19999694824</ele>
        <time>2018-05-28T09:14:10.000Z</time>
      </trkpt>
      <trkpt lat="48.46008" lon="-4.34261">
        <ele>118.19999694824</ele>
        <time>2018-05-28T09:14:12.000Z</time>
      </trkpt>
      <trkpt lat="48.46016" lon="-4.3429">
        <ele>118</ele>
        <time>2018-05-28T09:14:17.000Z</time>
      </trkpt>
      <trkpt lat="48.4603" lon="-4.34295">
        <ele>117.19999694824</ele>
        <time>2018-05-28T09:14:20.000Z</time>
      </trkpt>
      <trkpt lat="48.4606" lon="-4.34295">
        <ele>115.80000305176</ele>
        <time>2018-05-28T09:14:25.000Z</time>
      </trkpt>
      <trkpt lat="48.46084" lon="-4.34304">
        <ele>114.59999847412</ele>
        <time>2018-05-28T09:14:29.000Z</time>
      </trkpt>
      <trkpt lat="48.46111" lon="-4.34329">
        <ele>114.40000152588</ele>
        <time>2018-05-28T09:14:34.000Z</time>
      </trkpt>
      <trkpt lat="48.46129" lon="-4.34347">
        <ele>114.40000152588</ele>
        <time>2018-05-28T09:14:37.000Z</time>
      </trkpt>
      <trkpt lat="48.46151" lon="-4.34393">
        <ele>113.59999847412</ele>
        <time>2018-05-28T09:14:42.000Z</time>
      </trkpt>
      <trkpt lat="48.46154" lon="-4.34414">
        <ele>113.59999847412</ele>
        <time>2018-05-28T09:14:44.000Z</time>
      </trkpt>
      <trkpt lat="48.46163" lon="-4.34438">
        <ele>113.80000305176</ele>
        <time>2018-05-28T09:14:47.000Z</time>
      </trkpt>
      <trkpt lat="48.46183" lon="-4.34449">
        <ele>114</ele>
        <time>2018-05-28T09:14:51.000Z</time>
      </trkpt>
      <trkpt lat="48.4619" lon="-4.34436">
        <ele>113.40000152588</ele>
        <time>2018-05-28T09:14:54.000Z</time>
      </trkpt>
      <trkpt lat="48.46192" lon="-4.34405">
        <ele>113.19999694824</ele>
        <time>2018-05-28T09:14:58.000Z</time>
      </trkpt>
      <trkpt lat="48.46188" lon="-4.3438">
        <ele>113.59999847412</ele>
        <time>2018-05-28T09:15:01.000Z</time>
      </trkpt>
      <trkpt lat="48.46184" lon="-4.34348">
        <ele>113.80000305176</ele>
        <time>2018-05-28T09:15:05.000Z</time>
      </trkpt>
      <trkpt lat="48.46185" lon="-4.34338">
        <ele>113.59999847412</ele>
        <time>2018-05-28T09:15:07.000Z</time>
      </trkpt>
      <trkpt lat="48.46202" lon="-4.34339">
        <ele>112.40000152588</ele>
        <time>2018-05-28T09:15:11.000Z</time>
      </trkpt>
      <trkpt lat="48.4622" lon="-4.34342">
        <ele>111</ele>
        <time>2018-05-28T09:15:14.000Z</time>
      </trkpt>
      <trkpt lat="48.46237" lon="-4.34366">
        <ele>109.40000152588</ele>
        <time>2018-05-28T09:15:19.000Z</time>
      </trkpt>
      <trkpt lat="48.46232" lon="-4.34382">
        <ele>109.80000305176</ele>
        <time>2018-05-28T09:15:23.000Z</time>
      </trkpt>
      <trkpt lat="48.4622" lon="-4.34402">
        <ele>110.80000305176</ele>
        <time>2018-05-28T09:15:28.000Z</time>
      </trkpt>
      <trkpt lat="48.46218" lon="-4.34409">
        <ele>111</ele>
        <time>2018-05-28T09:15:30.000Z</time>
      </trkpt>
      <trkpt lat="48.46215" lon="-4.34444">
        <ele>112.40000152588</ele>
        <time>2018-05-28T09:15:35.000Z</time>
      </trkpt>
      <trkpt lat="48.46212" lon="-4.34475">
        <ele>111.59999847412</ele>
        <time>2018-05-28T09:15:39.000Z</time>
      </trkpt>
      <trkpt lat="48.46212" lon="-4.34491">
        <ele>111</ele>
        <time>2018-05-28T09:15:43.000Z</time>
      </trkpt>
      <trkpt lat="48.46209" lon="-4.34502">
        <ele>110.80000305176</ele>
        <time>2018-05-28T09:15:45.000Z</time>
      </trkpt>
      <trkpt lat="48.46189" lon="-4.34551">
        <ele>110.40000152588</ele>
        <time>2018-05-28T09:15:53.000Z</time>
      </trkpt>
      <trkpt lat="48.46169" lon="-4.346">
        <ele>110.19999694824</ele>
        <time>2018-05-28T09:16:01.000Z</time>
      </trkpt>
      <trkpt lat="48.46153" lon="-4.34636">
        <ele>110.80000305176</ele>
        <time>2018-05-28T09:16:07.000Z</time>
      </trkpt>
      <trkpt lat="48.46135" lon="-4.34681">
        <ele>112.19999694824</ele>
        <time>2018-05-28T09:16:14.000Z</time>
      </trkpt>
      <trkpt lat="48.46111" lon="-4.34742">
        <ele>113.40000152588</ele>
        <time>2018-05-28T09:16:24.000Z</time>
      </trkpt>
      <trkpt lat="48.4609" lon="-4.34792">
        <ele>114.40000152588</ele>
        <time>2018-05-28T09:16:32.000Z</time>
      </trkpt>
      <trkpt lat="48.46071" lon="-4.34837">
        <ele>115.40000152588</ele>
        <time>2018-05-28T09:16:39.000Z</time>
      </trkpt>
      <trkpt lat="48.46055" lon="-4.34874">
        <ele>116.19999694824</ele>
        <time>2018-05-28T09:16:45.000Z</time>
      </trkpt>
      <trkpt lat="48.46035" lon="-4.34921">
        <ele>117.19999694824</ele>
        <time>2018-05-28T09:16:52.000Z</time>
      </trkpt>
      <trkpt lat="48.46014" lon="-4.34974">
        <ele>117.40000152588</ele>
        <time>2018-05-28T09:16:59.000Z</time>
      </trkpt>
      <trkpt lat="48.46" lon="-4.35009">
        <ele>117.19999694824</ele>
        <time>2018-05-28T09:17:04.000Z</time>
      </trkpt>
      <trkpt lat="48.45984" lon="-4.35026">
        <ele>117.59999847412</ele>
        <time>2018-05-28T09:17:08.000Z</time>
      </trkpt>
      <trkpt lat="48.45971" lon="-4.35016">
        <ele>118.40000152588</ele>
        <time>2018-05-28T09:17:11.000Z</time>
      </trkpt>
      <trkpt lat="48.45969" lon="-4.3501">
        <ele>118.80000305176</ele>
        <time>2018-05-28T09:17:12.000Z</time>
      </trkpt>
      <trkpt lat="48.45953" lon="-4.34983">
        <ele>119.59999847412</ele>
        <time>2018-05-28T09:17:17.000Z</time>
      </trkpt>
      <trkpt lat="48.45938" lon="-4.34968">
        <ele>119.80000305176</ele>
        <time>2018-05-28T09:17:21.000Z</time>
      </trkpt>
      <trkpt lat="48.45915" lon="-4.34942">
        <ele>120.59999847412</ele>
        <time>2018-05-28T09:17:27.000Z</time>
      </trkpt>
      <trkpt lat="48.45905" lon="-4.34942">
        <ele>120.80000305176</ele>
        <time>2018-05-28T09:17:29.000Z</time>
      </trkpt>
      <trkpt lat="48.45886" lon="-4.34949">
        <ele>121.59999847412</ele>
        <time>2018-05-28T09:17:33.000Z</time>
      </trkpt>
      <trkpt lat="48.4585" lon="-4.34968">
        <ele>123</ele>
        <time>2018-05-28T09:17:41.000Z</time>
      </trkpt>
      <trkpt lat="48.4582" lon="-4.34978">
        <ele>123.80000305176</ele>
        <time>2018-05-28T09:17:47.000Z</time>
      </trkpt>
      <trkpt lat="48.45789" lon="-4.34994">
        <ele>124.19999694824</ele>
        <time>2018-05-28T09:17:53.000Z</time>
      </trkpt>
      <trkpt lat="48.45757" lon="-4.35013">
        <ele>124.59999847412</ele>
        <time>2018-05-28T09:17:59.000Z</time>
      </trkpt>
      <trkpt lat="48.45714" lon="-4.3502">
        <ele>123.59999847412</ele>
        <time>2018-05-28T09:18:06.000Z</time>
      </trkpt>
      <trkpt lat="48.45701" lon="-4.35022">
        <ele>123.40000152588</ele>
        <time>2018-05-28T09:18:08.000Z</time>
      </trkpt>
      <trkpt lat="48.45676" lon="-4.35018">
        <ele>123</ele>
        <time>2018-05-28T09:18:12.000Z</time>
      </trkpt>
      <trkpt lat="48.45658" lon="-4.3501">
        <ele>122.80000305176</ele>
        <time>2018-05-28T09:18:15.000Z</time>
      </trkpt>
      <trkpt lat="48.45612" lon="-4.34994">
        <ele>122.19999694824</ele>
        <time>2018-05-28T09:18:22.000Z</time>
      </trkpt>
      <trkpt lat="48.45559" lon="-4.34969">
        <ele>121.80000305176</ele>
        <time>2018-05-28T09:18:29.000Z</time>
      </trkpt>
      <trkpt lat="48.45507" lon="-4.34949">
        <ele>120.80000305176</ele>
        <time>2018-05-28T09:18:36.000Z</time>
      </trkpt>
      <trkpt lat="48.45468" lon="-4.34941">
        <ele>120</ele>
        <time>2018-05-28T09:18:42.000Z</time>
      </trkpt>
      <trkpt lat="48.45463" lon="-4.3494">
        <ele>119.80000305176</ele>
        <time>2018-05-28T09:18:43.000Z</time>
      </trkpt>
      <trkpt lat="48.45451" lon="-4.34957">
        <ele>119.40000152588</ele>
        <time>2018-05-28T09:18:47.000Z</time>
      </trkpt>
      <trkpt lat="48.45442" lon="-4.35008">
        <ele>118.40000152588</ele>
        <time>2018-05-28T09:18:52.000Z</time>
      </trkpt>
      <trkpt lat="48.45439" lon="-4.35019">
        <ele>118.19999694824</ele>
        <time>2018-05-28T09:18:53.000Z</time>
      </trkpt>
      <trkpt lat="48.45414" lon="-4.35068">
        <ele>117.40000152588</ele>
        <time>2018-05-28T09:18:58.000Z</time>
      </trkpt>
      <trkpt lat="48.45408" lon="-4.35077">
        <ele>117.19999694824</ele>
        <time>2018-05-28T09:18:59.000Z</time>
      </trkpt>
      <trkpt lat="48.45394" lon="-4.3512">
        <ele>116.59999847412</ele>
        <time>2018-05-28T09:19:03.000Z</time>
      </trkpt>
      <trkpt lat="48.45388" lon="-4.35194">
        <ele>116.80000305176</ele>
        <time>2018-05-28T09:19:09.000Z</time>
      </trkpt>
      <trkpt lat="48.45385" lon="-4.35265">
        <ele>117</ele>
        <time>2018-05-28T09:19:15.000Z</time>
      </trkpt>
      <trkpt lat="48.45381" lon="-4.35327">
        <ele>117.59999847412</ele>
        <time>2018-05-28T09:19:21.000Z</time>
      </trkpt>
      <trkpt lat="48.45369" lon="-4.35392">
        <ele>118</ele>
        <time>2018-05-28T09:19:28.000Z</time>
      </trkpt>
      <trkpt lat="48.4536" lon="-4.35425">
        <ele>118.19999694824</ele>
        <time>2018-05-28T09:19:33.000Z</time>
      </trkpt>
      <trkpt lat="48.45358" lon="-4.35431">
        <ele>118.19999694824</ele>
        <time>2018-05-28T09:19:34.000Z</time>
      </trkpt>
      <trkpt lat="48.45346" lon="-4.35468">
        <ele>118.80000305176</ele>
        <time>2018-05-28T09:19:40.000Z</time>
      </trkpt>
      <trkpt lat="48.45329" lon="-4.35516">
        <ele>120.40000152588</ele>
        <time>2018-05-28T09:19:46.000Z</time>
      </trkpt>
      <trkpt lat="48.45302" lon="-4.35566">
        <ele>121.40000152588</ele>
        <time>2018-05-28T09:19:53.000Z</time>
      </trkpt>
      <trkpt lat="48.45283" lon="-4.35596">
        <ele>121.80000305176</ele>
        <time>2018-05-28T09:19:58.000Z</time>
      </trkpt>
      <trkpt lat="48.45264" lon="-4.35649">
        <ele>122.40000152588</ele>
        <time>2018-05-28T09:20:06.000Z</time>
      </trkpt>
      <trkpt lat="48.45248" lon="-4.35711">
        <ele>122.19999694824</ele>
        <time>2018-05-28T09:20:15.000Z</time>
      </trkpt>
      <trkpt lat="48.45235" lon="-4.35757">
        <ele>122.19999694824</ele>
        <time>2018-05-28T09:20:21.000Z</time>
      </trkpt>
      <trkpt lat="48.4522" lon="-4.35822">
        <ele>121.80000305176</ele>
        <time>2018-05-28T09:20:28.000Z</time>
      </trkpt>
      <trkpt lat="48.45207" lon="-4.3587">
        <ele>121.59999847412</ele>
        <time>2018-05-28T09:20:33.000Z</time>
      </trkpt>
      <trkpt lat="48.45201" lon="-4.35888">
        <ele>121.40000152588</ele>
        <time>2018-05-28T09:20:35.000Z</time>
      </trkpt>
      <trkpt lat="48.45187" lon="-4.35929">
        <ele>121</ele>
        <time>2018-05-28T09:20:40.000Z</time>
      </trkpt>
      <trkpt lat="48.45184" lon="-4.35936">
        <ele>121</ele>
        <time>2018-05-28T09:20:41.000Z</time>
      </trkpt>
      <trkpt lat="48.45172" lon="-4.35953">
        <ele>120.19999694824</ele>
        <time>2018-05-28T09:20:44.000Z</time>
      </trkpt>
      <trkpt lat="48.4514" lon="-4.35967">
        <ele>118</ele>
        <time>2018-05-28T09:20:49.000Z</time>
      </trkpt>
      <trkpt lat="48.45103" lon="-4.35985">
        <ele>115.19999694824</ele>
        <time>2018-05-28T09:20:54.000Z</time>
      </trkpt>
      <trkpt lat="48.4508" lon="-4.36005">
        <ele>113.40000152588</ele>
        <time>2018-05-28T09:20:58.000Z</time>
      </trkpt>
      <trkpt lat="48.45075" lon="-4.36022">
        <ele>113</ele>
        <time>2018-05-28T09:21:01.000Z</time>
      </trkpt>
      <trkpt lat="48.45071" lon="-4.36047">
        <ele>112.59999847412</ele>
        <time>2018-05-28T09:21:05.000Z</time>
      </trkpt>
      <trkpt lat="48.4507" lon="-4.36076">
        <ele>112.80000305176</ele>
        <time>2018-05-28T09:21:09.000Z</time>
      </trkpt>
      <trkpt lat="48.4506" lon="-4.36092">
        <ele>112</ele>
        <time>2018-05-28T09:21:14.000Z</time>
      </trkpt>
      <trkpt lat="48.45037" lon="-4.36097">
        <ele>109.80000305176</ele>
        <time>2018-05-28T09:21:19.000Z</time>
      </trkpt>
      <trkpt lat="48.45014" lon="-4.36105">
        <ele>107.80000305176</ele>
        <time>2018-05-28T09:21:25.000Z</time>
      </trkpt>
      <trkpt lat="48.44996" lon="-4.36109">
        <ele>106.80000305176</ele>
        <time>2018-05-28T09:21:30.000Z</time>
      </trkpt>
      <trkpt lat="48.44983" lon="-4.36111">
        <ele>106</ele>
        <time>2018-05-28T09:21:35.000Z</time>
      </trkpt>
      <trkpt lat="48.44969" lon="-4.36123">
        <ele>105.19999694824</ele>
        <time>2018-05-28T09:21:40.000Z</time>
      </trkpt>
      <trkpt lat="48.44953" lon="-4.36139">
        <ele>104</ele>
        <time>2018-05-28T09:21:44.000Z</time>
      </trkpt>
      <trkpt lat="48.4494" lon="-4.36148">
        <ele>103</ele>
        <time>2018-05-28T09:21:47.000Z</time>
      </trkpt>
      <trkpt lat="48.44917" lon="-4.36155">
        <ele>101.80000305176</ele>
        <time>2018-05-28T09:21:52.000Z</time>
      </trkpt>
      <trkpt lat="48.44909" lon="-4.36156">
        <ele>101.40000152588</ele>
        <time>2018-05-28T09:21:54.000Z</time>
      </trkpt>
      <trkpt lat="48.44894" lon="-4.36155">
        <ele>100.59999847412</ele>
        <time>2018-05-28T09:21:59.000Z</time>
      </trkpt>
      <trkpt lat="48.44882" lon="-4.36143">
        <ele>100.19999694824</ele>
        <time>2018-05-28T09:22:02.000Z</time>
      </trkpt>
      <trkpt lat="48.44848" lon="-4.36107">
        <ele>98.800003051758</ele>
        <time>2018-05-28T09:22:10.000Z</time>
      </trkpt>
      <trkpt lat="48.44844" lon="-4.36102">
        <ele>98.599998474121</ele>
        <time>2018-05-28T09:22:11.000Z</time>
      </trkpt>
      <trkpt lat="48.44828" lon="-4.36076">
        <ele>97.199996948242</ele>
        <time>2018-05-28T09:22:15.000Z</time>
      </trkpt>
      <trkpt lat="48.44811" lon="-4.36039">
        <ele>97.599998474121</ele>
        <time>2018-05-28T09:22:20.000Z</time>
      </trkpt>
      <trkpt lat="48.44803" lon="-4.36041">
        <ele>97.599998474121</ele>
        <time>2018-05-28T09:22:23.000Z</time>
      </trkpt>
      <trkpt lat="48.44798" lon="-4.36061">
        <ele>96.599998474121</ele>
        <time>2018-05-28T09:22:26.000Z</time>
      </trkpt>
      <trkpt lat="48.44792" lon="-4.36083">
        <ele>95.599998474121</ele>
        <time>2018-05-28T09:22:29.000Z</time>
      </trkpt>
      <trkpt lat="48.44776" lon="-4.36125">
        <ele>94</ele>
        <time>2018-05-28T09:22:34.000Z</time>
      </trkpt>
      <trkpt lat="48.44763" lon="-4.36159">
        <ele>91</ele>
        <time>2018-05-28T09:22:37.000Z</time>
      </trkpt>
      <trkpt lat="48.44738" lon="-4.36235">
        <ele>85.599998474121</ele>
        <time>2018-05-28T09:22:43.000Z</time>
      </trkpt>
      <trkpt lat="48.44729" lon="-4.36258">
        <ele>84.199996948242</ele>
        <time>2018-05-28T09:22:45.000Z</time>
      </trkpt>
      <trkpt lat="48.44706" lon="-4.36259">
        <ele>82.599998474121</ele>
        <time>2018-05-28T09:22:49.000Z</time>
      </trkpt>
      <trkpt lat="48.4469" lon="-4.36245">
        <ele>81.800003051758</ele>
        <time>2018-05-28T09:22:53.000Z</time>
      </trkpt>
      <trkpt lat="48.44653" lon="-4.36232">
        <ele>82.199996948242</ele>
        <time>2018-05-28T09:23:00.000Z</time>
      </trkpt>
      <trkpt lat="48.44648" lon="-4.36231">
        <ele>82.199996948242</ele>
        <time>2018-05-28T09:23:01.000Z</time>
      </trkpt>
      <trkpt lat="48.44602" lon="-4.36213">
        <ele>81</ele>
        <time>2018-05-28T09:23:07.000Z</time>
      </trkpt>
      <trkpt lat="48.44583" lon="-4.36201">
        <ele>80.599998474121</ele>
        <time>2018-05-28T09:23:12.000Z</time>
      </trkpt>
      <trkpt lat="48.44578" lon="-4.36203">
        <ele>80.599998474121</ele>
        <time>2018-05-28T09:23:13.000Z</time>
      </trkpt>
      <trkpt lat="48.44566" lon="-4.3621">
        <ele>80.599998474121</ele>
        <time>2018-05-28T09:23:16.000Z</time>
      </trkpt>
      <trkpt lat="48.44552" lon="-4.36218">
        <ele>80.400001525879</ele>
        <time>2018-05-28T09:23:21.000Z</time>
      </trkpt>
      <trkpt lat="48.44545" lon="-4.36216">
        <ele>80.199996948242</ele>
        <time>2018-05-28T09:23:26.000Z</time>
      </trkpt>
      <trkpt lat="48.44533" lon="-4.36215">
        <ele>79.800003051758</ele>
        <time>2018-05-28T09:23:33.000Z</time>
      </trkpt>
      <trkpt lat="48.44524" lon="-4.36213">
        <ele>79.599998474121</ele>
        <time>2018-05-28T09:23:38.000Z</time>
      </trkpt>
      <trkpt lat="48.4452" lon="-4.36212">
        <ele>79.400001525879</ele>
        <time>2018-05-28T09:23:40.000Z</time>
      </trkpt>
      <trkpt lat="48.44509" lon="-4.36201">
        <ele>79.199996948242</ele>
        <time>2018-05-28T09:23:46.000Z</time>
      </trkpt>
      <trkpt lat="48.44503" lon="-4.36196">
        <ele>79.400001525879</ele>
        <time>2018-05-28T09:23:49.000Z</time>
      </trkpt>
      <trkpt lat="48.44488" lon="-4.3618">
        <ele>80</ele>
        <time>2018-05-28T09:23:56.000Z</time>
      </trkpt>
      <trkpt lat="48.44477" lon="-4.3617">
        <ele>80.599998474121</ele>
        <time>2018-05-28T09:24:01.000Z</time>
      </trkpt>
      <trkpt lat="48.44472" lon="-4.36165">
        <ele>80.800003051758</ele>
        <time>2018-05-28T09:24:04.000Z</time>
      </trkpt>
      <trkpt lat="48.44456" lon="-4.3615">
        <ele>81.599998474121</ele>
        <time>2018-05-28T09:24:10.000Z</time>
      </trkpt>
      <trkpt lat="48.44442" lon="-4.36135">
        <ele>82.199996948242</ele>
        <time>2018-05-28T09:24:15.000Z</time>
      </trkpt>
      <trkpt lat="48.44423" lon="-4.36123">
        <ele>83.199996948242</ele>
        <time>2018-05-28T09:24:21.000Z</time>
      </trkpt>
      <trkpt lat="48.44408" lon="-4.36108">
        <ele>84</ele>
        <time>2018-05-28T09:24:26.000Z</time>
      </trkpt>
      <trkpt lat="48.44395" lon="-4.361">
        <ele>84.599998474121</ele>
        <time>2018-05-28T09:24:30.000Z</time>
      </trkpt>
      <trkpt lat="48.44376" lon="-4.36087">
        <ele>85.400001525879</ele>
        <time>2018-05-28T09:24:37.000Z</time>
      </trkpt>
      <trkpt lat="48.44374" lon="-4.36085">
        <ele>85.400001525879</ele>
        <time>2018-05-28T09:24:38.000Z</time>
      </trkpt>
      <trkpt lat="48.44362" lon="-4.36074">
        <ele>85.800003051758</ele>
        <time>2018-05-28T09:24:43.000Z</time>
      </trkpt>
      <trkpt lat="48.44359" lon="-4.36072">
        <ele>85.800003051758</ele>
        <time>2018-05-28T09:24:44.000Z</time>
      </trkpt>
      <trkpt lat="48.44334" lon="-4.36058">
        <ele>86.400001525879</ele>
        <time>2018-05-28T09:24:52.000Z</time>
      </trkpt>
      <trkpt lat="48.44327" lon="-4.36072">
        <ele>86.599998474121</ele>
        <time>2018-05-28T09:24:56.000Z</time>
      </trkpt>
      <trkpt lat="48.44321" lon="-4.36088">
        <ele>86.599998474121</ele>
        <time>2018-05-28T09:25:00.000Z</time>
      </trkpt>
      <trkpt lat="48.44309" lon="-4.36088">
        <ele>87</ele>
        <time>2018-05-28T09:25:04.000Z</time>
      </trkpt>
      <trkpt lat="48.443" lon="-4.36082">
        <ele>87.199996948242</ele>
        <time>2018-05-28T09:25:07.000Z</time>
      </trkpt>
      <trkpt lat="48.44284" lon="-4.36071">
        <ele>88.199996948242</ele>
        <time>2018-05-28T09:25:12.000Z</time>
      </trkpt>
      <trkpt lat="48.44266" lon="-4.36056">
        <ele>89.400001525879</ele>
        <time>2018-05-28T09:25:17.000Z</time>
      </trkpt>
      <trkpt lat="48.44254" lon="-4.36043">
        <ele>89.599998474121</ele>
        <time>2018-05-28T09:25:21.000Z</time>
      </trkpt>
      <trkpt lat="48.44241" lon="-4.36031">
        <ele>89.400001525879</ele>
        <time>2018-05-28T09:25:25.000Z</time>
      </trkpt>
      <trkpt lat="48.44222" lon="-4.36033">
        <ele>89</ele>
        <time>2018-05-28T09:25:30.000Z</time>
      </trkpt>
      <trkpt lat="48.44218" lon="-4.36046">
        <ele>88.599998474121</ele>
        <time>2018-05-28T09:25:33.000Z</time>
      </trkpt>
      <trkpt lat="48.44216" lon="-4.36061">
        <ele>88.400001525879</ele>
        <time>2018-05-28T09:25:35.000Z</time>
      </trkpt>
      <trkpt lat="48.44209" lon="-4.36088">
        <ele>88</ele>
        <time>2018-05-28T09:25:39.000Z</time>
      </trkpt>
      <trkpt lat="48.44201" lon="-4.3613">
        <ele>87.400001525879</ele>
        <time>2018-05-28T09:25:44.000Z</time>
      </trkpt>
      <trkpt lat="48.44188" lon="-4.36179">
        <ele>87.800003051758</ele>
        <time>2018-05-28T09:25:50.000Z</time>
      </trkpt>
      <trkpt lat="48.44172" lon="-4.36236">
        <ele>86.599998474121</ele>
        <time>2018-05-28T09:25:57.000Z</time>
      </trkpt>
      <trkpt lat="48.44169" lon="-4.36245">
        <ele>86.199996948242</ele>
        <time>2018-05-28T09:25:58.000Z</time>
      </trkpt>
      <trkpt lat="48.44161" lon="-4.36304">
        <ele>84.199996948242</ele>
        <time>2018-05-28T09:26:04.000Z</time>
      </trkpt>
      <trkpt lat="48.44155" lon="-4.36379">
        <ele>82.400001525879</ele>
        <time>2018-05-28T09:26:11.000Z</time>
      </trkpt>
      <trkpt lat="48.44157" lon="-4.36434">
        <ele>80.400001525879</ele>
        <time>2018-05-28T09:26:16.000Z</time>
      </trkpt>
      <trkpt lat="48.4416" lon="-4.36504">
        <ele>79</ele>
        <time>2018-05-28T09:26:22.000Z</time>
      </trkpt>
      <trkpt lat="48.44168" lon="-4.3656">
        <ele>78.400001525879</ele>
        <time>2018-05-28T09:26:27.000Z</time>
      </trkpt>
      <trkpt lat="48.44168" lon="-4.36601">
        <ele>77.599998474121</ele>
        <time>2018-05-28T09:26:31.000Z</time>
      </trkpt>
      <trkpt lat="48.44156" lon="-4.3662">
        <ele>77.199996948242</ele>
        <time>2018-05-28T09:26:34.000Z</time>
      </trkpt>
      <trkpt lat="48.44142" lon="-4.36647">
        <ele>76.400001525879</ele>
        <time>2018-05-28T09:26:38.000Z</time>
      </trkpt>
      <trkpt lat="48.4414" lon="-4.36672">
        <ele>75.199996948242</ele>
        <time>2018-05-28T09:26:41.000Z</time>
      </trkpt>
      <trkpt lat="48.44148" lon="-4.36697">
        <ele>73.800003051758</ele>
        <time>2018-05-28T09:26:44.000Z</time>
      </trkpt>
      <trkpt lat="48.44155" lon="-4.3672">
        <ele>73.199996948242</ele>
        <time>2018-05-28T09:26:48.000Z</time>
      </trkpt>
      <trkpt lat="48.44148" lon="-4.36738">
        <ele>72.800003051758</ele>
        <time>2018-05-28T09:26:51.000Z</time>
      </trkpt>
      <trkpt lat="48.44144" lon="-4.36771">
        <ele>71.400001525879</ele>
        <time>2018-05-28T09:26:55.000Z</time>
      </trkpt>
      <trkpt lat="48.44153" lon="-4.36835">
        <ele>69.800003051758</ele>
        <time>2018-05-28T09:27:02.000Z</time>
      </trkpt>
      <trkpt lat="48.44157" lon="-4.36882">
        <ele>69.800003051758</ele>
        <time>2018-05-28T09:27:07.000Z</time>
      </trkpt>
      <trkpt lat="48.44162" lon="-4.36916">
        <ele>70.800003051758</ele>
        <time>2018-05-28T09:27:12.000Z</time>
      </trkpt>
      <trkpt lat="48.44176" lon="-4.36955">
        <ele>72</ele>
        <time>2018-05-28T09:27:18.000Z</time>
      </trkpt>
      <trkpt lat="48.44183" lon="-4.3698">
        <ele>73.199996948242</ele>
        <time>2018-05-28T09:27:21.000Z</time>
      </trkpt>
      <trkpt lat="48.44185" lon="-4.36994">
        <ele>73.800003051758</ele>
        <time>2018-05-28T09:27:23.000Z</time>
      </trkpt>
      <trkpt lat="48.44183" lon="-4.37016">
        <ele>74.400001525879</ele>
        <time>2018-05-28T09:27:26.000Z</time>
      </trkpt>
      <trkpt lat="48.4418" lon="-4.37044">
        <ele>74</ele>
        <time>2018-05-28T09:27:30.000Z</time>
      </trkpt>
      <trkpt lat="48.44169" lon="-4.37072">
        <ele>72</ele>
        <time>2018-05-28T09:27:34.000Z</time>
      </trkpt>
      <trkpt lat="48.44164" lon="-4.37105">
        <ele>69.599998474121</ele>
        <time>2018-05-28T09:27:39.000Z</time>
      </trkpt>
      <trkpt lat="48.44164" lon="-4.37117">
        <ele>68.800003051758</ele>
        <time>2018-05-28T09:27:41.000Z</time>
      </trkpt>
      <trkpt lat="48.4417" lon="-4.37128">
        <ele>68.199996948242</ele>
        <time>2018-05-28T09:27:45.000Z</time>
      </trkpt>
      <trkpt lat="48.44175" lon="-4.3713">
        <ele>68.400001525879</ele>
        <time>2018-05-28T09:27:47.000Z</time>
      </trkpt>
      <trkpt lat="48.44181" lon="-4.37131">
        <ele>68.800003051758</ele>
        <time>2018-05-28T09:27:49.000Z</time>
      </trkpt>
      <trkpt lat="48.44193" lon="-4.37148">
        <ele>69.199996948242</ele>
        <time>2018-05-28T09:27:56.000Z</time>
      </trkpt>
      <trkpt lat="48.44195" lon="-4.37149">
        <ele>69.199996948242</ele>
        <time>2018-05-28T09:27:57.000Z</time>
      </trkpt>
      <trkpt lat="48.44204" lon="-4.37164">
        <ele>69.199996948242</ele>
        <time>2018-05-28T09:28:01.000Z</time>
      </trkpt>
      <trkpt lat="48.44216" lon="-4.37183">
        <ele>69</ele>
        <time>2018-05-28T09:28:05.000Z</time>
      </trkpt>
      <trkpt lat="48.44237" lon="-4.37204">
        <ele>68.199996948242</ele>
        <time>2018-05-28T09:28:11.000Z</time>
      </trkpt>
      <trkpt lat="48.44244" lon="-4.37211">
        <ele>68.199996948242</ele>
        <time>2018-05-28T09:28:13.000Z</time>
      </trkpt>
      <trkpt lat="48.44253" lon="-4.37217">
        <ele>68</ele>
        <time>2018-05-28T09:28:16.000Z</time>
      </trkpt>
      <trkpt lat="48.44266" lon="-4.37223">
        <ele>68</ele>
        <time>2018-05-28T09:28:20.000Z</time>
      </trkpt>
      <trkpt lat="48.44286" lon="-4.37226">
        <ele>68.400001525879</ele>
        <time>2018-05-28T09:28:26.000Z</time>
      </trkpt>
      <trkpt lat="48.44288" lon="-4.37226">
        <ele>68.599998474121</ele>
        <time>2018-05-28T09:28:27.000Z</time>
      </trkpt>
      <trkpt lat="48.4429" lon="-4.37226">
        <ele>68.599998474121</ele>
        <time>2018-05-28T09:28:31.000Z</time>
      </trkpt>
      <trkpt lat="48.44307" lon="-4.37224">
        <ele>69</ele>
        <time>2018-05-28T09:28:54.000Z</time>
      </trkpt>
      <trkpt lat="48.44319" lon="-4.37224">
        <ele>69.199996948242</ele>
        <time>2018-05-28T09:28:59.000Z</time>
      </trkpt>
      <trkpt lat="48.4433" lon="-4.37223">
        <ele>69.599998474121</ele>
        <time>2018-05-28T09:29:03.000Z</time>
      </trkpt>
      <trkpt lat="48.44345" lon="-4.37232">
        <ele>70.199996948242</ele>
        <time>2018-05-28T09:29:10.000Z</time>
      </trkpt>
      <trkpt lat="48.44354" lon="-4.37234">
        <ele>71.199996948242</ele>
        <time>2018-05-28T09:29:15.000Z</time>
      </trkpt>
      <trkpt lat="48.4436" lon="-4.37242">
        <ele>72.400001525879</ele>
        <time>2018-05-28T09:29:20.000Z</time>
      </trkpt>
      <trkpt lat="48.4437" lon="-4.37253">
        <ele>74.199996948242</ele>
        <time>2018-05-28T09:29:27.000Z</time>
      </trkpt>
      <trkpt lat="48.44372" lon="-4.37255">
        <ele>74.599998474121</ele>
        <time>2018-05-28T09:29:29.000Z</time>
      </trkpt>
      <trkpt lat="48.44375" lon="-4.37256">
        <ele>75</ele>
        <time>2018-05-28T09:29:31.000Z</time>
      </trkpt>
      <trkpt lat="48.44386" lon="-4.37262">
        <ele>75.800003051758</ele>
        <time>2018-05-28T09:29:40.000Z</time>
      </trkpt>
      <trkpt lat="48.4439" lon="-4.37263">
        <ele>76.199996948242</ele>
        <time>2018-05-28T09:29:43.000Z</time>
      </trkpt>
      <trkpt lat="48.44398" lon="-4.3727">
        <ele>76.800003051758</ele>
        <time>2018-05-28T09:29:50.000Z</time>
      </trkpt>
      <trkpt lat="48.44413" lon="-4.37277">
        <ele>78</ele>
        <time>2018-05-28T09:29:58.000Z</time>
      </trkpt>
      <trkpt lat="48.44422" lon="-4.37281">
        <ele>78.800003051758</ele>
        <time>2018-05-28T09:30:04.000Z</time>
      </trkpt>
      <trkpt lat="48.44429" lon="-4.37284">
        <ele>79.800003051758</ele>
        <time>2018-05-28T09:30:09.000Z</time>
      </trkpt>
      <trkpt lat="48.44441" lon="-4.37284">
        <ele>80.400001525879</ele>
        <time>2018-05-28T09:30:13.000Z</time>
      </trkpt>
      <trkpt lat="48.44459" lon="-4.37287">
        <ele>81.199996948242</ele>
        <time>2018-05-28T09:30:20.000Z</time>
      </trkpt>
      <trkpt lat="48.44475" lon="-4.37291">
        <ele>82</ele>
        <time>2018-05-28T09:30:26.000Z</time>
      </trkpt>
      <trkpt lat="48.44492" lon="-4.37301">
        <ele>82.400001525879</ele>
        <time>2018-05-28T09:30:33.000Z</time>
      </trkpt>
      <trkpt lat="48.44508" lon="-4.37312">
        <ele>83</ele>
        <time>2018-05-28T09:30:40.000Z</time>
      </trkpt>
      <trkpt lat="48.44521" lon="-4.37318">
        <ele>83</ele>
        <time>2018-05-28T09:30:46.000Z</time>
      </trkpt>
      <trkpt lat="48.44535" lon="-4.37324">
        <ele>82.400001525879</ele>
        <time>2018-05-28T09:30:52.000Z</time>
      </trkpt>
      <trkpt lat="48.4455" lon="-4.37328">
        <ele>82</ele>
        <time>2018-05-28T09:30:58.000Z</time>
      </trkpt>
      <trkpt lat="48.44574" lon="-4.37327">
        <ele>82.199996948242</ele>
        <time>2018-05-28T09:31:06.000Z</time>
      </trkpt>
      <trkpt lat="48.44593" lon="-4.37332">
        <ele>82.400001525879</ele>
        <time>2018-05-28T09:31:12.000Z</time>
      </trkpt>
      <trkpt lat="48.44616" lon="-4.37348">
        <ele>82.599998474121</ele>
        <time>2018-05-28T09:31:19.000Z</time>
      </trkpt>
      <trkpt lat="48.44627" lon="-4.37366">
        <ele>82.599998474121</ele>
        <time>2018-05-28T09:31:23.000Z</time>
      </trkpt>
      <trkpt lat="48.44643" lon="-4.37419">
        <ele>83.599998474121</ele>
        <time>2018-05-28T09:31:31.000Z</time>
      </trkpt>
      <trkpt lat="48.44649" lon="-4.37447">
        <ele>83.599998474121</ele>
        <time>2018-05-28T09:31:35.000Z</time>
      </trkpt>
      <trkpt lat="48.44656" lon="-4.37502">
        <ele>85.400001525879</ele>
        <time>2018-05-28T09:31:43.000Z</time>
      </trkpt>
      <trkpt lat="48.4466" lon="-4.37565">
        <ele>86.800003051758</ele>
        <time>2018-05-28T09:31:52.000Z</time>
      </trkpt>
      <trkpt lat="48.44667" lon="-4.37627">
        <ele>88.400001525879</ele>
        <time>2018-05-28T09:32:01.000Z</time>
      </trkpt>
      <trkpt lat="48.44678" lon="-4.37675">
        <ele>88.800003051758</ele>
        <time>2018-05-28T09:32:08.000Z</time>
      </trkpt>
      <trkpt lat="48.44681" lon="-4.37695">
        <ele>89</ele>
        <time>2018-05-28T09:32:11.000Z</time>
      </trkpt>
      <trkpt lat="48.44688" lon="-4.3772">
        <ele>89.800003051758</ele>
        <time>2018-05-28T09:32:15.000Z</time>
      </trkpt>
      <trkpt lat="48.44686" lon="-4.37743">
        <ele>90.599998474121</ele>
        <time>2018-05-28T09:32:19.000Z</time>
      </trkpt>
      <trkpt lat="48.44672" lon="-4.37753">
        <ele>90.800003051758</ele>
        <time>2018-05-28T09:32:23.000Z</time>
      </trkpt>
      <trkpt lat="48.44649" lon="-4.37763">
        <ele>91</ele>
        <time>2018-05-28T09:32:28.000Z</time>
      </trkpt>
      <trkpt lat="48.44625" lon="-4.37777">
        <ele>91.199996948242</ele>
        <time>2018-05-28T09:32:34.000Z</time>
      </trkpt>
      <trkpt lat="48.44607" lon="-4.37784">
        <ele>91</ele>
        <time>2018-05-28T09:32:38.000Z</time>
      </trkpt>
      <trkpt lat="48.44598" lon="-4.37786">
        <ele>90.800003051758</ele>
        <time>2018-05-28T09:32:40.000Z</time>
      </trkpt>
      <trkpt lat="48.44571" lon="-4.37792">
        <ele>88.199996948242</ele>
        <time>2018-05-28T09:32:46.000Z</time>
      </trkpt>
      <trkpt lat="48.44564" lon="-4.37804">
        <ele>87.599998474121</ele>
        <time>2018-05-28T09:32:49.000Z</time>
      </trkpt>
      <trkpt lat="48.44565" lon="-4.3781">
        <ele>87.800003051758</ele>
        <time>2018-05-28T09:32:50.000Z</time>
      </trkpt>
      <trkpt lat="48.44568" lon="-4.37822">
        <ele>87.800003051758</ele>
        <time>2018-05-28T09:32:52.000Z</time>
      </trkpt>
      <trkpt lat="48.44574" lon="-4.37857">
        <ele>88</ele>
        <time>2018-05-28T09:32:57.000Z</time>
      </trkpt>
      <trkpt lat="48.44588" lon="-4.37921">
        <ele>89</ele>
        <time>2018-05-28T09:33:05.000Z</time>
      </trkpt>
      <trkpt lat="48.44603" lon="-4.38006">
        <ele>89.199996948242</ele>
        <time>2018-05-28T09:33:13.000Z</time>
      </trkpt>
      <trkpt lat="48.44609" lon="-4.38034">
        <ele>89.400001525879</ele>
        <time>2018-05-28T09:33:16.000Z</time>
      </trkpt>
      <trkpt lat="48.44618" lon="-4.38066">
        <ele>90</ele>
        <time>2018-05-28T09:33:21.000Z</time>
      </trkpt>
      <trkpt lat="48.44615" lon="-4.38079">
        <ele>90.199996948242</ele>
        <time>2018-05-28T09:33:23.000Z</time>
      </trkpt>
      <trkpt lat="48.44588" lon="-4.38143">
        <ele>90</ele>
        <time>2018-05-28T09:33:32.000Z</time>
      </trkpt>
      <trkpt lat="48.44558" lon="-4.38211">
        <ele>90.400001525879</ele>
        <time>2018-05-28T09:33:41.000Z</time>
      </trkpt>
      <trkpt lat="48.44532" lon="-4.38267">
        <ele>91.599998474121</ele>
        <time>2018-05-28T09:33:48.000Z</time>
      </trkpt>
      <trkpt lat="48.44509" lon="-4.3833">
        <ele>91.400001525879</ele>
        <time>2018-05-28T09:33:55.000Z</time>
      </trkpt>
      <trkpt lat="48.44494" lon="-4.38397">
        <ele>90.400001525879</ele>
        <time>2018-05-28T09:34:01.000Z</time>
      </trkpt>
      <trkpt lat="48.44484" lon="-4.38479">
        <ele>89.199996948242</ele>
        <time>2018-05-28T09:34:08.000Z</time>
      </trkpt>
      <trkpt lat="48.44475" lon="-4.38563">
        <ele>87.800003051758</ele>
        <time>2018-05-28T09:34:15.000Z</time>
      </trkpt>
      <trkpt lat="48.44468" lon="-4.38636">
        <ele>85.800003051758</ele>
        <time>2018-05-28T09:34:21.000Z</time>
      </trkpt>
      <trkpt lat="48.44465" lon="-4.38668">
        <ele>85.400001525879</ele>
        <time>2018-05-28T09:34:24.000Z</time>
      </trkpt>
      <trkpt lat="48.44453" lon="-4.387">
        <ele>84.800003051758</ele>
        <time>2018-05-28T09:34:28.000Z</time>
      </trkpt>
      <trkpt lat="48.44448" lon="-4.38711">
        <ele>84.599998474121</ele>
        <time>2018-05-28T09:34:30.000Z</time>
      </trkpt>
      <trkpt lat="48.44436" lon="-4.38723">
        <ele>84.599998474121</ele>
        <time>2018-05-28T09:34:33.000Z</time>
      </trkpt>
      <trkpt lat="48.44421" lon="-4.38744">
        <ele>84.400001525879</ele>
        <time>2018-05-28T09:34:38.000Z</time>
      </trkpt>
      <trkpt lat="48.44414" lon="-4.38772">
        <ele>83.800003051758</ele>
        <time>2018-05-28T09:34:43.000Z</time>
      </trkpt>
      <trkpt lat="48.44412" lon="-4.38796">
        <ele>84</ele>
        <time>2018-05-28T09:34:46.000Z</time>
      </trkpt>
      <trkpt lat="48.44412" lon="-4.38813">
        <ele>83.599998474121</ele>
        <time>2018-05-28T09:34:48.000Z</time>
      </trkpt>
      <trkpt lat="48.44404" lon="-4.38859">
        <ele>82.199996948242</ele>
        <time>2018-05-28T09:34:52.000Z</time>
      </trkpt>
      <trkpt lat="48.44397" lon="-4.3888">
        <ele>81.400001525879</ele>
        <time>2018-05-28T09:34:54.000Z</time>
      </trkpt>
      <trkpt lat="48.44369" lon="-4.38946">
        <ele>77.800003051758</ele>
        <time>2018-05-28T09:35:01.000Z</time>
      </trkpt>
      <trkpt lat="48.44357" lon="-4.38974">
        <ele>78.199996948242</ele>
        <time>2018-05-28T09:35:05.000Z</time>
      </trkpt>
    </trkseg>
  </trk>
</gpx>